[[{"header":{"parameterUnit":"m.s-1","parameterCategory":1,"la1":31.0,"la2":29.5877,"lo1":-88.7671,"lo2":-86.6584,"dy":0.0162,"dx":0.0185,"nx":115,"ny":88,"refTime":"2023-06-11T12:00:00:Z","depth":0,"parameterNumber":2,"parameterNumberName":"U-component_of_WINDS"},"data":[0.0,0.0,0.0,0.0,0.0,0.0,0.0,0.0,0.0,0.0,0.0,0.0,0.0,0.0,0.0,0.0,0.0,0.0,0.0,0.0,0.0,0.0,0.0,0.0,0.0,0.0,0.0,0.0,0.0,0.0,0.0,0.0,0.0,0.0,0.0,0.0,0.0,0.0,0.0,0.0,0.0,0.0,0.0,0.0,0.0,0.0,0.0,0.0,0.0,0.0,0.0,0.0,0.0,0.0,0.0,0.0,0.0,0.0,0.0,0.0,0.0,0.0,0.0,0.0,0.0,0.0,0.0,0.0,0.0,0.0,0.0,0.0,0.0,0.0,0.0,0.0,0.0,0.0,0.0,0.0,0.0,0.0,0.0,0.0,0.0,0.0,0.0,0.0,0.0,0.0,0.0,0.0,0.0,0.0,0.0,0.0,0.0,0.0,0.0,0.0,0.0,0.0,0.0,0.0,0.0,0.0,0.0,0.0,0.0,0.0,0.0,0.0,0.0,0.0,0.0,0.0,0.0,0.0,0.0,0.0,0.0,0.0,0.0,0.0,0.0,0.0,0.0,0.0,0.0,0.0,0.0,0.0,0.0,0.0,0.0,0.0,0.0,0.0,0.0,0.0,0.0,0.0,0.0,0.0,0.0,0.0,0.0,0.0,0.0,0.0,0.0,0.0,0.0,0.0,0.0,0.0,0.0,0.0,0.0,0.0,0.0,0.0,0.0,0.0,0.0,0.0,0.0,0.0,0.0,0.0,0.0,0.0,0.0,0.0,0.0,0.0,0.0,0.0,0.0,0.0,0.0,0.0,0.0,0.0,0.0,0.0,0.0,0.0,0.0,0.0,0.0,0.0,0.0,0.0,0.0,0.0,0.0,0.0,0.0,0.0,0.0,0.0,0.0,0.0,0.0,0.0,0.0,0.0,0.0,0.0,0.0,0.0,0.0,0.0,0.0,0.0,0.0,0.0,0.0,0.0,0.0,0.0,0.0,0.0,0.0,0.0,0.0,0.0,0.0,0.0,0.0,0.0,0.0,0.0,0.0,0.0,0.0,0.0,0.0,0.0,0.0,0.0,0.0,0.0,0.0,0.0,0.0,0.0,0.0,0.0,0.0,0.0,0.0,0.0,0.0,0.0,0.0,0.0,0.0,0.0,0.0,0.0,0.0,0.0,0.0,0.0,0.0,0.0,0.0,0.0,0.0,0.0,0.0,0.0,0.0,0.0,0.0,0.0,0.0,0.0,0.0,0.0,0.0,0.0,0.0,0.0,0.0,0.0,0.0,0.0,0.0,0.0,0.0,0.0,0.0,0.0,0.0,0.0,0.0,0.0,0.0,0.0,0.0,0.0,0.0,0.0,0.0,0.0,0.0,0.0,0.0,0.0,0.0,0.0,0.0,0.0,0.0,0.0,0.0,0.0,0.0,0.0,0.0,0.0,0.0,0.0,0.0,0.0,0.0,0.0,0.0,0.0,0.0,0.0,0.0,0.0,0.0,0.0,0.0,0.0,0.0,0.0,0.0,0.0,0.0,0.0,0.0,0.0,0.0,0.0,0.0,0.0,0.0,0.0,0.0,0.0,0.0,0.0,0.0,0.0,0.0,0.0,0.0,0.0,0.0,0.0,0.0,0.0,0.0,0.0,0.0,0.0,0.0,0.0,0.0,0.0,0.0,0.0,0.0,0.0,0.0,0.0,0.0,0.0,0.0,0.0,0.0,0.0,0.0,0.0,0.0,0.0,0.0,0.0,0.0,0.0,0.0,0.0,0.0,0.0,0.0,0.0,0.0,0.0,0.0,0.0,0.0,0.0,0.0,0.0,0.0,0.0,0.0,0.0,0.0,0.0,0.0,0.0,0.0,0.0,0.0,0.0,0.0,0.0,0.0,0.0,0.0,0.0,0.0,0.0,0.0,0.0,0.0,0.0,0.0,0.0,0.0,0.0,0.0,0.0,0.0,0.0,0.0,0.0,0.0,0.0,0.0,0.0,0.0,0.0,0.0,0.0,0.0,0.0,0.0,0.0,0.0,0.0,0.0,0.0,0.0,0.0,0.0,0.0,0.0,0.0,0.0,0.0,0.0,0.0,0.0,0.0,0.0,0.0,0.0,0.0,0.0,0.0,0.0,0.0,0.0,0.0,0.0,0.0,0.0,0.0,0.0,0.0,0.0,0.0,0.0,0.0,0.0,0.0,0.0,0.0,0.0,0.0,0.0,0.0,0.0,0.0,0.0,0.0,0.0,0.0,0.0,0.0,0.0,0.0,0.0,0.0,0.0,0.0,0.0,0.0,0.0,0.0,0.0,0.0,0.0,0.0,0.0,0.0,0.0,0.0,0.0,0.0,0.0,0.0,0.0,0.0,0.0,0.0,0.0,0.0,0.0,0.0,0.0,0.0,0.0,0.0,0.0,0.0,0.0,0.0,0.0,0.0,0.0,0.0,0.0,0.0,0.0,0.0,0.0,0.0,0.0,0.0,0.0,0.0,0.0,0.0,0.0,0.0,0.0,0.0,0.0,0.0,0.0,0.0,0.0,0.0,0.0,0.0,0.0,0.0,0.0,0.0,0.0,0.0,0.0,0.0,0.0,0.0,0.0,0.0,0.0,0.0,0.0,0.0,0.0,0.0,0.0,0.0,0.0,0.0,0.0,0.0,0.0,0.0,0.0,0.0,0.0,0.0,0.0,0.0,0.0,0.0,0.0,0.0,0.0,0.0,0.0,0.0,0.0,0.0,0.0,0.0,0.0,0.0,0.0,0.0,0.0,0.0,0.0,0.0,0.0,0.0,0.0,0.0,0.0,0.0,0.0,0.0,0.0,0.0,0.0,0.0,0.0,0.0,0.0,0.0,0.0,0.0,0.0,0.0,0.0,0.0,0.0,0.0,0.0,0.0,0.0,0.0,0.0,0.0,0.0,0.0,0.0,0.0,0.0,0.0,0.0,0.0,0.0,0.0,0.0,0.0,0.0,0.0,0.0,0.0,0.0,0.0,0.0,0.0,0.0,0.0,0.0,0.0,0.0,0.0,0.0,0.0,0.0,0.0,0.0,0.0,0.0,0.0,0.0,0.0,0.0,0.0,0.0,0.0,0.0,0.0,0.0,0.0,0.0,0.0,0.0,0.0,0.0,0.0,0.0,0.0,0.0,0.0,0.0,0.0,0.0,0.0,0.0,0.0,0.0,0.0,0.0,0.0,0.0,0.0,0.0,0.0,0.0,0.0,0.0,0.0,0.0,0.0,0.0,0.0,0.0,0.0,0.0,0.0,0.0,0.0,0.0,0.0,0.0,0.0,0.0,0.0,0.0,0.0,0.0,0.0,0.0,0.0,0.0,0.0,0.0,0.0,0.0,0.0,0.0,0.0,0.0,0.0,0.0,0.0,0.0,0.0,0.0,0.0,0.0,0.0,0.0,0.0,0.0,0.0,0.0,0.0,0.0,0.0,0.0,0.0,0.0,0.0,0.0,0.0,0.0,0.0,0.0,0.0,0.0,0.0,0.0,0.0,0.0,0.0,0.0,0.0,0.0,0.0,0.0,0.0,0.0,0.0,0.0,0.0,0.0,0.0,0.0,0.0,0.0,0.0,0.0,0.0,0.0,0.0,0.0,0.0,0.0,0.0,0.0,0.0,0.0,0.0,0.0,0.0,0.0,0.0,0.0,0.0,0.0,0.0,0.0,0.0,0.0,0.0,0.0,0.0,0.0,0.0,0.0,0.0,0.0,0.0,0.0,0.0,0.0,0.0,0.0,0.0,0.0,0.0,0.0,0.0,0.0,0.0,0.0,0.0,0.0,0.0,0.0,0.0,0.0,0.0,0.0,0.0,0.0,0.0,0.0,0.0,0.0,0.0,0.0,0.0,0.0,0.0,0.0,0.0,0.0,0.0,0.0,0.0,0.0,0.0,0.0,0.0,0.0,0.0,0.0,0.0,0.0,0.0,0.0,0.0,0.0,0.0,0.0,0.0,0.0,0.0,0.0,0.0,0.0,0.0,0.0,0.0,0.0,0.0,0.0,0.0,0.0,0.0,0.0,0.0,0.0,0.0,0.0,0.0,0.0,0.0,0.0,0.0,0.0,0.0,0.0,0.0,0.0,0.0,0.0,0.0,0.0,0.0,0.0,0.0,0.0,0.0,0.0,0.0,0.0,0.0,0.0,0.0,0.0,0.0,0.0,0.0,0.0,0.0,0.0,0.0,0.0,0.0,0.0,0.0,0.0,0.0,0.0,0.0,0.0,0.0,0.0,0.0,0.0,0.0,0.0,0.0,-1.5825,0.0,0.0,0.0,-1.5825,0.0,0.0,0.0,0.0,0.0,0.0,0.0,0.0,0.0,0.0,0.0,0.0,0.0,0.0,0.0,0.0,0.0,0.0,0.0,0.0,0.0,0.0,0.0,0.0,0.0,0.0,0.0,0.0,0.0,0.0,0.0,0.0,0.0,0.0,0.0,0.0,0.0,0.0,0.0,0.0,0.0,0.0,0.0,0.0,0.0,0.0,0.0,0.0,0.0,0.0,0.0,0.0,0.0,0.0,0.0,0.0,0.0,0.0,0.0,0.0,0.0,0.0,0.0,0.0,0.0,0.0,0.0,0.0,0.0,0.0,0.0,0.0,0.0,0.0,0.0,0.0,0.0,0.0,0.0,0.0,0.0,0.0,0.0,0.0,0.0,0.0,0.0,0.0,0.0,0.0,0.0,0.0,0.0,0.0,0.0,0.0,0.0,0.0,0.0,0.0,0.0,0.0,0.0,0.0,0.0,0.0,0.0,0.0,0.0,0.0,-1.5825,-1.5825,-1.5825,-1.5825,-1.5832,0.0,0.0,0.0,0.0,0.0,0.0,0.0,0.0,0.0,0.0,0.0,0.0,0.0,0.0,0.0,0.0,0.0,0.0,0.0,0.0,0.0,0.0,0.0,0.0,0.0,0.0,0.0,0.0,0.0,0.0,0.0,0.0,0.0,0.0,0.0,0.0,0.0,0.0,0.0,0.0,0.0,0.0,0.0,0.0,0.0,0.0,0.0,0.0,0.0,0.0,0.0,0.0,0.0,0.0,0.0,0.0,0.0,0.0,0.0,0.0,0.0,0.0,0.0,0.0,0.0,0.0,0.0,0.0,0.0,0.0,0.0,0.0,0.0,0.0,0.0,0.0,0.0,0.0,0.0,0.0,0.0,0.0,0.0,0.0,0.0,0.0,0.0,0.0,0.0,0.0,0.0,0.0,0.0,0.0,0.0,0.0,0.0,0.0,0.0,0.0,0.0,0.0,0.0,0.0,0.0,0.0,0.0,0.0,0.0,0.0,0.0,0.0,-1.5825,-1.5811,-1.5939,0.0,0.0,0.0,0.0,0.0,0.0,0.0,0.0,0.0,0.0,0.0,0.0,0.0,0.0,0.0,0.0,0.0,0.0,0.0,0.0,0.0,0.0,0.0,0.0,0.0,0.0,0.0,0.0,0.0,0.0,0.0,0.0,0.0,0.0,0.0,0.0,0.0,0.0,0.0,0.0,0.0,0.0,0.0,0.0,0.0,0.0,0.0,0.0,0.0,0.0,0.0,0.0,0.0,0.0,0.0,0.0,0.0,0.0,0.0,0.0,0.0,0.0,0.0,0.0,0.0,0.0,0.0,0.0,0.0,0.0,0.0,0.0,0.0,0.0,0.0,0.0,0.0,0.0,0.0,0.0,0.0,0.0,0.0,0.0,0.0,0.0,0.0,0.0,0.0,0.0,0.0,0.0,0.0,0.0,0.0,0.0,0.0,0.0,0.0,0.0,0.0,0.0,0.0,0.0,0.0,0.0,0.0,0.0,0.0,0.0,-1.5825,-1.5825,-1.5825,0.0,-1.6226,0.0,0.0,0.0,0.0,0.0,0.0,0.0,0.0,0.0,0.0,0.0,0.0,0.0,0.0,0.0,0.0,0.0,0.0,0.0,0.0,0.0,0.0,0.0,0.0,0.0,0.0,0.0,0.0,0.0,0.0,0.0,0.0,0.0,0.0,0.0,0.0,0.0,0.0,0.0,0.0,0.0,0.0,0.0,0.0,0.0,0.0,0.0,0.0,0.0,0.0,0.0,0.0,0.0,0.0,0.0,0.0,0.0,0.0,0.0,0.0,0.0,0.0,0.0,0.0,0.0,0.0,0.0,0.0,0.0,0.0,0.0,0.0,0.0,0.0,0.0,0.0,0.0,0.0,0.0,0.0,0.0,0.0,0.0,0.0,0.0,0.0,0.0,0.0,0.0,0.0,0.0,0.0,0.0,0.0,0.0,0.0,0.0,0.0,0.0,0.0,0.0,0.0,0.0,0.0,0.0,0.0,0.0,0.0,0.0,0.0,-1.5825,-1.5825,-1.5999,-1.6226,0.0,0.0,0.0,0.0,0.0,0.0,0.0,0.0,0.0,0.0,0.0,0.0,0.0,0.0,0.0,0.0,0.0,0.0,0.0,0.0,0.0,0.0,0.0,0.0,0.0,0.0,0.0,0.0,0.0,0.0,0.0,0.0,0.0,0.0,0.0,0.0,0.0,0.0,0.0,0.0,0.0,0.0,0.0,0.0,0.0,0.0,0.0,0.0,0.0,0.0,0.0,0.0,0.0,0.0,0.0,0.0,0.0,0.0,0.0,0.0,0.0,0.0,0.0,0.0,0.0,0.0,0.0,0.0,0.0,0.0,0.0,0.0,0.0,0.0,0.0,0.0,0.0,0.0,0.0,0.0,0.0,0.0,0.0,0.0,0.0,0.0,0.0,0.0,0.0,0.0,0.0,0.0,0.0,0.0,0.0,0.0,0.0,0.0,0.0,0.0,0.0,0.0,0.0,0.0,0.0,0.0,0.0,0.0,0.0,0.0,-1.5825,-1.5818,-1.5959,-1.6319,-1.6613,-1.682,0.0,0.0,0.0,0.0,0.0,0.0,0.0,0.0,0.0,0.0,0.0,0.0,0.0,0.0,0.0,0.0,0.0,0.0,0.0,0.0,0.0,0.0,0.0,0.0,0.0,0.0,0.0,0.0,0.0,0.0,0.0,0.0,0.0,0.0,0.0,0.0,0.0,0.0,0.0,0.0,0.0,0.0,0.0,0.0,0.0,0.0,0.0,0.0,0.0,0.0,0.0,0.0,0.0,0.0,0.0,0.0,0.0,0.0,0.0,0.0,0.0,0.0,0.0,0.0,0.0,0.0,0.0,0.0,0.0,0.0,0.0,0.0,0.0,0.0,0.0,0.0,0.0,0.0,0.0,0.0,0.0,0.0,0.0,0.0,0.0,0.0,0.0,0.0,0.0,0.0,0.0,0.0,0.0,0.0,0.0,0.0,0.0,0.0,0.0,0.0,0.0,0.0,0.0,0.0,0.0,0.0,0.0,0.0,-1.5825,-1.5832,-1.5965,-1.6259,-1.6857,-1.7166,0.0,0.0,0.0,0.0,0.0,0.0,0.0,0.0,0.0,0.0,0.0,0.0,0.0,0.0,0.0,0.0,0.0,0.0,0.0,0.0,0.0,0.0,0.0,0.0,0.0,0.0,0.0,0.0,0.0,0.0,0.0,0.0,0.0,0.0,0.0,0.0,0.0,0.0,0.0,0.0,0.0,0.0,0.0,0.0,0.0,0.0,0.0,0.0,0.0,0.0,0.0,0.0,0.0,0.0,0.0,0.0,0.0,0.0,0.0,0.0,0.0,0.0,0.0,0.0,0.0,0.0,0.0,0.0,0.0,0.0,0.0,0.0,0.0,0.0,0.0,0.0,0.0,0.0,0.0,0.0,0.0,0.0,0.0,0.0,0.0,0.0,0.0,0.0,0.0,0.0,0.0,0.0,0.0,0.0,0.0,0.0,0.0,0.0,0.0,0.0,0.0,0.0,0.0,0.0,0.0,0.0,0.0,0.0,0.0,-1.5832,-1.6019,-1.6346,-1.6864,-1.7092,-1.7293,0.0,0.0,0.0,0.0,0.0,0.0,0.0,0.0,0.0,0.0,0.0,0.0,0.0,0.0,0.0,0.0,0.0,0.0,0.0,0.0,0.0,0.0,0.0,0.0,0.0,0.0,0.0,0.0,0.0,0.0,0.0,0.0,0.0,0.0,0.0,0.0,0.0,0.0,0.0,0.0,0.0,0.0,0.0,0.0,0.0,0.0,0.0,0.0,0.0,0.0,0.0,0.0,0.0,0.0,0.0,0.0,0.0,0.0,0.0,0.0,0.0,0.0,0.0,0.0,0.0,0.0,0.0,0.0,0.0,0.0,0.0,0.0,0.0,0.0,0.0,0.0,0.0,0.0,0.0,0.0,0.0,0.0,0.0,0.0,0.0,0.0,0.0,0.0,0.0,0.0,0.0,0.0,0.0,0.0,0.0,0.0,0.0,0.0,0.0,0.0,0.0,0.0,0.0,0.0,0.0,0.0,0.0,0.0,0.0,-1.5979,0.0,-1.6797,-1.7186,-1.7293,-1.7382,0.0,0.0,0.0,0.0,0.0,0.0,0.0,0.0,0.0,0.0,0.0,0.0,0.0,0.0,0.0,0.0,0.0,0.0,0.0,0.0,0.0,0.0,0.0,0.0,0.0,0.0,0.0,0.0,0.0,0.0,0.0,0.0,0.0,0.0,0.0,0.0,0.0,0.0,0.0,0.0,0.0,0.0,0.0,0.0,0.0,0.0,0.0,0.0,0.0,0.0,0.0,0.0,0.0,0.0,0.0,0.0,0.0,0.0,0.0,0.0,0.0,0.0,0.0,0.0,0.0,0.0,0.0,0.0,0.0,0.0,0.0,0.0,0.0,0.0,0.0,0.0,0.0,0.0,0.0,0.0,0.0,0.0,0.0,0.0,0.0,0.0,0.0,0.0,0.0,0.0,0.0,0.0,0.0,0.0,0.0,0.0,0.0,0.0,0.0,0.0,0.0,0.0,0.0,0.0,0.0,0.0,0.0,0.0,-1.5999,-1.6335,-1.6891,-1.7186,-1.7213,-1.7422,-1.7582,0.0,0.0,0.0,0.0,0.0,0.0,0.0,0.0,0.0,0.0,0.0,0.0,0.0,0.0,0.0,0.0,0.0,0.0,0.0,0.0,0.0,0.0,0.0,0.0,0.0,0.0,0.0,0.0,0.0,0.0,0.0,0.0,0.0,0.0,0.0,0.0,0.0,0.0,0.0,0.0,0.0,0.0,0.0,0.0,0.0,0.0,0.0,0.0,0.0,0.0,0.0,0.0,0.0,0.0,0.0,0.0,0.0,0.0,0.0,0.0,0.0,0.0,0.0,0.0,0.0,0.0,0.0,0.0,0.0,0.0,0.0,0.0,0.0,0.0,0.0,0.0,0.0,0.0,0.0,0.0,0.0,0.0,0.0,0.0,0.0,0.0,0.0,0.0,0.0,0.0,0.0,0.0,0.0,0.0,0.0,0.0,0.0,0.0,0.0,0.0,0.0,0.0,0.0,0.0,0.0,0.0,0.0,0.0,0.0,-1.6931,-1.7105,-1.73,-1.7442,-1.7588,-1.7589,0.0,0.0,0.0,0.0,0.0,0.0,0.0,0.0,0.0,0.0,0.0,0.0,0.0,0.0,0.0,0.0,0.0,0.0,0.0,0.0,0.0,0.0,0.0,0.0,0.0,0.0,0.0,0.0,0.0,0.0,0.0,0.0,0.0,0.0,0.0,0.0,0.0,0.0,0.0,0.0,0.0,0.0,0.0,0.0,0.0,0.0,0.0,0.0,0.0,0.0,0.0,0.0,0.0,0.0,0.0,0.0,0.0,0.0,0.0,0.0,0.0,0.0,0.0,0.0,0.0,0.0,0.0,0.0,0.0,0.0,0.0,0.0,0.0,0.0,0.0,0.0,0.0,0.0,0.0,0.0,0.0,0.0,0.0,0.0,0.0,0.0,0.0,0.0,0.0,0.0,0.0,0.0,0.0,0.0,0.0,0.0,0.0,0.0,0.0,0.0,0.0,0.0,0.0,0.0,0.0,0.0,0.0,0.0,0.0,-1.736,-1.7367,-1.7447,-1.7582,-1.7589,-1.7589,-1.7589,0.0,0.0,0.0,0.0,0.0,0.0,0.0,0.0,0.0,0.0,0.0,0.0,0.0,0.0,0.0,0.0,0.0,0.0,0.0,0.0,0.0,0.0,0.0,0.0,0.0,0.0,0.0,0.0,0.0,0.0,0.0,0.0,0.0,0.0,0.0,0.0,0.0,0.0,0.0,0.0,0.0,0.0,0.0,0.0,0.0,0.0,0.0,0.0,0.0,0.0,0.0,0.0,0.0,0.0,0.0,0.0,0.0,0.0,0.0,0.0,0.0,0.0,0.0,0.0,0.0,0.0,0.0,0.0,0.0,0.0,0.0,0.0,0.0,0.0,0.0,0.0,0.0,0.0,0.0,0.0,0.0,0.0,0.0,0.0,0.0,0.0,0.0,0.0,0.0,0.0,0.0,0.0,0.0,0.0,0.0,0.0,0.0,0.0,0.0,0.0,0.0,0.0,0.0,0.0,0.0,0.0,0.0,0.0,-1.7589,-1.7589,-1.7582,-1.7582,-1.7589,-1.7589,0.0,0.0,0.0,0.0,0.0,0.0,0.0,0.0,0.0,0.0,0.0,0.0,0.0,0.0,0.0,0.0,0.0,0.0,0.0,0.0,0.0,0.0,0.0,0.0,0.0,0.0,0.0,0.0,0.0,0.0,0.0,0.0,0.0,0.0,0.0,0.0,0.0,0.0,0.0,0.0,0.0,0.0,0.0,0.0,0.0,0.0,0.0,0.0,0.0,0.0,0.0,0.0,0.0,0.0,0.0,0.0,0.0,0.0,0.0,0.0,0.0,0.0,0.0,0.0,0.0,0.0,0.0,0.0,0.0,0.0,0.0,0.0,0.0,0.0,0.0,0.0,0.0,0.0,0.0,0.0,0.0,0.0,0.0,0.0,0.0,0.0,0.0,0.0,0.0,0.0,0.0,0.0,0.0,0.0,0.0,0.0,0.0,0.0,0.0,0.0,0.0,0.0,0.0,0.0,0.0,0.0,0.0,0.0,0.0,-1.7589,-1.7589,-1.7589,-1.7589,-1.7589,-1.7589,0.0,0.0,0.0,0.0,0.0,0.0,0.0,0.0,0.0,0.0,0.0,0.0,0.0,0.0,0.0,0.0,0.0,0.0,0.0,0.0,0.0,0.0,0.0,0.0,0.0,0.0,0.0,0.0,0.0,0.0,0.0,0.0,0.0,0.0,0.0,0.0,0.0,0.0,0.0,0.0,0.0,0.0,0.0,0.0,0.0,0.0,0.0,0.0,0.0,0.0,0.0,0.0,0.0,0.0,0.0,0.0,0.0,0.0,0.0,0.0,0.0,0.0,0.0,0.0,0.0,0.0,0.0,0.0,0.0,0.0,0.0,0.0,0.0,0.0,0.0,0.0,0.0,0.0,0.0,0.0,0.0,0.0,0.0,0.0,0.0,0.0,0.0,0.0,0.0,0.0,0.0,0.0,0.0,0.0,0.0,0.0,0.0,0.0,0.0,0.0,0.0,0.0,0.0,0.0,0.0,0.0,0.0,0.0,-1.7589,-1.7589,-1.7589,-1.7589,-1.7589,-1.7589,-1.7589,0.0,0.0,0.0,0.0,0.0,0.0,0.0,0.0,0.0,0.0,0.0,0.0,0.0,0.0,0.0,0.0,0.0,0.0,0.0,0.0,0.0,0.0,0.0,0.0,0.0,0.0,0.0,0.0,0.0,0.0,0.0,0.0,0.0,0.0,0.0,0.0,0.0,0.0,0.0,0.0,0.0,0.0,0.0,0.0,0.0,0.0,0.0,0.0,0.0,0.0,0.0,0.0,0.0,0.0,0.0,0.0,0.0,0.0,0.0,0.0,0.0,0.0,0.0,0.0,0.0,0.0,0.0,0.0,0.0,0.0,0.0,0.0,0.0,0.0,0.0,0.0,0.0,0.0,0.0,0.0,0.0,0.0,0.0,0.0,0.0,0.0,0.0,0.0,0.0,0.0,0.0,0.0,0.0,0.0,0.0,0.0,0.0,0.0,0.0,0.0,0.0,0.0,0.0,0.0,0.0,0.0,0.0,0.0,-1.7589,-1.7589,-1.7589,-1.7589,-1.7589,-1.7589,-1.7589,0.0,0.0,0.0,0.0,0.0,0.0,0.0,0.0,0.0,0.0,0.0,0.0,0.0,0.0,0.0,0.0,0.0,0.0,0.0,0.0,0.0,0.0,0.0,0.0,0.0,0.0,0.0,0.0,0.0,0.0,0.0,0.0,0.0,0.0,0.0,0.0,0.0,0.0,0.0,0.0,0.0,0.0,0.0,0.0,0.0,0.0,0.0,0.0,0.0,0.0,0.0,0.0,0.0,0.0,0.0,0.0,0.0,0.0,0.0,0.0,0.0,0.0,0.0,0.0,0.0,0.0,0.0,0.0,0.0,0.0,0.0,0.0,0.0,0.0,0.0,0.0,0.0,0.0,0.0,0.0,0.0,0.0,0.0,0.0,0.0,0.0,0.0,0.0,0.0,0.0,0.0,0.0,0.0,0.0,0.0,0.0,0.0,0.0,0.0,0.0,0.0,0.0,0.0,0.0,0.0,0.0,0.0,0.0,-1.7589,-1.7589,-1.7589,-1.7589,-1.7589,-1.7589,-1.7589,0.0,0.0,0.0,0.0,0.0,0.0,0.0,0.0,0.0,0.0,0.0,0.0,0.0,0.0,0.0,0.0,0.0,0.0,0.0,0.0,0.0,0.0,0.0,0.0,0.0,0.0,0.0,0.0,0.0,0.0,0.0,0.0,0.0,0.0,0.0,0.0,0.0,0.0,0.0,0.0,0.0,0.0,0.0,0.0,0.0,0.0,0.0,0.0,-2.5684,0.0,0.0,0.0,0.0,0.0,0.0,0.0,0.0,0.0,0.0,0.0,0.0,0.0,0.0,0.0,0.0,0.0,0.0,0.0,0.0,0.0,0.0,0.0,0.0,0.0,0.0,0.0,0.0,0.0,0.0,0.0,0.0,0.0,0.0,0.0,0.0,0.0,0.0,0.0,0.0,0.0,0.0,0.0,0.0,0.0,0.0,0.0,0.0,0.0,0.0,0.0,0.0,0.0,0.0,0.0,0.0,0.0,0.0,0.0,-1.7589,-1.7589,-1.7589,-1.7589,-1.7589,-1.7722,-1.7802,0.0,0.0,0.0,0.0,0.0,0.0,0.0,0.0,0.0,0.0,0.0,0.0,0.0,0.0,0.0,0.0,0.0,0.0,0.0,0.0,0.0,0.0,0.0,0.0,0.0,0.0,0.0,0.0,0.0,0.0,0.0,0.0,0.0,0.0,0.0,0.0,0.0,0.0,0.0,0.0,0.0,0.0,0.0,0.0,0.0,0.0,0.0,0.0,0.0,0.0,0.0,0.0,0.0,0.0,0.0,0.0,0.0,0.0,0.0,0.0,0.0,0.0,0.0,0.0,0.0,0.0,0.0,0.0,0.0,0.0,0.0,0.0,0.0,0.0,0.0,0.0,0.0,0.0,0.0,0.0,0.0,0.0,0.0,0.0,0.0,0.0,0.0,0.0,0.0,0.0,0.0,0.0,0.0,0.0,0.0,0.0,0.0,0.0,0.0,0.0,0.0,0.0,0.0,0.0,0.0,0.0,0.0,-1.7589,-1.7589,-1.7589,-1.7629,-1.7655,-1.7655,-1.7956,-1.8075,-1.8122,0.0,0.0,0.0,0.0,0.0,0.0,0.0,0.0,0.0,0.0,0.0,0.0,0.0,0.0,0.0,0.0,0.0,0.0,0.0,0.0,0.0,0.0,0.0,0.0,0.0,0.0,0.0,0.0,0.0,0.0,0.0,0.0,0.0,0.0,0.0,0.0,0.0,0.0,-2.5684,-2.5684,0.0,0.0,0.0,0.0,0.0,0.0,0.0,0.0,-2.6435,0.0,0.0,0.0,0.0,0.0,0.0,0.0,0.0,0.0,0.0,0.0,0.0,0.0,0.0,0.0,0.0,0.0,0.0,0.0,0.0,0.0,0.0,0.0,0.0,0.0,0.0,0.0,0.0,0.0,0.0,0.0,0.0,0.0,0.0,0.0,0.0,0.0,0.0,0.0,0.0,0.0,0.0,0.0,0.0,0.0,0.0,0.0,0.0,0.0,0.0,0.0,0.0,0.0,0.0,0.0,0.0,-1.7589,-1.7589,-1.7589,-1.7589,-1.7836,-1.7916,-1.7922,-1.8263,-1.8531,-1.8758,0.0,0.0,0.0,0.0,0.0,0.0,0.0,0.0,0.0,0.0,0.0,0.0,0.0,0.0,0.0,0.0,0.0,0.0,0.0,0.0,0.0,0.0,0.0,0.0,0.0,0.0,0.0,0.0,0.0,0.0,0.0,0.0,0.0,0.0,0.0,0.0,0.0,0.0,0.0,-2.5684,-2.5684,0.0,0.0,0.0,0.0,0.0,0.0,0.0,0.0,-2.7041,0.0,0.0,0.0,0.0,0.0,0.0,0.0,0.0,0.0,0.0,0.0,0.0,0.0,0.0,0.0,0.0,0.0,0.0,0.0,0.0,0.0,0.0,0.0,0.0,0.0,0.0,0.0,0.0,0.0,0.0,0.0,0.0,0.0,0.0,0.0,0.0,0.0,0.0,0.0,0.0,0.0,0.0,0.0,0.0,0.0,0.0,0.0,0.0,0.0,0.0,0.0,0.0,0.0,0.0,0.0,-1.7589,-1.7742,-1.7822,-1.7829,-1.8123,-1.8277,-1.8283,-1.8564,-1.8778,0.0,0.0,0.0,0.0,0.0,0.0,0.0,0.0,0.0,0.0,0.0,0.0,0.0,0.0,0.0,0.0,0.0,0.0,0.0,0.0,0.0,0.0,0.0,0.0,0.0,0.0,0.0,0.0,0.0,0.0,0.0,0.0,0.0,0.0,0.0,0.0,0.0,0.0,0.0,0.0,-2.5888,-2.6074,-2.6074,0.0,0.0,0.0,0.0,0.0,0.0,-2.7217,-2.75,0.0,0.0,0.0,0.0,0.0,0.0,0.0,0.0,0.0,0.0,0.0,0.0,0.0,0.0,0.0,0.0,0.0,0.0,0.0,0.0,0.0,0.0,0.0,0.0,0.0,0.0,0.0,0.0,0.0,0.0,0.0,0.0,0.0,0.0,0.0,0.0,0.0,0.0,0.0,0.0,0.0,0.0,0.0,0.0,0.0,0.0,0.0,0.0,0.0,0.0,0.0,0.0,0.0,0.0,0.0,-1.7682,-1.7976,-1.8082,-1.8095,-1.8424,-1.8577,-1.8584,-1.8865,-1.9011,0.0,0.0,0.0,0.0,0.0,0.0,0.0,0.0,0.0,0.0,0.0,0.0,0.0,0.0,0.0,0.0,0.0,0.0,0.0,0.0,0.0,0.0,0.0,0.0,0.0,0.0,0.0,0.0,0.0,0.0,0.0,0.0,0.0,0.0,0.0,0.0,0.0,0.0,0.0,0.0,0.0,-2.6514,-2.6514,-2.6514,0.0,0.0,0.0,0.0,-2.762,-2.7787,0.0,0.0,0.0,0.0,0.0,0.0,0.0,0.0,0.0,0.0,0.0,0.0,0.0,0.0,0.0,0.0,0.0,0.0,0.0,0.0,0.0,0.0,0.0,0.0,0.0,0.0,0.0,0.0,0.0,0.0,0.0,0.0,0.0,0.0,0.0,0.0,0.0,0.0,0.0,0.0,0.0,0.0,0.0,0.0,0.0,0.0,0.0,0.0,0.0,0.0,0.0,0.0,0.0,0.0,0.0,0.0,-1.7955,-1.829,-1.8444,-1.845,-1.8724,-1.8871,-1.8885,-1.9165,-1.9319,0.0,0.0,0.0,0.0,0.0,0.0,0.0,0.0,0.0,0.0,0.0,0.0,0.0,0.0,0.0,0.0,0.0,0.0,0.0,0.0,0.0,0.0,0.0,0.0,0.0,0.0,0.0,0.0,0.0,0.0,0.0,0.0,0.0,0.0,0.0,0.0,0.0,0.0,0.0,0.0,0.0,-2.6943,-2.6943,-2.6943,-2.6963,0.0,0.0,-2.7601,-2.7708,-2.7978,0.0,0.0,0.0,0.0,0.0,0.0,0.0,0.0,0.0,0.0,0.0,0.0,0.0,0.0,0.0,0.0,0.0,0.0,0.0,0.0,0.0,0.0,0.0,0.0,0.0,0.0,0.0,0.0,0.0,0.0,0.0,0.0,0.0,0.0,0.0,0.0,0.0,0.0,0.0,0.0,0.0,0.0,0.0,0.0,0.0,0.0,0.0,0.0,0.0,0.0,0.0,0.0,0.0,0.0,0.0,-1.8303,-1.831,-1.8584,-1.8738,-1.8744,-1.9018,-1.9172,-1.9178,-1.9305,-1.9424,0.0,0.0,0.0,0.0,0.0,0.0,0.0,0.0,0.0,0.0,0.0,0.0,0.0,0.0,0.0,0.0,0.0,0.0,0.0,0.0,0.0,0.0,0.0,0.0,0.0,0.0,0.0,0.0,0.0,0.0,0.0,0.0,0.0,0.0,0.0,0.0,0.0,0.0,0.0,0.0,0.0,0.0,-2.7383,-2.7383,0.0,0.0,0.0,-2.7796,-2.7988,0.0,0.0,0.0,0.0,0.0,0.0,0.0,0.0,0.0,0.0,0.0,0.0,0.0,0.0,0.0,0.0,0.0,0.0,0.0,0.0,0.0,0.0,0.0,0.0,0.0,0.0,0.0,0.0,0.0,0.0,0.0,0.0,0.0,0.0,0.0,0.0,0.0,0.0,0.0,0.0,0.0,0.0,0.0,0.0,0.0,0.0,0.0,0.0,0.0,0.0,0.0,0.0,0.0,0.0,0.0,0.0,0.0,-1.8604,-1.8885,-1.9032,-1.9038,-1.9252,-1.9424,-1.9424,-1.9424,0.0,0.0,0.0,0.0,0.0,0.0,0.0,0.0,0.0,0.0,0.0,0.0,0.0,0.0,0.0,0.0,0.0,0.0,0.0,0.0,0.0,0.0,0.0,0.0,0.0,0.0,0.0,-1.9272,0.0,0.0,0.0,0.0,0.0,0.0,0.0,0.0,0.0,0.0,0.0,0.0,0.0,0.0,-2.7822,-2.7875,-2.7875,-2.793,0.0,0.0,-2.7982,-2.8242,-2.8301,-2.8301,0.0,0.0,0.0,0.0,0.0,0.0,0.0,0.0,0.0,0.0,0.0,0.0,0.0,0.0,0.0,0.0,0.0,0.0,0.0,0.0,0.0,0.0,0.0,0.0,0.0,0.0,0.0,0.0,0.0,0.0,0.0,0.0,0.0,0.0,0.0,0.0,0.0,0.0,0.0,0.0,0.0,0.0,0.0,0.0,0.0,0.0,0.0,0.0,0.0,0.0,0.0,0.0,0.0,0.0,-1.8898,-1.8905,-1.9185,-1.939,-1.939,-1.941,-1.9424,-1.9424,-1.9424,-1.9424,0.0,0.0,0.0,0.0,0.0,0.0,0.0,0.0,0.0,0.0,0.0,0.0,0.0,0.0,0.0,0.0,0.0,0.0,0.0,0.0,0.0,0.0,0.0,0.0,0.0,0.0,0.0,0.0,0.0,0.0,0.0,0.0,0.0,0.0,0.0,0.0,0.0,0.0,0.0,0.0,0.0,-2.8252,-2.8262,-2.8252,-2.8262,0.0,-2.8271,-2.8262,-2.8291,-2.8301,-2.8301,-2.8301,0.0,0.0,0.0,0.0,0.0,0.0,0.0,0.0,0.0,0.0,0.0,0.0,0.0,0.0,0.0,0.0,0.0,0.0,0.0,0.0,0.0,0.0,0.0,0.0,0.0,0.0,0.0,0.0,0.0,0.0,0.0,0.0,0.0,0.0,0.0,0.0,0.0,0.0,0.0,0.0,0.0,0.0,0.0,0.0,0.0,0.0,0.0,0.0,0.0,0.0,0.0,0.0,0.0,-1.9199,-1.9199,-1.937,-1.9424,-1.9424,-1.9424,-1.9424,-1.9424,-1.9424,-1.9424,0.0,0.0,0.0,0.0,0.0,0.0,0.0,0.0,0.0,0.0,0.0,0.0,0.0,0.0,0.0,0.0,0.0,0.0,0.0,0.0,0.0,0.0,0.0,0.0,0.0,0.0,0.0,0.0,-2.0199,-2.1926,-2.4875,0.0,0.0,0.0,0.0,0.0,0.0,0.0,0.0,0.0,0.0,-2.8301,-2.8301,-2.8301,0.0,0.0,-2.8301,-2.8301,-2.8301,-2.8301,-2.8301,-2.8301,-2.8301,0.0,0.0,0.0,0.0,0.0,0.0,0.0,0.0,0.0,0.0,0.0,0.0,0.0,0.0,0.0,0.0,0.0,0.0,0.0,0.0,0.0,0.0,0.0,0.0,0.0,0.0,0.0,0.0,0.0,0.0,0.0,0.0,0.0,0.0,0.0,0.0,0.0,0.0,0.0,0.0,0.0,0.0,0.0,0.0,0.0,0.0,0.0,0.0,0.0,0.0,0.0,0.0,-1.9424,-1.9424,-1.9424,-1.9424,-1.9424,-1.9424,-1.9424,-1.9424,-1.9424,-1.9424,0.0,0.0,0.0,0.0,0.0,0.0,0.0,0.0,0.0,0.0,0.0,0.0,0.0,0.0,0.0,0.0,0.0,0.0,0.0,0.0,0.0,0.0,0.0,0.0,0.0,0.0,0.0,0.0,-2.0702,-2.2589,-2.5151,0.0,0.0,0.0,0.0,0.0,0.0,0.0,0.0,0.0,0.0,-2.8301,-2.8301,-2.8301,-2.8301,-2.8301,-2.8301,-2.8301,-2.8301,-2.8301,-2.8301,-2.8301,0.0,0.0,0.0,0.0,0.0,0.0,0.0,0.0,0.0,0.0,0.0,0.0,0.0,0.0,0.0,0.0,0.0,0.0,0.0,0.0,0.0,0.0,0.0,0.0,0.0,0.0,0.0,-1.9345,0.0,0.0,-1.941,0.0,0.0,0.0,0.0,0.0,0.0,0.0,0.0,0.0,0.0,0.0,0.0,0.0,0.0,0.0,0.0,0.0,0.0,0.0,0.0,0.0,0.0,-1.9424,-1.9424,-1.9424,-1.9424,-1.9424,-1.9424,-1.9424,-1.9424,-1.9424,-1.9424,-1.9424,0.0,0.0,0.0,0.0,0.0,0.0,0.0,0.0,0.0,0.0,0.0,0.0,0.0,0.0,0.0,0.0,0.0,0.0,0.0,0.0,0.0,0.0,0.0,0.0,0.0,0.0,-1.954,-2.0759,-2.2258,0.0,0.0,0.0,0.0,0.0,0.0,0.0,0.0,0.0,-2.8301,-2.8301,-2.8301,-2.8301,-2.8301,-2.8301,-2.8301,-2.8301,-2.8301,-2.8301,-2.8301,-2.8301,0.0,0.0,0.0,0.0,0.0,0.0,0.0,0.0,0.0,0.0,0.0,0.0,0.0,0.0,0.0,0.0,0.0,0.0,0.0,0.0,0.0,0.0,0.0,0.0,0.0,0.0,0.0,-1.9424,-1.9424,0.0,0.0,0.0,0.0,0.0,0.0,0.0,0.0,0.0,0.0,0.0,-1.9424,-1.9424,0.0,0.0,0.0,0.0,0.0,0.0,0.0,0.0,0.0,0.0,0.0,0.0,-1.9424,-1.9424,-1.9424,-1.9424,-1.9424,-1.9424,-1.9424,-1.9424,-1.9424,-1.9424,-1.9424,0.0,0.0,0.0,0.0,0.0,0.0,0.0,0.0,0.0,0.0,0.0,0.0,0.0,0.0,0.0,0.0,0.0,0.0,0.0,0.0,0.0,0.0,0.0,0.0,0.0,-2.0206,0.0,0.0,0.0,0.0,0.0,0.0,0.0,0.0,0.0,0.0,-2.8301,-2.8301,-2.8301,-2.8301,-2.8301,-2.8301,-2.8301,-2.8301,0.0,0.0,0.0,0.0,0.0,0.0,0.0,0.0,0.0,0.0,0.0,0.0,0.0,-3.0664,-3.0713,-3.0859,-3.0898,-3.0898,-3.0898,0.0,0.0,0.0,0.0,0.0,0.0,0.0,0.0,0.0,0.0,0.0,0.0,0.0,0.0,-1.9424,-1.9424,-1.9424,0.0,0.0,0.0,0.0,0.0,0.0,0.0,0.0,-1.9424,-1.9424,-1.9424,-1.9424,-1.9424,-1.9424,-1.9424,-1.9424,0.0,0.0,0.0,0.0,0.0,0.0,0.0,0.0,-1.9424,-1.9424,-1.9424,-1.9424,-1.9424,-1.9424,-1.9424,-1.9424,-1.9424,-1.9424,-1.9424,-1.9424,-1.9424,0.0,0.0,0.0,0.0,0.0,0.0,0.0,0.0,0.0,0.0,0.0,0.0,0.0,0.0,0.0,0.0,0.0,0.0,0.0,0.0,0.0,0.0,0.0,-2.0148,0.0,0.0,0.0,0.0,0.0,0.0,0.0,0.0,0.0,-2.8237,-2.8301,-2.8301,-2.8301,-2.8301,-2.8301,-2.8301,0.0,0.0,0.0,0.0,0.0,0.0,0.0,-2.8603,-2.8877,-2.917,-2.9524,-2.9948,-2.9581,-2.9399,-2.9943,0.0,0.0,-3.0713,-3.0392,-3.002,-3.002,-2.9355,-2.9133,-3.0573,-2.8924,-2.7206,0.0,0.0,0.0,0.0,-2.1479,0.0,0.0,0.0,-1.9424,-1.9424,0.0,-1.9424,0.0,0.0,0.0,0.0,-1.9424,-1.9424,0.0,0.0,-1.9424,-1.9424,-1.9424,-1.9424,-1.9424,-1.9424,-1.9424,-1.9424,-1.9424,-1.9424,-1.9424,0.0,0.0,0.0,0.0,0.0,-1.9424,-1.9424,-1.9424,-1.9424,-1.9424,-1.9424,-1.9424,-1.9424,-1.9424,-1.9424,-1.9424,-1.9424,-1.943,-1.9386,-1.9444,0.0,0.0,0.0,0.0,0.0,0.0,0.0,0.0,0.0,0.0,0.0,0.0,0.0,0.0,0.0,0.0,0.0,0.0,0.0,0.0,-1.9424,0.0,0.0,0.0,0.0,0.0,0.0,0.0,0.0,0.0,-2.6545,-2.8004,-2.8237,-2.8301,-2.8301,0.0,0.0,0.0,0.0,-2.8301,-2.8301,-2.8301,-2.8301,-2.832,-2.8652,-2.8935,-2.8965,0.0,0.0,-3.081,-2.8233,-2.661,-2.8116,-2.7202,-2.7022,-3.0098,-2.9344,-2.8358,-2.8289,-2.7185,-2.7202,-2.9678,-2.8026,-2.5084,-2.1178,0.0,0.0,0.0,0.0,-2.1145,-2.0371,-1.9424,-1.9424,-1.9424,-1.9424,-1.9424,0.0,0.0,0.0,0.0,0.0,0.0,-1.9424,-1.9424,-1.9424,-1.9424,-1.9424,-1.9424,-1.9424,-1.9424,-1.9424,-1.9424,-1.9424,-1.9424,-1.9424,-1.9424,0.0,0.0,0.0,0.0,-1.9424,-1.9424,-1.9424,-1.9424,-1.9424,-1.9424,-1.9424,-1.9424,-1.9424,-1.9424,-1.9424,-1.9424,-1.9466,-1.9666,-1.9673,0.0,0.0,0.0,0.0,0.0,0.0,0.0,0.0,0.0,0.0,0.0,0.0,0.0,0.0,0.0,0.0,0.0,0.0,0.0,-1.9424,-1.9424,-1.9815,0.0,0.0,0.0,0.0,0.0,0.0,0.0,0.0,0.0,-2.6554,-2.7672,-2.8301,0.0,0.0,-2.8301,-2.8301,-2.8301,-2.8301,-2.8301,-2.8301,0.0,-2.8701,-2.8838,-2.9121,-2.9736,-3.0312,-3.0742,-3.0869,-2.8174,-2.6491,-2.8057,-2.7082,-2.6349,-2.7082,-2.7073,-2.6712,-2.6651,-2.6288,-2.6269,-2.7028,-2.5733,-2.3647,-1.9924,-2.0809,-2.165,-2.1544,-2.0752,-2.0759,-2.0206,-1.9424,-1.9424,-1.9424,-1.9424,-1.9424,-1.9424,-1.9424,-1.9424,0.0,0.0,0.0,-1.9424,-1.9424,-1.9424,-1.9424,-1.9424,-1.9424,-1.9424,-1.9424,-1.9424,-1.9424,-1.9424,-1.9424,-1.9424,-1.9424,0.0,-1.9424,-1.9424,-1.9424,-1.9424,-1.9424,-1.9424,-1.9424,-1.9424,-1.9424,-1.9424,-1.9424,-1.9479,-1.9539,-1.9546,-1.9653,-1.9793,-1.996,-1.9967,-2.0054,0.0,0.0,0.0,0.0,0.0,0.0,0.0,0.0,0.0,0.0,0.0,-1.9713,-1.9713,0.0,0.0,0.0,-1.9439,-1.9424,-1.9424,-1.9424,0.0,0.0,0.0,0.0,0.0,0.0,0.0,-2.371,-2.3822,-2.4378,-2.5936,-2.7394,-2.8301,-2.8301,-2.8301,-2.8301,-2.8301,0.0,-2.8301,-2.8301,-2.8437,-2.8633,-2.8877,-2.9209,-2.9668,-3.0361,-3.0703,-3.0889,-3.082,-2.8205,-2.6303,-2.6456,-2.5327,-2.4039,-2.4093,-2.4039,-2.4278,-2.4893,-2.4471,-2.4101,-2.4031,-2.3248,-2.2298,-1.9424,-1.9424,-1.9424,-1.9424,-1.9424,-1.9424,-1.9424,-1.9424,-1.9424,-1.9424,-1.9424,-1.9424,-1.9424,-1.9424,-1.9424,0.0,-1.9424,-1.9424,-1.9424,-1.9424,-1.9424,-1.9424,-1.9424,-1.9424,-1.9424,-1.9424,-1.9424,-1.9424,-1.9424,-1.9424,-1.9424,-1.9424,-1.9424,-1.9424,-1.9424,-1.9424,-1.9424,-1.9424,-1.9424,-1.9437,-1.9399,-1.9457,-1.947,-1.9439,-1.9693,-1.9833,-1.984,-2.0087,-2.0241,-2.0261,-2.0267,-2.0274,-2.024,0.0,0.0,0.0,0.0,0.0,0.0,0.0,0.0,0.0,0.0,0.0,0.0,0.0,0.0,-1.9833,-1.9573,0.0,-1.9406,-1.9444,0.0,0.0,0.0,-2.1415,-2.1415,-2.1415,-2.1983,-2.3271,0.0,0.0,-2.5709,-2.7114,-2.8067,-2.8291,-2.8301,-2.8301,-2.8301,-2.833,-2.834,-2.8369,-2.8711,-2.8984,-2.9111,-2.9726,-3.0227,-3.0451,-3.0635,-3.0518,-3.0294,-2.7648,-2.5384,-2.4703,-2.2663,-2.1229,-2.1102,-2.1355,-2.1538,-2.3139,-2.2215,-2.1166,-2.1285,-2.1292,-2.1222,-1.9424,-1.9424,-1.9424,-1.9424,-1.9424,-1.9424,-1.9424,-1.9424,-1.9424,-1.9424,-1.9424,-1.9424,-1.9424,-1.9424,-1.9424,-1.9424,-1.9424,-1.9424,-1.9424,-1.9424,-1.9424,-1.9424,-1.9424,-1.9424,-1.9424,-1.9424,-1.9424,-1.9424,-1.9424,-1.9424,-1.9424,-1.9424,-1.9424,-1.9424,-1.9424,-1.9424,-1.9424,-1.9424,-1.9424,-1.9472,-1.9686,-1.97,-1.98,-2.002,-2.0033,-2.0134,-2.0134,-2.0201,-2.0341,-2.0561,-2.0568,-2.0668,-2.0889,-2.0902,0.0,0.0,0.0,0.0,0.0,0.0,0.0,0.0,0.0,-2.0173,-2.0173,0.0,-2.0134,0.0,-1.9867,-1.9693,-1.9693,-1.9499,0.0,0.0,-1.97,-1.9924,-1.9924,-1.9924,-2.004,-2.0429,-2.0429,-2.1437,-2.4053,-2.4663,-2.5717,-2.7906,-2.8301,-2.8301,-2.8301,-2.8574,-2.8769,-2.8809,-2.9141,-2.9521,-2.9844,-3.0351,-3.0315,-2.9207,-2.8669,-2.8381,-2.8367,-2.499,-2.2664,-2.3908,-2.2591,-2.1292,-2.1102,-2.1102,-2.1229,-2.1601,-2.1355,-2.1102,-2.1102,-2.1102,-2.1102,-1.9424,-1.9424,-1.9424,-1.9424,-1.9424,-1.9424,-1.9424,-1.9424,-1.9424,-1.9424,-1.9424,-1.9424,-1.9424,-1.9424,-1.9424,-1.9424,-1.9424,-1.9424,-1.9424,-1.943,-1.9499,-1.9559,-1.9566,-1.9693,-1.9753,-1.9753,-1.9753,-1.9753,-1.9753,-1.9753,-1.9753,-1.9753,-1.9753,-1.9753,-1.9746,-1.9626,-1.9559,-1.9559,-1.9686,-1.9826,-1.9987,-1.9993,-2.0074,-2.0167,-2.0361,-2.0434,-2.0428,-2.0555,-2.0702,-2.0862,-2.0869,-2.0942,-2.1096,-2.1102,-2.1102,0.0,0.0,0.0,0.0,0.0,0.0,0.0,0.0,0.0,0.0,0.0,-2.0368,-2.018,-2.0094,-1.9987,-1.9993,-1.9846,-1.9753,-1.9753,-1.9633,-1.9559,-1.9559,-1.9446,-1.9424,-1.9424,-1.9982,-2.1266,-2.3487,-2.4585,-2.592,-2.824,-2.874,-2.8779,-2.8633,-2.8789,-2.8984,-2.918,-2.957,-3.0,-3.0439,-3.0723,-3.0577,-2.963,-2.8464,-2.747,-2.6945,-2.4566,-2.2675,-2.2828,-2.1923,-2.1102,-2.1102,-2.1102,-2.1102,-2.1102,-2.1102,-2.1102,-2.1102,-2.1102,-2.1102,-1.9424,-1.9424,-1.947,-1.9477,-1.9426,-1.9459,-1.9491,-1.9424,-1.9424,-1.9444,-1.9484,-1.9477,-1.9504,-1.9479,-1.9537,-1.9479,-1.9479,-1.9537,-1.9479,-1.9492,-1.9733,-1.9853,-1.986,-2.0114,-2.0173,-2.0173,-2.0173,-2.0173,-2.0173,-2.0173,-2.0173,-2.0173,-2.0173,-2.0173,-2.0167,-2.002,-1.9893,-1.9867,-2.0107,-2.0187,-2.0287,-2.0287,-2.0307,-2.0354,-2.0595,-2.0735,-2.0742,-2.0975,-2.1102,-2.1102,-2.1102,-2.1102,-2.1102,-2.1102,-2.1102,0.0,-2.1102,0.0,0.0,0.0,0.0,0.0,0.0,0.0,0.0,-2.0882,-2.0628,-2.0361,-2.0253,-2.0287,-2.0287,-2.02,-2.0173,-2.0167,-2.0007,-1.9853,-1.9846,-1.9633,-1.9479,-1.9537,-2.0823,-2.2276,-2.3779,-2.5613,-2.7299,-2.8684,-2.9287,-2.9394,-2.918,-2.9131,-2.9277,-2.9609,-3.001,-3.043,-3.0762,-3.0879,-3.082,-3.0412,-2.8654,-2.7099,-2.6184,-2.477,-2.3305,-2.1645,-2.1171,-2.1096,-2.1102,-2.1102,-2.1102,-2.1102,-2.1102,-2.1102,-2.1102,-2.1102,-2.1102,-1.9424,-1.9392,-1.9619,-1.972,-1.974,-1.9967,-1.98,-1.9424,-1.9424,-1.9499,-1.9713,-1.972,-1.9846,-2.006,-2.0067,-2.0067,-2.0067,-2.0067,-2.0067,-2.0067,-2.012,-2.0154,-2.0154,-2.0147,-2.0173,-2.0173,-2.0173,-2.0173,-2.0173,-2.0173,-2.0173,-2.0173,-2.0173,-2.0173,-2.0247,0.0,0.0,0.0,-2.0207,-2.0347,-2.0581,-2.0588,-2.0708,-2.0935,-2.0995,0.0,-2.1029,-2.1082,-2.1102,-2.1102,-2.1102,0.0,0.0,0.0,0.0,0.0,0.0,0.0,0.0,0.0,0.0,0.0,-2.1102,-2.1102,-2.1102,-2.1056,-2.1009,-2.0942,-2.0735,-2.0595,-2.0588,-2.0374,-2.0173,-2.0167,-2.0187,-2.0154,-2.0147,-2.0094,-2.0074,-2.0067,-2.1467,-2.3025,-2.4441,-2.6153,-2.7713,-2.9099,-2.9521,-2.9678,-2.9932,-2.9922,-2.9971,-3.0098,-3.0449,-3.0771,-3.0869,-3.0898,-3.045,-2.908,-2.7468,-2.6392,-2.5929,-2.3604,-2.186,-2.1099,-2.1082,-2.1102,-2.1102,-2.1102,-2.1102,-2.1102,-2.1102,-2.1102,-2.1102,-2.1102,-2.1102,-1.9793,-1.9806,-1.9953,-2.0013,0.0,-2.0107,-2.0067,-1.98,-1.9793,-1.9873,-2.0013,-2.0013,-2.01,-2.0173,-2.0173,-2.0173,-2.0173,-2.0173,-2.0173,-2.0241,-2.0388,-2.0454,-2.0454,-2.0601,-2.0661,-2.0668,-2.0668,-2.0668,-2.0668,-2.0661,-2.0668,-2.0661,-2.0668,-2.0668,-2.0606,-2.0815,-2.0808,-2.0661,-2.0668,-2.0735,-2.0882,-2.0889,-2.0962,-2.1102,-2.1102,0.0,0.0,0.0,0.0,0.0,0.0,0.0,0.0,-2.1102,0.0,-2.1102,-2.1102,-2.1102,-2.1102,-2.1102,-2.1102,-2.1102,-2.1102,-2.1102,-2.1102,-2.1102,-2.1102,-2.1102,-2.0969,-2.0889,-2.0889,-2.0748,-2.0668,-2.0661,-2.0541,-2.0454,-2.0441,-2.0321,-2.0173,-2.0234,-2.0939,-2.2058,-2.352,-2.5311,-2.6986,-2.849,-2.9613,-3.0283,-3.0469,-3.0332,-3.0254,-3.0488,-3.0723,-3.0889,-3.0898,-3.0898,-3.0333,-2.8724,-2.7743,-2.6899,-2.6142,-2.3988,-2.2104,-2.1355,-2.1102,-2.1102,-2.1102,-2.1102,-2.1102,-2.1102,-2.1102,-2.1102,-2.1102,-2.1102,-2.1102,-2.0173,-2.018,-2.0287,-2.0253,-2.0314,-2.0306,-2.0388,-2.032,-2.022,0.0,0.0,-2.0307,-2.028,-2.0381,-2.032,-2.0388,-2.0326,-2.0388,-2.0326,-2.0401,-2.0641,-2.0748,-2.0768,-2.1002,-2.1102,-2.1102,-2.1102,-2.1102,-2.1102,-2.1102,-2.1102,-2.1102,-2.1102,-2.1102,-2.1102,-2.1102,-2.1102,-2.1102,-2.1102,-2.1102,-2.1102,-2.1102,-2.1102,-2.1102,-2.1102,-2.1102,-2.1102,-2.1102,-2.1102,-2.1102,-2.1102,-2.1102,-2.1102,-2.1102,-2.1102,-2.1102,-2.1102,-2.1102,-2.1102,-2.1102,-2.1102,-2.1102,-2.1102,-2.1102,-2.1102,-2.1102,-2.1102,-2.1102,-2.1102,-2.1102,-2.1102,-2.1102,-2.1102,-2.1102,-2.0895,-2.0755,-2.0742,-2.0548,-2.0414,-2.0388,-2.0706,-2.1287,-2.2691,-2.448,-2.6185,-2.7741,-2.9268,-3.0635,-3.0781,-3.0566,-3.0478,-3.0781,-3.0879,-3.0898,-3.0898,-3.0898,-3.0206,-2.8724,-2.811,-2.7496,-2.6183,-2.4417,-2.2731,-2.1355,-2.1102,-2.1102,-2.1102,-2.1102,-2.1102,-2.1102,-2.1102,-2.1102,-2.1109,-2.1086,-2.1106,-2.018,-2.0254,-2.0508,-2.0615,-2.0635,-2.0882,-2.0989,-2.0942,-2.0454,-2.0374,-2.0615,-2.0615,-2.0755,-2.0982,-2.0989,-2.0989,-2.0989,-2.0989,-2.0989,-2.0989,-2.1029,-2.1049,-2.1049,-2.1089,-2.1102,-2.1102,-2.1102,-2.1102,-2.1102,-2.1102,-2.1102,-2.1102,-2.1102,-2.1102,-2.1102,-2.1102,-2.1102,-2.1102,-2.1102,-2.1102,-2.1102,-2.1102,-2.1102,-2.1102,-2.1102,-2.1102,-2.1102,-2.1102,-2.1102,-2.1102,-2.1102,-2.1102,-2.1102,-2.1102,-2.1102,-2.1102,-2.1102,-2.1102,-2.1102,-2.1102,-2.1102,-2.1102,-2.1102,-2.1102,-2.1102,-2.1102,-2.1102,-2.1102,-2.1102,-2.1102,-2.1102,-2.1102,-2.1102,-2.1102,-2.1076,-2.1049,-2.1029,-2.0995,-2.0942,-2.0935,-2.2276,-2.3039,-2.3441,-2.4881,-2.6472,-2.7902,-2.8915,-2.9344,-3.0567,-3.084,-3.081,-3.0879,-3.0898,-3.0898,-3.0898,-3.0898,-3.0147,-2.8673,-2.7263,-2.6319,-2.5668,-2.3418,-2.1607,-2.1166,-2.1102,-2.1102,-2.1102,-2.1102,-2.1102,-2.1102,-2.1102,-2.1109,-2.1129,-2.1104,-2.1113,-2.0708,-2.0728,-2.0855,-2.0909,-2.0922,-2.1056,-2.1102,-2.1089,-2.0828,-2.0782,-2.0902,-2.0909,-2.0982,-2.1096,-2.1102,-2.1102,-2.1102,-2.1102,-2.1102,-2.1102,-2.1102,-2.1102,-2.1102,-2.1102,-2.1102,-2.1102,-2.1102,-2.1102,-2.1102,-2.1102,-2.1102,-2.1102,-2.1102,-2.1102,-2.1102,-2.1102,-2.1102,-2.1102,-2.1102,-2.1102,-2.1102,-2.1102,-2.1102,-2.1102,-2.1102,-2.1102,-2.1102,-2.1102,-2.1102,-2.1102,-2.1102,-2.1102,-2.1102,-2.1102,-2.1102,-2.1102,-2.1102,-2.1102,-2.1102,-2.1102,-2.1102,-2.1102,-2.1102,-2.1102,-2.1102,-2.1102,-2.1102,-2.1102,-2.1102,-2.1102,-2.1102,-2.1102,-2.1102,-2.1102,-2.1102,-2.1102,-2.1102,-2.1102,-2.1102,-2.1166,-2.1727,-2.2584,-2.3519,-2.5016,-2.6591,-2.8119,-2.903,-3.0079,-3.0772,-3.0898,-3.0898,-3.0898,-3.0898,-3.0898,-3.0889,-3.0898,-2.9844,-2.7572,-2.653,-2.5309,-2.3911,-2.1838,-2.1305,-2.1102,-2.1102,-2.1102,-2.1102,-2.1102,-2.1102,-2.1102,-2.1102,-2.1142,-2.1316,-2.1505,-2.1488,-2.1102,-2.1102,-2.1102,-2.1102,-2.1102,-2.1102,-2.1102,-2.1102,-2.1102,-2.1102,-2.1102,-2.1102,-2.1102,-2.1102,-2.1102,-2.1102,-2.1102,-2.1102,-2.1102,-2.1102,-2.1102,-2.1102,-2.1102,-2.1102,-2.1102,-2.1102,-2.1102,-2.1102,-2.1102,-2.1102,-2.1102,-2.1102,-2.1102,-2.1102,-2.1102,-2.1102,-2.1102,-2.1102,-2.1102,-2.1102,-2.1102,-2.1102,-2.1102,-2.1102,-2.1102,-2.1102,-2.1102,-2.1102,-2.1102,-2.1102,-2.1102,-2.1102,-2.1102,-2.1102,-2.1102,-2.1102,-2.1102,-2.1102,-2.1102,-2.1102,-2.1102,-2.1102,-2.1102,-2.1102,-2.1102,-2.1102,-2.1102,-2.1102,-2.1102,-2.1102,-2.1102,-2.1102,-2.1102,-2.1102,-2.1102,-2.1102,-2.1102,-2.1102,-2.1102,-2.1102,-2.1418,-2.2278,-2.3512,-2.5024,-2.6591,-2.8179,-2.9835,-3.083,-3.0898,-3.0898,-3.0898,-3.0898,-3.0898,-3.0898,-3.0889,-3.046,-2.9107,-2.6401,-2.5619,-2.417,-2.2167,-2.1172,-2.1102,-2.1102,-2.1102,-2.1102,-2.1102,-2.1102,-2.1102,-2.1109,-2.1176,-2.1336,-2.1632,-2.1852,-2.1998,-2.1102,-2.1102,-2.1102,-2.1102,-2.1102,-2.1102,-2.1102,-2.1102,-2.1102,-2.1102,-2.1102,-2.1102,-2.1102,-2.1102,-2.1102,-2.1102,-2.1102,-2.1102,-2.1102,-2.1102,-2.1102,-2.1102,-2.1102,-2.1102,-2.1102,-2.1102,-2.1102,-2.1102,-2.1102,-2.1102,-2.1102,-2.1102,-2.1102,-2.1102,-2.1102,-2.1102,-2.1102,-2.1102,-2.1102,-2.1102,-2.1102,-2.1102,-2.1102,-2.1102,-2.1102,-2.1102,-2.1102,-2.1102,-2.1102,-2.1102,-2.1102,-2.1102,-2.1102,-2.1102,-2.1102,-2.1102,-2.1102,-2.1102,-2.1102,-2.1102,-2.1102,-2.1102,-2.1102,-2.1102,-2.1102,-2.1102,-2.1102,-2.1102,-2.1102,-2.1102,-2.1102,-2.1102,-2.1102,-2.1102,-2.1102,-2.1102,-2.1102,-2.1102,-2.1102,-2.1102,-2.2215,-2.345,-2.369,-2.5138,-2.6712,-2.8179,-2.9835,-3.0898,-3.0898,-3.0898,-3.0898,-3.0889,-3.0889,-3.083,-3.0645,-2.9521,-2.8059,-2.6288,-2.477,-2.3256,-2.172,-2.1102,-2.1102,-2.1102,-2.1102,-2.1102,-2.1102,-2.1102,-2.1116,-2.1216,-2.1383,-2.1612,-2.1932,-2.2198,-2.2372,-2.1102,-2.1102,-2.1102,-2.1102,-2.1102,-2.1102,-2.1102,-2.1102,-2.1102,-2.1102,-2.1102,-2.1102,-2.1102,-2.1102,-2.1102,-2.1102,-2.1102,-2.1102,-2.1102,-2.1102,-2.1102,-2.1102,-2.1102,-2.1102,-2.1102,-2.1102,-2.1102,-2.1102,-2.1102,-2.1102,-2.1102,-2.1102,-2.1102,-2.1102,-2.1102,-2.1102,-2.1102,-2.1102,-2.1102,-2.1102,-2.1102,-2.1102,-2.1102,-2.1102,-2.1102,-2.1102,-2.1102,-2.1102,-2.1102,-2.1102,-2.1102,-2.1102,-2.1102,-2.1102,-2.1102,-2.1102,-2.1102,-2.1102,-2.1102,-2.1102,-2.1102,-2.1102,-2.1102,-2.1102,-2.1102,-2.1102,-2.1102,-2.1102,-2.1102,-2.1102,-2.1102,-2.1102,-2.1102,-2.1102,-2.1102,-2.1102,-2.1102,-2.1102,-2.1102,-2.1166,-2.1664,-2.2591,-2.3752,-2.5871,-2.7503,-2.8486,-2.9844,-3.083,-3.0898,-3.0898,-3.0898,-3.0772,-3.0147,-2.9471,-2.9403,-2.8911,-2.7331,-2.5322,-2.4054,-2.3021,-2.1601,-2.1102,-2.1102,-2.1102,-2.1102,-2.1102,-2.1102,-2.1122,-2.1149,-2.1349,-2.177,-2.2078,-2.2003,-2.2403,-2.2727,-2.1102,-2.1102,-2.1102,-2.1102,-2.1102,-2.1102,-2.1102,-2.1102,-2.1102,-2.1102,-2.1102,-2.1102,-2.1102,-2.1102,-2.1102,-2.1102,-2.1102,-2.1102,-2.1102,-2.1102,-2.1102,-2.1102,-2.1102,-2.1102,-2.1102,-2.1102,-2.1102,-2.1102,-2.1102,-2.1102,-2.1102,-2.1102,-2.1102,-2.1102,-2.1102,-2.1102,-2.1102,-2.1102,-2.1102,-2.1102,-2.1102,-2.1102,-2.1102,-2.1102,-2.1102,-2.1102,-2.1102,-2.1102,-2.1102,-2.1102,-2.1102,-2.1102,-2.1102,-2.1102,-2.1102,-2.1102,-2.1102,-2.1102,-2.1102,-2.1102,-2.1102,-2.1102,-2.1102,-2.1102,-2.1102,-2.1102,-2.1102,-2.1102,-2.1102,-2.1102,-2.1102,-2.1102,-2.1102,-2.1102,-2.1102,-2.1102,-2.1102,-2.1102,-2.1102,-2.1102,-2.1664,-2.2647,-2.4725,-2.697,-2.8486,-2.9216,-3.0147,-3.0898,-3.0898,-3.0898,-3.0898,-3.0889,-2.9835,-2.9285,-2.8979,-2.7572,-2.6175,-2.5024,-2.3876,-2.2404,-2.1292,-2.1166,-2.1102,-2.1102,-2.1102,-2.1116,-2.1136,-2.1156,-2.139,-2.1737,-2.2111,-2.2364,-2.2329,-2.2657,-2.2826,-2.1102,-2.1102,-2.1102,-2.1102,-2.1102,-2.1102,-2.1102,-2.1102,-2.1102,-2.1102,-2.1102,-2.1102,-2.1102,-2.1102,-2.1102,-2.1102,-2.1102,-2.1102,-2.1102,-2.1102,-2.1102,-2.1102,-2.1102,-2.1102,-2.1102,-2.1102,-2.1102,-2.1102,-2.1102,-2.1102,-2.1102,-2.1102,-2.1102,-2.1102,-2.1102,-2.1102,-2.1102,-2.1102,-2.1102,-2.1102,-2.1102,-2.1102,-2.1102,-2.1102,-2.1102,-2.1102,-2.1102,-2.1102,-2.1102,-2.1102,-2.1102,-2.1102,-2.1102,-2.1102,-2.1102,-2.1102,-2.1102,-2.1102,-2.1102,-2.1102,-2.1102,-2.1102,-2.1102,-2.1102,-2.1102,-2.1102,-2.1102,-2.1102,-2.1102,-2.1102,-2.1102,-2.1102,-2.1102,-2.1102,-2.1102,-2.1102,-2.1102,-2.1102,-2.1102,-2.1292,-2.2223,-2.3993,-2.7263,-2.8289,-2.897,-2.9962,-3.0762,-3.0889,-3.0898,-3.0898,-3.0898,-3.083,-3.0635,-3.0704,-3.0343,-2.764,-2.5505,-2.4409,-2.3076,-2.1398,-2.1222,-2.1102,-2.1102,-2.1102,-2.1102,-2.1122,-2.1162,-2.1396,-2.177,-2.2084,-2.2291,-2.2458,-2.2617,-2.2799,-2.2866,-2.1102,-2.1102,-2.1102,-2.1102,-2.1102,-2.1102,-2.1102,-2.1102,-2.1102,-2.1102,-2.1102,-2.1102,-2.1102,-2.1102,-2.1102,-2.1102,-2.1102,-2.1102,-2.1102,-2.1102,-2.1102,-2.1102,-2.1102,-2.1102,-2.1102,-2.1102,-2.1102,-2.1102,-2.1102,-2.1102,-2.1102,-2.1102,-2.1102,-2.1102,-2.1102,-2.1102,-2.1102,-2.1102,-2.1102,-2.1102,-2.1102,-2.1102,-2.1102,-2.1102,-2.1102,-2.1102,-2.1102,-2.1102,-2.1102,-2.1102,-2.1102,-2.1102,-2.1102,-2.1102,-2.1102,-2.1102,-2.1102,-2.1102,-2.1102,-2.1102,-2.1102,-2.1102,-2.1102,-2.1102,-2.1102,-2.1102,-2.1102,-2.1102,-2.1102,-2.1102,-2.1102,-2.1102,-2.1102,-2.1102,-2.1102,-2.1102,-2.1102,-2.1102,-2.1102,-2.1166,-2.1727,-2.2889,-2.4962,-2.6236,-2.7503,-2.9039,-3.0216,-3.0772,-3.0898,-3.0898,-3.083,-3.0518,-2.9226,-2.8554,-3.083,-2.776,-2.5138,-2.3985,-2.2688,-2.1617,-2.1164,-2.1076,-2.1096,-2.1116,-2.1109,-2.1276,-2.139,-2.1784,-2.2144,-2.2305,-2.2519,-2.2665,-2.2908,-2.2859,-2.2866,-2.1102,-2.1102,-2.1102,-2.1102,-2.1102,-2.1102,-2.1102,-2.1102,-2.1102,-2.1102,-2.1102,-2.1102,-2.1102,-2.1102,-2.1102,-2.1102,-2.1102,-2.1102,-2.1102,-2.1102,-2.1102,-2.1102,-2.1102,-2.1102,-2.1102,-2.1102,-2.1102,-2.1102,-2.1102,-2.1102,-2.1102,-2.1102,-2.1102,-2.1102,-2.1102,-2.1102,-2.1102,-2.1102,-2.1102,-2.1102,-2.1102,-2.1102,-2.1102,-2.1102,-2.1102,-2.1102,-2.1102,-2.1102,-2.1102,-2.1102,-2.1102,-2.1102,-2.1102,-2.1102,-2.1102,-2.1102,-2.1102,-2.1102,-2.1102,-2.1102,-2.1102,-2.1102,-2.1102,-2.1102,-2.1102,-2.1102,-2.1102,-2.1102,-2.1102,-2.1102,-2.1102,-2.1102,-2.1102,-2.1102,-2.1102,-2.1102,-2.1102,-2.1102,-2.1102,-2.1102,-2.1166,-2.1908,-2.3325,-2.454,-2.5871,-2.7452,-2.9039,-3.002,-3.0089,-3.0089,-3.0079,-2.9962,-2.8426,-2.7871,-2.8614,-2.678,-2.568,-2.4648,-2.3318,-2.2158,-2.1464,-2.1371,-2.1299,-2.1249,-2.1313,-2.1521,-2.1764,-2.2151,-2.2378,-2.2525,-2.2652,-2.2792,-2.2859,-2.2859,-2.2866,-2.1102,-2.1102,-2.1102,-2.1102,-2.1102,-2.1102,-2.1102,-2.1102,-2.1102,-2.1102,-2.1102,-2.1102,-2.1102,-2.1102,-2.1102,-2.1102,-2.1102,-2.1102,-2.1102,-2.1102,-2.1102,-2.1102,-2.1102,-2.1102,-2.1102,-2.1102,-2.1102,-2.1102,-2.1102,-2.1102,-2.1102,-2.1102,-2.1102,-2.1102,-2.1102,-2.1102,-2.1102,-2.1102,-2.1102,-2.1102,-2.1102,-2.1102,-2.1102,-2.1102,-2.1102,-2.1102,-2.1102,-2.1102,-2.1102,-2.1102,-2.1102,-2.1102,-2.1102,-2.1102,-2.1102,-2.1102,-2.1102,-2.1102,-2.1102,-2.1102,-2.1102,-2.1102,-2.1102,-2.1102,-2.1102,-2.1102,-2.1102,-2.1102,-2.1102,-2.1102,-2.1102,-2.1102,-2.1102,-2.1102,-2.1102,-2.1102,-2.1102,-2.1102,-2.1102,-2.1102,-2.1102,-2.179,-2.3076,-2.3814,-2.4663,-2.6409,-2.7751,-2.8733,-2.8792,-2.8852,-2.8545,-2.8486,-2.7692,-2.703,-2.653,-2.5976,-2.5984,-2.5619,-2.424,-2.2977,-2.2459,-2.2286,-2.2342,-2.2307,-2.2333,-2.2498,-2.2749,-2.3054,-2.2626,-2.2699,-2.2812,-2.2866,-2.2866,-2.2866,-2.2866,-2.1102,-2.1102,-2.1102,-2.1102,-2.1102,-2.1102,-2.1102,-2.1102,-2.1102,-2.1102,-2.1102,-2.1102,-2.1102,-2.1102,-2.1102,-2.1102,-2.1102,-2.1102,-2.1102,-2.1102,-2.1102,-2.1102,-2.1102,-2.1102,-2.1102,-2.1102,-2.1102,-2.1102,-2.1102,-2.1102,-2.1102,-2.1102,-2.1102,-2.1102,-2.1102,-2.1102,-2.1102,-2.1102,-2.1102,-2.1102,-2.1102,-2.1102,-2.1102,-2.1102,-2.1102,-2.1102,-2.1102,-2.1102,-2.1102,-2.1102,-2.1102,-2.1102,-2.1102,-2.1102,-2.1102,-2.1102,-2.1102,-2.1102,-2.1102,-2.1102,-2.1102,-2.1102,-2.1102,-2.1102,-2.1102,-2.1102,-2.1102,-2.1102,-2.1102,-2.1102,-2.1102,-2.1102,-2.1102,-2.1102,-2.1102,-2.1102,-2.1102,-2.1102,-2.1102,-2.1102,-2.1102,-2.1846,-2.3084,-2.3566,-2.4602,-2.678,-2.7871,-2.8298,-2.8358,-2.8239,-2.8417,-2.8358,-2.7091,-2.6236,-2.647,-2.6106,-2.5558,-2.5444,-2.454,-2.4084,-2.3638,-2.2991,-2.3116,-2.3328,-2.3356,-2.337,-2.3636,-2.3489,-2.2984,-2.2792,-2.2846,-2.2866,-2.2866,-2.2866,-2.2866,-2.1102,-2.1102,-2.1102,-2.1102,-2.1102,-2.1102,-2.1102,-2.1102,-2.1102,-2.1102,-2.1102,-2.1102,-2.1102,-2.1102,-2.1102,-2.1102,-2.1102,-2.1102,-2.1102,-2.1102,-2.1102,-2.1102,-2.1102,-2.1102,-2.1102,-2.1102,-2.1102,-2.1102,-2.1102,-2.1102,-2.1102,-2.1102,-2.1102,-2.1102,-2.1102,-2.1102,-2.1102,-2.1102,-2.1102,-2.1102,-2.1102,-2.1102,-2.1102,-2.1102,-2.1102,-2.1102,-2.1102,-2.1102,-2.1102,-2.1102,-2.1102,-2.1102,-2.1102,-2.1102,-2.1102,-2.1102,-2.1102,-2.1102,-2.1102,-2.1102,-2.1102,-2.1102,-2.1102,-2.1102,-2.1102,-2.1102,-2.1102,-2.1102,-2.1102,-2.1102,-2.1102,-2.1102,-2.1102,-2.1102,-2.1102,-2.1102,-2.1102,-2.1102,-2.1102,-2.1102,-2.1102,-2.1664,-2.2341,-2.3442,-2.424,-2.6296,-2.7142,-2.7503,-2.7503,-2.7443,-2.7323,-2.7022,-2.6114,-2.5993,-2.6961,-2.6349,-2.5261,-2.4962,-2.4663,-2.4812,-2.4805,-2.3873,-2.3517,-2.4015,-2.4242,-2.3662,-2.3771,-2.3303,-2.2839,-2.2859,-2.3195,-2.2928,-2.2928,-2.2866,-2.2934,-2.1102,-2.1102,-2.1102,-2.1102,-2.1102,-2.1102,-2.1102,-2.1102,-2.1102,-2.1102,-2.1102,-2.1102,-2.1102,-2.1102,-2.1102,-2.1102,-2.1102,-2.1102,-2.1102,-2.1102,-2.1102,-2.1102,-2.1102,-2.1102,-2.1102,-2.1102,-2.1102,-2.1102,-2.1102,-2.1102,-2.1102,-2.1102,-2.1102,-2.1102,-2.1102,-2.1102,-2.1102,-2.1102,-2.1102,-2.1102,-2.1102,-2.1102,-2.1102,-2.1102,-2.1102,-2.1102,-2.1102,-2.1102,-2.1102,-2.1102,-2.1102,-2.1102,-2.1102,-2.1102,-2.1102,-2.1102,-2.1102,-2.1102,-2.1102,-2.1102,-2.1102,-2.1102,-2.1102,-2.1102,-2.1102,-2.1102,-2.1102,-2.1102,-2.1102,-2.1102,-2.1102,-2.1102,-2.1102,-2.1102,-2.1102,-2.1102,-2.1102,-2.1102,-2.1102,-2.1102,-2.1102,-2.1166,-2.1355,-2.2522,-2.3263,-2.4116,-2.5138,-2.5802,-2.6219,-2.6106,-2.5261,-2.5016,-2.5138,-2.5505,-2.6349,-2.5627,-2.484,-2.5993,-2.5154,-2.4487,-2.5202,-2.4493,-2.4546,-2.5045,-2.5145,-2.4458,-2.4302,-2.4342,-2.4196,-2.446,-2.4188,-2.3324,-2.314,-2.3358,-2.3643,-2.1102,-2.1102,-2.1102,-2.1102,-2.1102,-2.1102,-2.1102,-2.1102,-2.1102,-2.1102,-2.1102,-2.1102,-2.1102,-2.1102,-2.1102,-2.1102,-2.1102,-2.1102,-2.1102,-2.1102,-2.1102,-2.1102,-2.1102,-2.1102,-2.1102,-2.1102,-2.1102,-2.1102,-2.1102,-2.1102,-2.1102,-2.1102,-2.1102,-2.1102,-2.1102,-2.1102,-2.1102,-2.1102,-2.1102,-2.1109,-2.1116,-2.1122,-2.1102,-2.1102,-2.1122,-2.1129,-2.1109,-2.1102,-2.1102,-2.1102,-2.1102,-2.1102,-2.1166,-2.1102,-2.1166,-2.1348,-2.1166,-2.1166,-2.1166,-2.1116,-2.1109,-2.1102,-2.1156,-2.1102,-2.1102,-2.1109,-2.1109,-2.1109,-2.1102,-2.1122,-2.1116,-2.1129,-2.1129,-2.1102,-2.1162,-2.1142,-2.1109,-2.1102,-2.1102,-2.1102,-2.1102,-2.1102,-2.1229,-2.1664,-2.2466,-2.3387,-2.4178,-2.4717,-2.5322,-2.5261,-2.4655,-2.4962,-2.5138,-2.5261,-2.5261,-2.4663,-2.4962,-2.672,-2.5766,-2.3377,-2.425,-2.4669,-2.5636,-2.6834,-2.6623,-2.6079,-2.6639,-2.7039,-2.6781,-2.6054,-2.618,-2.583,-2.4789,-2.4539,-2.4893,-2.1102,-2.1102,-2.1102,-2.1102,-2.1102,-2.1102,-2.1102,-2.1102,-2.1102,-2.1102,-2.1102,-2.1102,-2.1102,-2.1102,-2.1102,-2.1102,-2.1102,-2.1102,-2.1102,-2.1102,-2.1102,-2.1102,-2.1102,-2.1102,-2.1102,-2.1102,-2.1102,-2.1102,-2.1102,-2.1102,-2.1102,-2.1102,-2.1102,-2.1102,-2.1102,-2.1102,-2.1102,-2.1102,-2.1109,-2.1156,-2.1276,-2.1296,-2.139,-2.1443,-2.1476,-2.1727,-2.2411,-2.2603,-2.2193,-2.1366,-2.1102,-2.1418,-2.2034,-2.1418,-2.172,-2.2812,-2.1957,-2.1601,-2.2668,-2.2139,-2.1672,-2.201,-2.1881,-2.147,-2.149,-2.1476,-2.1483,-2.1496,-2.1476,-2.1476,-2.1476,-2.1476,-2.1476,-2.1503,-2.1476,-2.137,-2.1156,-2.1102,-2.1102,-2.1102,-2.1102,-2.1102,-2.1102,-2.1657,-2.2529,-2.345,-2.4417,-2.4663,-2.484,-2.454,-2.4355,-2.4532,-2.4893,-2.5016,-2.504,-2.4625,-2.4525,-2.6283,-2.6597,-2.4009,-2.4457,-2.5382,-2.652,-2.7675,-2.7751,-2.7891,-2.8253,-2.8369,-2.7842,-2.7577,-2.8172,-2.7974,-2.6843,-2.664,-2.6885,-2.1235,-2.1102,-2.1102,-2.1102,-2.1102,-2.1102,-2.1102,-2.1102,-2.1102,-2.1102,-2.1102,-2.1102,-2.1102,-2.1102,-2.1102,-2.1102,-2.1102,-2.1102,-2.1102,-2.1102,-2.1102,-2.1102,-2.1102,-2.1102,-2.1102,-2.1102,-2.1102,-2.1102,-2.1102,-2.1102,-2.1102,-2.1102,-2.1102,-2.1102,-2.1102,-2.1102,-2.1122,-2.1182,-2.1203,-2.1356,-2.1666,-2.1985,-2.2318,-2.2542,-2.3025,-2.3602,-2.4513,-2.4706,-2.4006,-2.1914,-2.1753,-2.2616,-2.3528,-2.2279,-2.2957,-2.4696,-2.3573,-2.344,-2.5129,-2.3795,-2.2729,-2.3576,-2.2839,-2.2109,-2.2042,-2.1884,-2.1884,-2.1871,-2.1977,-2.1904,-2.1904,-2.1944,-2.1911,-2.1877,-2.1931,-2.171,-2.1356,-2.1176,-2.1149,-2.1109,-2.1102,-2.1102,-2.1475,-2.2278,-2.3263,-2.2529,-2.3504,-2.3807,-2.4108,-2.4355,-2.4054,-2.3869,-2.4232,-2.4717,-2.4748,-2.4649,-2.4828,-2.5533,-2.6354,-2.5565,-2.6024,-2.6815,-2.752,-2.8182,-2.8315,-2.8538,-2.8892,-2.8821,-2.8755,-2.9352,-3.0133,-2.9613,-2.8861,-2.9361,-2.9683,-2.2278,-2.1102,-2.1102,-2.1102,-2.1102,-2.1102,-2.1102,-2.1102,-2.1102,-2.1102,-2.1102,-2.1102,-2.1166,-2.1166,-2.1229,-2.1102,-2.1229,-2.1229,-2.1102,-2.1102,-2.1102,-2.1102,-2.1166,-2.1355,-2.1166,-2.1102,-2.1102,-2.1102,-2.1102,-2.1102,-2.1102,-2.1166,-2.1166,-2.1109,-2.1186,-2.1212,-2.1236,-2.1474,-2.1521,-2.1862,-2.247,-2.3422,-2.3969,-2.4209,-2.5293,-2.6224,-2.6582,-2.6701,-2.6438,-2.608,-2.5905,-2.5707,-2.5018,-2.528,-2.5644,-2.551,-2.5913,-2.6189,-2.6734,-2.6388,-2.5523,-2.4762,-2.4287,-2.345,-2.2116,-2.2083,-2.2011,-2.1991,-2.1984,-2.2044,-2.2058,-2.2004,-2.2044,-2.2064,-2.2044,-2.1977,-2.1797,-2.1597,-2.1383,-2.1196,-2.1129,-2.1102,-2.1109,-2.1348,-2.1783,-2.1727,-2.2223,-2.2709,-2.338,-2.4116,-2.4232,-2.4108,-2.4178,-2.4748,-2.5453,-2.5496,-2.5532,-2.5525,-2.5953,-2.7048,-2.7524,-2.8358,-2.9142,-2.915,-2.8875,-2.927,-2.9939,-3.0328,-3.0457,-3.1313,-3.1918,-3.1552,-3.135,-3.1977,-3.2302,-2.4232,-2.3435,-2.3365,-2.2944,-2.2341,-2.2278,-2.1853,-2.1166,-2.1102,-2.1102,-2.1292,-2.1853,-2.2278,-2.2285,-2.2278,-2.2278,-2.2278,-2.2278,-2.2278,-2.2514,-2.2999,-2.3427,-2.3365,-2.3186,-2.2812,-2.1468,-2.1102,-2.1102,-2.1102,-2.1229,-2.1544,-2.209,-2.1551,-2.1767,-2.211,-2.182,-2.2048,-2.2899,-2.3028,-2.3487,-2.471,-2.547,-2.6163,-2.6322,-2.7271,-2.7981,-2.8896,-2.8951,-2.9406,-2.9905,-3.0086,-2.9132,-2.725,-2.7217,-2.7407,-2.8289,-2.7217,-2.8414,-2.8932,-2.8326,-2.7338,-2.7202,-2.5991,-2.4716,-2.356,-2.2981,-2.2465,-2.2398,-2.2405,-2.2472,-2.2398,-2.2472,-2.2459,-2.2392,-2.2392,-2.2338,-2.2178,-2.1931,-2.1643,-2.1403,-2.1336,-2.1236,-2.1176,-2.1176,-2.1249,-2.1572,-2.2709,-2.3263,-2.369,-2.4417,-2.4955,-2.4955,-2.4655,-2.505,-2.6068,-2.6392,-2.6373,-2.6231,-2.6041,-2.7463,-2.8624,-2.9665,-3.0804,-3.0387,-2.9965,-3.078,-3.1442,-3.1762,-3.1899,-3.2428,-3.2848,-3.3243,-3.3315,-3.3068,-3.3597,-2.6219,-2.5976,-2.5976,-2.52,-2.4054,-2.3931,-2.3256,-2.209,-2.1846,-2.2271,-2.2083,-2.338,-2.3923,-2.3931,-2.3931,-2.3993,-2.3993,-2.3993,-2.3923,-2.4101,-2.4947,-2.5375,-2.5489,-2.5253,-2.4463,-2.2027,-2.2208,-2.2208,-2.2146,-2.1978,-2.3058,-2.3634,-2.2788,-2.3228,-2.394,-2.3391,-2.3529,-2.4883,-2.513,-2.5737,-2.7255,-2.7831,-2.8426,-2.9116,-2.9306,-2.9945,-3.0846,-3.1203,-3.1779,-3.3282,-3.3418,-3.2237,-3.0569,-2.9341,-2.8974,-3.175,-2.9645,-2.9995,-3.114,-3.0257,-2.932,-3.0239,-2.8063,-2.6393,-2.5725,-2.4831,-2.4029,-2.3392,-2.3175,-2.2779,-2.2859,-2.2854,-2.2799,-2.2819,-2.2839,-2.2739,-2.2525,-2.2251,-2.2024,-2.169,-2.161,-2.1543,-2.1396,-2.1323,-2.1363,-2.1662,-2.287,-2.3775,-2.4216,-2.4626,-2.5159,-2.5324,-2.4906,-2.4896,-2.581,-2.6988,-2.7025,-2.6898,-2.6495,-2.8002,-2.9409,-2.9487,-3.0232,-3.123,-3.1414,-3.1946,-3.21,-3.2027,-3.2355,-3.3155,-3.3384,-3.3379,-3.3603,-3.383,-3.4648,-2.7194,-2.5976,-2.5976,-2.5794,-2.5611,-2.5619,-2.5375,-2.5245,-2.4947,-2.5192,-2.513,-2.5489,-2.5619,-2.5619,-2.5611,-2.5619,-2.5444,-2.5505,-2.5619,-2.5619,-2.6219,-2.6409,-2.653,-2.6651,-2.5924,-2.5428,-2.5192,-2.513,-2.4885,-2.5261,-2.5191,-2.5824,-2.5585,-2.5949,-2.6396,-2.6446,-2.6216,-2.702,-2.7214,-2.7709,-2.8593,-2.966,-3.0782,-3.1845,-3.1909,-3.2228,-3.2619,-3.2892,-3.3092,-3.3355,-3.3418,-3.3131,-3.257,-3.2134,-3.18,-3.1455,-3.1781,-3.2131,-3.27,-3.2671,-3.166,-3.0956,-2.9877,-2.8935,-2.8023,-2.7238,-2.6046,-2.4791,-2.3659,-2.2866,-2.2866,-2.2866,-2.2866,-2.2866,-2.2859,-2.2839,-2.2766,-2.2659,-2.2452,-2.2064,-2.1964,-2.2112,-2.2189,-2.2495,-2.307,-2.3181,-2.3558,-2.4251,-2.4587,-2.4867,-2.5211,-2.5164,-2.5003,-2.5111,-2.5482,-2.6818,-2.7498,-2.7401,-2.7581,-2.8956,-2.9639,-2.8939,-2.9313,-3.1231,-3.1911,-3.1991,-3.2091,-3.2228,-3.2565,-3.3155,-3.3277,-3.3408,-3.365,-3.3972,-3.49,-2.9226,-2.8554,-2.8554,-2.7991,-2.7314,-2.7254,-2.6772,-2.6037,-2.5976,-2.5976,-2.6288,-2.6841,-2.7263,-2.7263,-2.7263,-2.6841,-2.6349,-2.6953,-2.7202,-2.7323,-2.8059,-2.8545,-2.8426,-2.8426,-2.8554,-2.8554,-2.8495,-2.7452,-2.6192,-2.6138,-2.6979,-2.7518,-2.7334,-2.7575,-2.8242,-2.7818,-2.8396,-2.891,-2.9327,-2.9793,-3.0707,-3.1771,-3.2629,-3.3092,-3.3418,-3.3418,-3.3418,-3.3418,-3.3355,-3.3355,-3.3418,-3.3418,-3.3418,-3.3282,-3.3019,-3.2419,-3.2883,-3.3418,-3.3418,-3.3355,-3.2883,-3.2228,-3.1433,-3.0513,-2.954,-2.8624,-2.7437,-2.5719,-2.3992,-2.2866,-2.2866,-2.2866,-2.2866,-2.2866,-2.2866,-2.2866,-2.2928,-2.2928,-2.2862,-2.2868,-2.3409,-2.3759,-2.3659,-2.4188,-2.4897,-2.4939,-2.4579,-2.4755,-2.5062,-2.5463,-2.5802,-2.6096,-2.6136,-2.6213,-2.6506,-2.745,-2.8418,-2.8325,-2.8778,-3.0178,-3.0228,-2.9654,-3.0628,-3.2382,-3.2611,-3.2374,-3.2619,-3.2956,-3.3092,-3.3204,-3.3515,-3.372,-3.3801,-3.4216,-3.5051,-3.0898,-3.0898,-3.0898,-3.0147,-2.903,-2.892,-2.8239,-2.7142,-2.7082,-2.7202,-2.7142,-2.8239,-2.8911,-2.8911,-2.8783,-2.823,-2.7134,-2.8477,-2.8852,-2.9098,-2.9962,-3.0762,-3.083,-3.0898,-3.0587,-3.0274,-3.0401,-2.9577,-2.8075,-2.7852,-2.8569,-2.9364,-2.8878,-2.9097,-3.0293,-2.9929,-3.0225,-3.0736,-3.1378,-3.2164,-3.3019,-3.3418,-3.3418,-3.3418,-3.3418,-3.3418,-3.3418,-3.3418,-3.3418,-3.3418,-3.3418,-3.3418,-3.3418,-3.3418,-3.3418,-3.3418,-3.3418,-3.3418,-3.3418,-3.3418,-3.3292,-3.3019,-3.2091,-3.1506,-3.0716,-2.9474,-2.7635,-2.6046,-2.406,-2.2928,-2.2866,-2.2866,-2.2866,-2.2866,-2.2928,-2.3065,-2.3529,-2.3795,-2.4263,-2.4542,-2.51,-2.4827,-2.4232,-2.3862,-2.4202,-2.5005,-2.4713,-2.5421,-2.5771,-2.6486,-2.6904,-2.7452,-2.7601,-2.7595,-2.7907,-2.8561,-2.9384,-2.9777,-3.0466,-3.1662,-3.124,-3.0536,-3.192,-3.3158,-3.3158,-3.3019,-3.3282,-3.3418,-3.3292,-3.3408,-3.3838,-3.4076,-3.4163,-3.457,-3.5275,-3.0898,-3.0898,-3.0898,-3.0762,-3.0587,-3.0518,-3.046,-3.0216,-3.003,-3.0333,-2.9903,-3.0392,-3.045,-3.045,-3.046,-3.0392,-3.0274,-3.0147,-3.0333,-3.0392,-3.0704,-3.0898,-3.0898,-3.0898,-3.0898,-3.0918,-3.0928,-3.0996,-3.0376,-3.0468,-3.1178,-3.1798,-3.1865,-3.232,-3.2365,-3.2068,-3.2844,-3.3009,-3.3019,-3.3092,-3.3355,-3.3418,-3.3418,-3.3418,-3.3418,-3.3418,-3.3418,-3.3418,-3.3418,-3.3418,-3.3418,-3.3418,-3.3418,-3.3418,-3.3418,-3.3418,-3.3418,-3.3418,-3.3418,-3.3418,-3.3418,-3.3418,-3.3019,-3.3029,-3.2174,-3.0198,-2.8295,-2.7908,-2.5121,-2.3529,-2.3529,-2.3065,-2.2996,-2.2928,-2.3065,-2.372,-2.4317,-2.3788,-2.4324,-2.5315,-2.5635,-2.4809,-2.4004,-2.3567,-2.3273,-2.4218,-2.5096,-2.595,-2.684,-2.763,-2.8229,-2.8768,-2.8699,-2.8624,-2.8917,-2.9648,-3.0348,-3.0973,-3.1864,-3.2762,-3.2036,-3.1524,-3.2433,-3.3299,-3.3379,-3.3418,-3.3418,-3.3418,-3.3418,-3.3633,-3.3984,-3.4297,-3.46,-3.5068,-3.5596,-3.0898,-3.0898,-3.0898,-3.0898,-3.0898,-3.0898,-3.0898,-3.0898,-3.0898,-3.0898,-3.0898,-3.0898,-3.0898,-3.0898,-3.0898,-3.0889,-3.0898,-3.0898,-3.0898,-3.0898,-3.0898,-3.0898,-3.0898,-3.0898,-3.0898,-3.0947,-3.1152,-3.1514,-3.1748,-3.1934,-3.2236,-3.2734,-3.3027,-3.3068,-3.3408,-3.3418,-3.3345,-3.3345,-3.3355,-3.3355,-3.3418,-3.3418,-3.3418,-3.3418,-3.3418,-3.3418,-3.3418,-3.3418,-3.3418,-3.3418,-3.3418,-3.3418,-3.3418,-3.3418,-3.3418,-3.3418,-3.3418,-3.3418,-3.3418,-3.3418,-3.3418,-3.3418,-3.3418,-3.3292,-3.2892,-3.1258,-2.9613,-2.9605,-2.7429,-2.6002,-2.5487,-2.4926,-2.452,-2.4256,-2.3877,-2.3924,-2.4385,-2.3924,-2.3992,-2.5121,-2.6046,-2.5256,-2.4791,-2.5063,-2.5425,-2.6756,-2.7238,-2.7531,-2.8502,-2.9468,-2.9913,-3.0268,-2.9972,-2.9535,-2.986,-3.0366,-3.1277,-3.1937,-3.2437,-3.3005,-3.2622,-3.2613,-3.3158,-3.3359,-3.3403,-3.3418,-3.3418,-3.3437,-3.3467,-3.3779,-3.4141,-3.4427,-3.4797,-3.5391,-3.583,-3.0898,-3.0898,-3.0898,-3.0898,-3.0898,-3.0898,-3.0898,-3.0898,-3.0898,-3.0898,-3.0898,-3.0898,-3.0898,-3.0898,-3.0898,-3.0898,-3.0898,-3.0898,-3.0898,-3.0898,-3.0898,-3.0898,-3.0898,-3.0898,-3.0898,-3.0908,-3.1279,-3.168,-3.2041,-3.2295,-3.2549,-3.2939,-3.3232,-3.3379,-3.3408,-3.3418,-3.3418,-3.3418,-3.3418,-3.3418,-3.3418,-3.3418,-3.3418,-3.3418,-3.3418,-3.3418,-3.3418,-3.3418,-3.3418,-3.3418,-3.3418,-3.3418,-3.3418,-3.3418,-3.3418,-3.3418,-3.3418,-3.3418,-3.3418,-3.3418,-3.3418,-3.3418,-3.3418,-3.3355,-3.3184,-3.1882,-3.0933,-3.0784,-2.9274,-2.8477,-2.8228,-2.7067,-2.661,-2.5982,-2.5382,-2.4948,-2.4655,-2.4986,-2.5577,-2.6898,-2.7362,-2.6247,-2.6113,-2.6781,-2.7735,-2.9244,-2.9596,-2.9344,-3.0051,-3.0946,-3.0955,-3.1038,-3.0707,-3.0245,-3.0375,-3.0973,-3.1963,-3.2676,-3.3171,-3.3264,-3.2906,-3.294,-3.3247,-3.3389,-3.3364,-3.3418,-3.3418,-3.3467,-3.3545,-3.3896,-3.4277,-3.4595,-3.4976,-3.5626,-3.5908,-3.0898,-3.0898,-3.0898,-3.0898,-3.0898,-3.0898,-3.0898,-3.0898,-3.0898,-3.0898,-3.0898,-3.0898,-3.0898,-3.0898,-3.0898,-3.0898,-3.0898,-3.0898,-3.0898,-3.0898,-3.0898,-3.0898,-3.0898,-3.0898,-3.0908,-3.0967,-3.1387,-3.1816,-3.2187,-3.2617,-3.2959,-3.334,-3.3379,-3.3398,-3.3418,-3.3418,-3.3418,-3.3418,-3.3418,-3.3418,-3.3418,-3.3418,-3.3418,-3.3418,-3.3418,-3.3418,-3.3418,-3.3418,-3.3418,-3.3418,-3.3418,-3.3418,-3.3418,-3.3418,-3.3418,-3.3418,-3.3418,-3.3418,-3.3418,-3.3418,-3.3428,-3.3418,-3.3457,-3.3545,-3.3525,-3.2292,-3.1518,-3.1563,-3.0716,-3.0011,-2.9573,-2.8898,-2.8625,-2.8191,-2.7675,-2.739,-2.7134,-2.7113,-2.7834,-2.9009,-2.8615,-2.7238,-2.6781,-2.7312,-2.8163,-2.9531,-3.0578,-3.0393,-3.1111,-3.1817,-3.1561,-3.1433,-3.1102,-3.0836,-3.0707,-3.1368,-3.2292,-3.2819,-3.3281,-3.3418,-3.3248,-3.3413,-3.3399,-3.336,-3.3418,-3.3418,-3.3418,-3.3447,-3.3594,-3.3994,-3.4404,-3.4722,-3.5169,-3.5704,-3.5967,-3.0898,-3.0898,-3.0898,-3.0898,-3.0898,-3.0898,-3.0898,-3.0898,-3.0898,-3.0898,-3.0898,-3.0898,-3.0898,-3.0898,-3.0898,-3.0898,-3.0898,-3.0898,-3.0898,-3.0898,-3.0898,-3.0898,-3.0898,-3.0898,-3.0898,-3.1055,-3.1543,-3.1953,-3.2207,-3.2812,-3.3164,-3.3389,-3.3418,-3.3418,-3.3418,-3.3418,-3.3418,-3.3418,-3.3418,-3.3418,-3.3418,-3.3418,-3.3418,-3.3418,-3.3418,-3.3418,-3.3418,-3.3418,-3.3418,-3.3418,-3.3418,-3.3418,-3.3418,-3.3418,-3.3418,-3.3428,-3.3437,-3.3457,-3.3447,-3.3467,-3.3525,-3.3799,-3.3838,-3.3906,-3.4072,-3.3629,-3.35,-3.3228,-3.2849,-3.2338,-3.2544,-3.1635,-3.0726,-3.0429,-3.0131,-2.9765,-2.9396,-2.917,-2.878,-2.9361,-2.8821,-2.7768,-2.7643,-2.7643,-2.8624,-2.967,-3.0651,-3.157,-3.2164,-3.2428,-3.2036,-3.1899,-3.1634,-3.1166,-3.0973,-3.1698,-3.2565,-3.2956,-3.3418,-3.3418,-3.3418,-3.3355,-3.3384,-3.3355,-3.3418,-3.3418,-3.3418,-3.3418,-3.3691,-3.4209,-3.46,-3.4961,-3.5343,-3.5792,-3.5957,-3.1279,-3.1269,-3.1279,-3.1123,-3.0908,-3.0898,-3.0898,-3.0898,-3.0898,-3.0898,-3.0898,-3.0898,-3.0898,-3.0898,-3.0898,-3.0898,-3.0898,-3.0898,-3.0898,-3.0898,-3.0898,-3.0898,-3.0898,-3.0918,-3.0986,-3.1211,-3.1738,-3.2187,-3.2432,-3.3086,-3.333,-3.3408,-3.3418,-3.3418,-3.3418,-3.3418,-3.3418,-3.3418,-3.3418,-3.3418,-3.3418,-3.3418,-3.3418,-3.3418,-3.3418,-3.3418,-3.3418,-3.3418,-3.3418,-3.3418,-3.3418,-3.3418,-3.3418,-3.3418,-3.3418,-3.3457,-3.3535,-3.3594,-3.3613,-3.3652,-3.3818,-3.418,-3.4267,-3.4414,-3.4629,-3.4814,-3.4638,-3.4724,-3.4877,-3.5078,-3.4983,-3.3803,-3.3088,-3.2853,-3.2114,-3.1727,-3.1041,-3.0627,-2.9835,-2.9509,-2.8772,-2.8238,-2.9344,-2.9474,-2.9735,-3.0716,-3.1579,-3.2365,-3.2756,-3.2819,-3.2365,-3.2237,-3.2174,-3.1643,-3.124,-3.2164,-3.2956,-3.3092,-3.3418,-3.3418,-3.3418,-3.3418,-3.3418,-3.3418,-3.3418,-3.3418,-3.3418,-3.3428,-3.3906,-3.4512,-3.4932,-3.5381,-3.5566,-3.5976,-3.5986,-3.21,-3.2148,-3.21,-3.1641,-3.1006,-3.0908,-3.0918,-3.0947,-3.0908,-3.0898,-3.0898,-3.0898,-3.0898,-3.0898,-3.0898,-3.0898,-3.0898,-3.0898,-3.0898,-3.0898,-3.0898,-3.0898,-3.0918,-3.0957,-3.1152,-3.1533,-3.2012,-3.2451,-3.2725,-3.3184,-3.3379,-3.3418,-3.3418,-3.3418,-3.3418,-3.3418,-3.3418,-3.3418,-3.3418,-3.3418,-3.3418,-3.3418,-3.3418,-3.3418,-3.3418,-3.3418,-3.3418,-3.3418,-3.3418,-3.3418,-3.3418,-3.3418,-3.3418,-3.3418,-3.3437,-3.3506,-3.3828,-3.4004,-3.4072,-3.4082,-3.4326,-3.4619,-3.4707,-3.4795,-3.4853,-3.5088,-3.5371,-3.5381,-3.5596,-3.583,-3.5723,-3.549,-3.5104,-3.47,-3.3956,-3.3416,-3.272,-3.2059,-3.1318,-3.0692,-2.9478,-2.8895,-3.0457,-3.1442,-3.1368,-3.1899,-3.2629,-3.3092,-3.3355,-3.3155,-3.2692,-3.2629,-3.2629,-3.2365,-3.21,-3.2756,-3.3282,-3.3355,-3.3418,-3.3418,-3.3418,-3.3418,-3.3418,-3.3418,-3.3418,-3.3418,-3.3428,-3.3437,-3.4014,-3.4609,-3.542,-3.5869,-3.5996,-3.6025,-3.6025,-3.2229,-3.2229,-3.2229,-3.2002,-3.1709,-3.1426,-3.1309,-3.126,-3.1035,-3.0898,-3.0898,-3.0898,-3.0898,-3.0898,-3.0898,-3.0898,-3.0898,-3.0898,-3.0898,-3.0898,-3.0918,-3.0898,-3.0957,-3.1191,-3.1406,-3.1689,-3.2158,-3.2607,-3.2783,-3.3213,-3.3389,-3.3418,-3.3418,-3.3418,-3.3418,-3.3418,-3.3418,-3.3418,-3.3418,-3.3418,-3.3418,-3.3418,-3.3418,-3.3418,-3.3418,-3.3418,-3.3418,-3.3418,-3.3418,-3.3418,-3.3418,-3.3418,-3.3428,-3.3428,-3.3574,-3.375,-3.4082,-3.4385,-3.4726,-3.4961,-3.5,-3.5117,-3.5156,-3.5264,-3.5537,-3.5684,-3.5791,-3.5791,-3.5898,-3.6025,-3.5869,-3.5831,-3.5646,-3.5578,-3.5114,-3.4872,-3.4373,-3.3666,-3.3015,-3.2421,-3.1514,-2.9757,-3.0142,-3.1634,-3.1954,-3.2091,-3.2692,-3.3155,-3.3355,-3.3418,-3.3155,-3.3155,-3.3092,-3.2956,-3.3029,-3.3219,-3.3355,-3.3355,-3.3418,-3.3418,-3.3418,-3.3418,-3.3418,-3.3418,-3.3418,-3.3418,-3.3476,-3.3623,-3.4082,-3.4707,-3.5469,-3.5967,-3.6025,-3.6025,-3.6025,-3.2607,-3.2598,-3.2598,-3.2607,-3.251,-3.1992,-3.1738,-3.1699,-3.1445,-3.126,-3.1152,-3.1113,-3.1016,-3.0937,-3.0898,-3.0898,-3.0898,-3.0898,-3.0898,-3.0918,-3.1074,-3.1123,-3.1269,-3.1523,-3.1865,-3.207,-3.2422,-3.2842,-3.3047,-3.3281,-3.3398,-3.3418,-3.3418,-3.3418,-3.3418,-3.3418,-3.3418,-3.3418,-3.3418,-3.3418,-3.3418,-3.3418,-3.3418,-3.3418,-3.3418,-3.3418,-3.3418,-3.3418,-3.3418,-3.3418,-3.3418,-3.3418,-3.3447,-3.3603,-3.3769,-3.4004,-3.4463,-3.4863,-3.5391,-3.5576,-3.5576,-3.5605,-3.5605,-3.5732,-3.5967,-3.5957,-3.5976,-3.5996,-3.6025,-3.6025,-3.6025,-3.6025,-3.5996,-3.5918,-3.584,-3.5586,-3.5264,-3.4547,-3.4093,-3.3614,-3.2975,-3.1265,-3.0216,-3.112,-3.2218,-3.2428,-3.2692,-3.3082,-3.3418,-3.3418,-3.3418,-3.3355,-3.3355,-3.3219,-3.3155,-3.3282,-3.3355,-3.3418,-3.3418,-3.3418,-3.3418,-3.3418,-3.3418,-3.3418,-3.3418,-3.3447,-3.3574,-3.3818,-3.4277,-3.4805,-3.5449,-3.582,-3.5986,-3.6025,-3.6025,-3.3408,-3.3418,-3.3418,-3.3379,-3.3252,-3.2559,-3.2207,-3.2158,-3.2199,-3.1894,-3.1543,-3.1504,-3.1338,-3.1035,-3.0967,-3.1006,-3.1084,-3.1064,-3.1074,-3.1143,-3.1416,-3.1494,-3.168,-3.1982,-3.2275,-3.2598,-3.2881,-3.3096,-3.3369,-3.3398,-3.3408,-3.3418,-3.3418,-3.3418,-3.3418,-3.3418,-3.3418,-3.3418,-3.3418,-3.3418,-3.3418,-3.3418,-3.3418,-3.3418,-3.3418,-3.3418,-3.3418,-3.3418,-3.3418,-3.3418,-3.3418,-3.3437,-3.3574,-3.3848,-3.3994,-3.4346,-3.4971,-3.5488,-3.583,-3.5918,-3.5937,-3.5898,-3.5947,-3.6006,-3.6016,-3.6025,-3.6025,-3.6025,-3.6025,-3.6025,-3.6025,-3.6025,-3.6025,-3.6006,-3.6006,-3.5781,-3.5537,-3.5137,-3.4775,-3.4323,-3.3924,-3.2972,-3.2441,-3.2883,-3.2619,-3.2819,-3.3019,-3.3155,-3.3418,-3.3418,-3.3418,-3.3418,-3.3355,-3.3355,-3.3418,-3.3418,-3.3418,-3.3418,-3.3418,-3.3418,-3.3418,-3.3418,-3.3418,-3.3418,-3.3418,-3.3457,-3.3525,-3.3916,-3.4463,-3.5,-3.54,-3.5762,-3.5957,-3.6016,-3.6025,-3.3418,-3.3418,-3.3418,-3.3418,-3.3379,-3.3154,-3.2734,-3.2217,-3.2229,-3.208,-3.1963,-3.165,-3.1641,-3.1768,-3.1494,-3.1553,-3.168,-3.1807,-3.1816,-3.1865,-3.1875,-3.1943,-3.2129,-3.2402,-3.2666,-3.2861,-3.3076,-3.3262,-3.3369,-3.3418,-3.3418,-3.3418,-3.3418,-3.3418,-3.3418,-3.3418,-3.3418,-3.3418,-3.3418,-3.3418,-3.3418,-3.3418,-3.3418,-3.3418,-3.3418,-3.3418,-3.3418,-3.3418,-3.3418,-3.3418,-3.3418,-3.3506,-3.3906,-3.4043,-3.4219,-3.5,-3.5517,-3.5908,-3.6006,-3.6025,-3.6025,-3.6025,-3.6025,-3.6025,-3.6025,-3.6025,-3.6025,-3.6025,-3.6025,-3.6025,-3.6025,-3.6025,-3.6025,-3.6025,-3.6025,-3.5928,-3.5693,-3.5498,-3.5127,-3.459,-3.4199,-3.376,-3.3486,-3.3345,-3.3082,-3.3282,-3.3418,-3.3418,-3.3418,-3.3418,-3.3418,-3.3418,-3.3418,-3.3418,-3.3418,-3.3418,-3.3418,-3.3418,-3.3418,-3.3418,-3.3418,-3.3418,-3.3418,-3.3418,-3.3418,-3.3418,-3.3428,-3.3926,-3.4531,-3.4795,-3.5176,-3.5586,-3.5908,-3.5976,-3.6025,-3.3418,-3.3418,-3.3418,-3.3418,-3.3418,-3.3418,-3.3096,-3.2695,-3.2666,-3.2588,-3.2402,-3.2158,-3.208,-3.208,-3.1904,-3.1904,-3.21,-3.208,-3.209,-3.2119,-3.2353,-3.2402,-3.2559,-3.2803,-3.3018,-3.3154,-3.3242,-3.3379,-3.3418,-3.3418,-3.3418,-3.3418,-3.3418,-3.3418,-3.3418,-3.3418,-3.3418,-3.3418,-3.3418,-3.3418,-3.3418,-3.3418,-3.3418,-3.3418,-3.3418,-3.3418,-3.3418,-3.3418,-3.3418,-3.3418,-3.3418,-3.3623,-3.4092,-3.4375,-3.4844,-3.5537,-3.5791,-3.5976,-3.6025,-3.6025,-3.6025,-3.6025,-3.6025,-3.6025,-3.6025,-3.6025,-3.6025,-3.6025,-3.6025,-3.6025,-3.6025,-3.6025,-3.6025,-3.6025,-3.6025,-3.6025,-3.5898,-3.5771,-3.5303,-3.4736,-3.4238,-3.376,-3.3525,-3.3467,-3.3418,-3.3418,-3.3418,-3.3418,-3.3418,-3.3418,-3.3418,-3.3418,-3.3418,-3.3418,-3.3418,-3.3418,-3.3418,-3.3418,-3.3418,-3.3418,-3.3418,-3.3418,-3.3418,-3.3418,-3.3418,-3.3418,-3.3418,-3.3994,-3.4541,-3.4795,-3.5137,-3.5664,-3.5967,-3.5996,-3.6025,-3.3418,-3.3418,-3.3418,-3.3418,-3.3418,-3.3418,-3.3398,-3.3418,-3.334,-3.3193,-3.2871,-3.2783,-3.2568,-3.2441,-3.2295,-3.2295,-3.2441,-3.2471,-3.249,-3.2295,-3.2685,-3.2842,-3.2949,-3.3193,-3.3271,-3.3369,-3.3418,-3.3418,-3.3418,-3.3418,-3.3418,-3.3418,-3.3418,-3.3418,-3.3418,-3.3418,-3.3418,-3.3418,-3.3418,-3.3418,-3.3418,-3.3418,-3.3418,-3.3418,-3.3418,-3.3418,-3.3418,-3.3418,-3.3418,-3.3418,-3.3535,-3.373,-3.4365,-3.4951,-3.5557,-3.5801,-3.5976,-3.6006,-3.6025,-3.6025,-3.6025,-3.6025,-3.6025,-3.6025,-3.6025,-3.6025,-3.6025,-3.6025,-3.6025,-3.6025,-3.6025,-3.6025,-3.6025,-3.6025,-3.6025,-3.6025,-3.5976,-3.5791,-3.542,-3.4863,-3.4355,-3.3906,-3.3672,-3.3603,-3.3418,-3.3418,-3.3418,-3.3418,-3.3418,-3.3418,-3.3418,-3.3418,-3.3418,-3.3418,-3.3418,-3.3418,-3.3418,-3.3418,-3.3418,-3.3418,-3.3418,-3.3418,-3.3418,-3.3418,-3.3418,-3.3418,-3.3525,-3.4101,-3.4551,-3.4795,-3.5205,-3.5801,-3.6025,-3.6025,-3.6025,-3.3418,-3.3418,-3.3418,-3.3418,-3.3418,-3.3418,-3.3418,-3.3418,-3.3418,-3.3359,-3.3232,-3.2978,-3.293,-3.2998,-3.2744,-3.2754,-3.2998,-3.2939,-3.3086,-3.3047,-3.3193,-3.3174,-3.3232,-3.333,-3.3418,-3.3418,-3.3418,-3.3418,-3.3418,-3.3418,-3.3418,-3.3418,-3.3418,-3.3418,-3.3418,-3.3418,-3.3418,-3.3418,-3.3418,-3.3418,-3.3418,-3.3418,-3.3418,-3.3418,-3.3418,-3.3418,-3.3418,-3.3418,-3.3418,-3.3437,-3.3769,-3.4297,-3.5049,-3.5576,-3.5869,-3.5996,-3.6025,-3.6025,-3.6025,-3.6025,-3.6025,-3.6025,-3.6025,-3.6025,-3.6025,-3.6025,-3.6025,-3.6025,-3.6025,-3.6025,-3.6025,-3.6025,-3.6025,-3.6025,-3.6025,-3.6025,-3.6025,-3.5771,-3.5488,-3.5019,-3.4502,-3.418,-3.3935,-3.3691,-3.3486,-3.3418,-3.3418,-3.3418,-3.3418,-3.3418,-3.3418,-3.3418,-3.3418,-3.3418,-3.3418,-3.3418,-3.3418,-3.3418,-3.3418,-3.3418,-3.3418,-3.3418,-3.3418,-3.3418,-3.3418,-3.3418,-3.3623,-3.4189,-3.458,-3.4795,-3.5293,-3.5898,-3.6025,-3.6025,-3.6025,-3.3418,-3.3418,-3.3418,-3.3418,-3.3418,-3.3418,-3.3418,-3.3418,-3.3418,-3.3418,-3.3398,-3.3203,-3.3213,-3.3418,-3.3164,-3.3125,-3.3398,-3.3398,-3.334,-3.3379,-3.3418,-3.3389,-3.3418,-3.3418,-3.3418,-3.3418,-3.3418,-3.3418,-3.3418,-3.3418,-3.3418,-3.3418,-3.3418,-3.3418,-3.3418,-3.3418,-3.3418,-3.3418,-3.3418,-3.3418,-3.3418,-3.3418,-3.3418,-3.3418,-3.3418,-3.3418,-3.3418,-3.3437,-3.3545,-3.3857,-3.4326,-3.4746,-3.5332,-3.5742,-3.5967,-3.6025,-3.6025,-3.6025,-3.6025,-3.6025,-3.6025,-3.6025,-3.6025,-3.6025,-3.6025,-3.6025,-3.6025,-3.6025,-3.6025,-3.6025,-3.6025,-3.6025,-3.6025,-3.6025,-3.6025,-3.6025,-3.6016,-3.5898,-3.5625,-3.5273,-3.4853,-3.457,-3.4287,-3.3935,-3.3711,-3.3418,-3.3418,-3.3418,-3.3418,-3.3418,-3.3418,-3.3418,-3.3418,-3.3418,-3.3418,-3.3418,-3.3418,-3.3418,-3.3418,-3.3418,-3.3418,-3.3418,-3.3418,-3.3418,-3.3418,-3.3418,-3.3721,-3.4228,-3.4531,-3.4726,-3.5332,-3.6016,-3.6025,-3.6025,-3.6025,-3.3902,-3.3965,-3.3597,-3.3534,-3.366,-3.3481,-3.3418,-3.3418,-3.3418,-3.3418,-3.3418,-3.3398,-3.3418,-3.3418,-3.3418,-3.3418,-3.3418,-3.3418,-3.3418,-3.3418,-3.3418,-3.3418,-3.3418,-3.3418,-3.3418,-3.3418,-3.3418,-3.3418,-3.3418,-3.3418,-3.3418,-3.3418,-3.3418,-3.3418,-3.3418,-3.3418,-3.3418,-3.3418,-3.3418,-3.3418,-3.3418,-3.3418,-3.3418,-3.3418,-3.3418,-3.3418,-3.3418,-3.3476,-3.3662,-3.418,-3.4766,-3.5234,-3.5537,-3.5859,-3.5947,-3.6025,-3.6025,-3.6025,-3.6025,-3.6025,-3.6025,-3.6025,-3.6025,-3.6025,-3.6025,-3.6025,-3.6025,-3.6025,-3.6025,-3.6025,-3.6025,-3.6025,-3.6025,-3.6025,-3.6025,-3.6025,-3.6016,-3.5996,-3.5762,-3.5488,-3.5234,-3.4941,-3.457,-3.4219,-3.3877,-3.3564,-3.3418,-3.3418,-3.3418,-3.3418,-3.3418,-3.3418,-3.3418,-3.3418,-3.3418,-3.3418,-3.3418,-3.3418,-3.3418,-3.3418,-3.3418,-3.3418,-3.3418,-3.3418,-3.3418,-3.3418,-3.3701,-3.417,-3.4434,-3.4697,-3.54,-3.6016,-3.6025,-3.6025,-3.6025,-3.6112,-3.7084,-3.457,-3.4143,-3.4964,-3.3955,-3.3418,-3.3418,-3.3418,-3.3418,-3.3418,-3.3418,-3.3418,-3.3418,-3.3418,-3.3418,-3.3418,-3.3418,-3.3418,-3.3418,-3.3418,-3.3418,-3.3418,-3.3418,-3.3418,-3.3418,-3.3418,-3.3418,-3.3418,-3.3418,-3.3418,-3.3418,-3.3418,-3.3418,-3.3418,-3.3418,-3.3418,-3.3418,-3.3418,-3.3418,-3.3418,-3.3418,-3.3418,-3.3418,-3.3418,-3.3418,-3.3418,-3.3418,-3.3682,-3.4189,-3.4902,-3.5478,-3.5771,-3.5937,-3.6006,-3.6025,-3.6025,-3.6025,-3.6025,-3.6025,-3.6025,-3.6025,-3.6025,-3.6025,-3.6025,-3.6025,-3.6025,-3.6025,-3.6025,-3.6025,-3.6025,-3.6025,-3.6025,-3.6025,-3.6025,-3.6025,-3.6016,-3.6016,-3.5918,-3.5732,-3.5547,-3.5176,-3.4766,-3.4375,-3.3955,-3.3682,-3.3447,-3.3437,-3.3418,-3.3418,-3.3418,-3.3418,-3.3418,-3.3418,-3.3418,-3.3418,-3.3418,-3.3418,-3.3418,-3.3418,-3.3418,-3.3418,-3.3418,-3.3418,-3.3418,-3.3418,-3.3769,-3.4111,-3.4453,-3.4795,-3.5498,-3.5996,-3.6016,-3.6025,-3.6025]},{"header":{"parameterUnit":"m.s-1","parameterCategory":1,"la1":31.0,"la2":29.5877,"lo1":-88.7671,"lo2":-86.6584,"dy":0.0162,"dx":0.0185,"nx":115,"ny":88,"refTime":"2023-06-11T12:00:00:Z","depth":0,"parameterNumber":3,"parameterNumberName":"V-component_of_WINDS"},"data":[0.0,0.0,0.0,0.0,0.0,0.0,0.0,0.0,0.0,0.0,0.0,0.0,0.0,0.0,0.0,0.0,0.0,0.0,0.0,0.0,0.0,0.0,0.0,0.0,0.0,0.0,0.0,0.0,0.0,0.0,0.0,0.0,0.0,0.0,0.0,0.0,0.0,0.0,0.0,0.0,0.0,0.0,0.0,0.0,0.0,0.0,0.0,0.0,0.0,0.0,0.0,0.0,0.0,0.0,0.0,0.0,0.0,0.0,0.0,0.0,0.0,0.0,0.0,0.0,0.0,0.0,0.0,0.0,0.0,0.0,0.0,0.0,0.0,0.0,0.0,0.0,0.0,0.0,0.0,0.0,0.0,0.0,0.0,0.0,0.0,0.0,0.0,0.0,0.0,0.0,0.0,0.0,0.0,0.0,0.0,0.0,0.0,0.0,0.0,0.0,0.0,0.0,0.0,0.0,0.0,0.0,0.0,0.0,0.0,0.0,0.0,0.0,0.0,0.0,0.0,0.0,0.0,0.0,0.0,0.0,0.0,0.0,0.0,0.0,0.0,0.0,0.0,0.0,0.0,0.0,0.0,0.0,0.0,0.0,0.0,0.0,0.0,0.0,0.0,0.0,0.0,0.0,0.0,0.0,0.0,0.0,0.0,0.0,0.0,0.0,0.0,0.0,0.0,0.0,0.0,0.0,0.0,0.0,0.0,0.0,0.0,0.0,0.0,0.0,0.0,0.0,0.0,0.0,0.0,0.0,0.0,0.0,0.0,0.0,0.0,0.0,0.0,0.0,0.0,0.0,0.0,0.0,0.0,0.0,0.0,0.0,0.0,0.0,0.0,0.0,0.0,0.0,0.0,0.0,0.0,0.0,0.0,0.0,0.0,0.0,0.0,0.0,0.0,0.0,0.0,0.0,0.0,0.0,0.0,0.0,0.0,0.0,0.0,0.0,0.0,0.0,0.0,0.0,0.0,0.0,0.0,0.0,0.0,0.0,0.0,0.0,0.0,0.0,0.0,0.0,0.0,0.0,0.0,0.0,0.0,0.0,0.0,0.0,0.0,0.0,0.0,0.0,0.0,0.0,0.0,0.0,0.0,0.0,0.0,0.0,0.0,0.0,0.0,0.0,0.0,0.0,0.0,0.0,0.0,0.0,0.0,0.0,0.0,0.0,0.0,0.0,0.0,0.0,0.0,0.0,0.0,0.0,0.0,0.0,0.0,0.0,0.0,0.0,0.0,0.0,0.0,0.0,0.0,0.0,0.0,0.0,0.0,0.0,0.0,0.0,0.0,0.0,0.0,0.0,0.0,0.0,0.0,0.0,0.0,0.0,0.0,0.0,0.0,0.0,0.0,0.0,0.0,0.0,0.0,0.0,0.0,0.0,0.0,0.0,0.0,0.0,0.0,0.0,0.0,0.0,0.0,0.0,0.0,0.0,0.0,0.0,0.0,0.0,0.0,0.0,0.0,0.0,0.0,0.0,0.0,0.0,0.0,0.0,0.0,0.0,0.0,0.0,0.0,0.0,0.0,0.0,0.0,0.0,0.0,0.0,0.0,0.0,0.0,0.0,0.0,0.0,0.0,0.0,0.0,0.0,0.0,0.0,0.0,0.0,0.0,0.0,0.0,0.0,0.0,0.0,0.0,0.0,0.0,0.0,0.0,0.0,0.0,0.0,0.0,0.0,0.0,0.0,0.0,0.0,0.0,0.0,0.0,0.0,0.0,0.0,0.0,0.0,0.0,0.0,0.0,0.0,0.0,0.0,0.0,0.0,0.0,0.0,0.0,0.0,0.0,0.0,0.0,0.0,0.0,0.0,0.0,0.0,0.0,0.0,0.0,0.0,0.0,0.0,0.0,0.0,0.0,0.0,0.0,0.0,0.0,0.0,0.0,0.0,0.0,0.0,0.0,0.0,0.0,0.0,0.0,0.0,0.0,0.0,0.0,0.0,0.0,0.0,0.0,0.0,0.0,0.0,0.0,0.0,0.0,0.0,0.0,0.0,0.0,0.0,0.0,0.0,0.0,0.0,0.0,0.0,0.0,0.0,0.0,0.0,0.0,0.0,0.0,0.0,0.0,0.0,0.0,0.0,0.0,0.0,0.0,0.0,0.0,0.0,0.0,0.0,0.0,0.0,0.0,0.0,0.0,0.0,0.0,0.0,0.0,0.0,0.0,0.0,0.0,0.0,0.0,0.0,0.0,0.0,0.0,0.0,0.0,0.0,0.0,0.0,0.0,0.0,0.0,0.0,0.0,0.0,0.0,0.0,0.0,0.0,0.0,0.0,0.0,0.0,0.0,0.0,0.0,0.0,0.0,0.0,0.0,0.0,0.0,0.0,0.0,0.0,0.0,0.0,0.0,0.0,0.0,0.0,0.0,0.0,0.0,0.0,0.0,0.0,0.0,0.0,0.0,0.0,0.0,0.0,0.0,0.0,0.0,0.0,0.0,0.0,0.0,0.0,0.0,0.0,0.0,0.0,0.0,0.0,0.0,0.0,0.0,0.0,0.0,0.0,0.0,0.0,0.0,0.0,0.0,0.0,0.0,0.0,0.0,0.0,0.0,0.0,0.0,0.0,0.0,0.0,0.0,0.0,0.0,0.0,0.0,0.0,0.0,0.0,0.0,0.0,0.0,0.0,0.0,0.0,0.0,0.0,0.0,0.0,0.0,0.0,0.0,0.0,0.0,0.0,0.0,0.0,0.0,0.0,0.0,0.0,0.0,0.0,0.0,0.0,0.0,0.0,0.0,0.0,0.0,0.0,0.0,0.0,0.0,0.0,0.0,0.0,0.0,0.0,0.0,0.0,0.0,0.0,0.0,0.0,0.0,0.0,0.0,0.0,0.0,0.0,0.0,0.0,0.0,0.0,0.0,0.0,0.0,0.0,0.0,0.0,0.0,0.0,0.0,0.0,0.0,0.0,0.0,0.0,0.0,0.0,0.0,0.0,0.0,0.0,0.0,0.0,0.0,0.0,0.0,0.0,0.0,0.0,0.0,0.0,0.0,0.0,0.0,0.0,0.0,0.0,0.0,0.0,0.0,0.0,0.0,0.0,0.0,0.0,0.0,0.0,0.0,0.0,0.0,0.0,0.0,0.0,0.0,0.0,0.0,0.0,0.0,0.0,0.0,0.0,0.0,0.0,0.0,0.0,0.0,0.0,0.0,0.0,0.0,0.0,0.0,0.0,0.0,0.0,0.0,0.0,0.0,0.0,0.0,0.0,0.0,0.0,0.0,0.0,0.0,0.0,0.0,0.0,0.0,0.0,0.0,0.0,0.0,0.0,0.0,0.0,0.0,0.0,0.0,0.0,0.0,0.0,0.0,0.0,0.0,0.0,0.0,0.0,0.0,0.0,0.0,0.0,0.0,0.0,0.0,0.0,0.0,0.0,0.0,0.0,0.0,0.0,0.0,0.0,0.0,0.0,0.0,0.0,0.0,0.0,0.0,0.0,0.0,0.0,0.0,0.0,0.0,0.0,0.0,0.0,0.0,0.0,0.0,0.0,0.0,0.0,0.0,0.0,0.0,0.0,0.0,0.0,0.0,0.0,0.0,0.0,0.0,0.0,0.0,0.0,0.0,0.0,0.0,0.0,0.0,0.0,0.0,0.0,0.0,0.0,0.0,0.0,0.0,0.0,0.0,0.0,0.0,0.0,0.0,0.0,0.0,0.0,0.0,0.0,0.0,0.0,0.0,0.0,0.0,0.0,0.0,0.0,0.0,0.0,0.0,0.0,0.0,0.0,0.0,0.0,0.0,0.0,0.0,0.0,0.0,0.0,0.0,0.0,0.0,0.0,0.0,0.0,0.0,0.0,0.0,0.0,0.0,0.0,0.0,0.0,0.0,0.0,0.0,0.0,0.0,0.0,0.0,0.0,0.0,0.0,0.0,0.0,0.0,0.0,0.0,0.0,0.0,0.0,0.0,0.0,0.0,0.0,0.0,0.0,0.0,0.0,0.0,0.0,0.0,0.0,0.0,0.0,0.0,0.0,0.0,0.0,0.0,0.0,0.0,0.0,0.0,0.0,0.0,0.0,0.0,0.0,0.0,0.0,0.0,0.0,0.0,0.0,0.0,0.0,0.0,0.0,0.0,0.0,0.0,0.0,0.0,0.0,0.0,0.0,0.0,0.0,0.0,0.0,0.0,0.0,0.0,0.0,0.0,0.0,0.0,0.0,0.0,0.0,0.0,0.0,0.0,0.0,0.0,0.0,0.0,0.0,0.0,0.0,0.0,0.0,0.0,0.0,0.0,0.0,-4.3479,0.0,0.0,0.0,-4.3479,0.0,0.0,0.0,0.0,0.0,0.0,0.0,0.0,0.0,0.0,0.0,0.0,0.0,0.0,0.0,0.0,0.0,0.0,0.0,0.0,0.0,0.0,0.0,0.0,0.0,0.0,0.0,0.0,0.0,0.0,0.0,0.0,0.0,0.0,0.0,0.0,0.0,0.0,0.0,0.0,0.0,0.0,0.0,0.0,0.0,0.0,0.0,0.0,0.0,0.0,0.0,0.0,0.0,0.0,0.0,0.0,0.0,0.0,0.0,0.0,0.0,0.0,0.0,0.0,0.0,0.0,0.0,0.0,0.0,0.0,0.0,0.0,0.0,0.0,0.0,0.0,0.0,0.0,0.0,0.0,0.0,0.0,0.0,0.0,0.0,0.0,0.0,0.0,0.0,0.0,0.0,0.0,0.0,0.0,0.0,0.0,0.0,0.0,0.0,0.0,0.0,0.0,0.0,0.0,0.0,0.0,0.0,0.0,0.0,0.0,-4.3479,-4.3479,-4.3479,-4.3479,-4.3497,0.0,0.0,0.0,0.0,0.0,0.0,0.0,0.0,0.0,0.0,0.0,0.0,0.0,0.0,0.0,0.0,0.0,0.0,0.0,0.0,0.0,0.0,0.0,0.0,0.0,0.0,0.0,0.0,0.0,0.0,0.0,0.0,0.0,0.0,0.0,0.0,0.0,0.0,0.0,0.0,0.0,0.0,0.0,0.0,0.0,0.0,0.0,0.0,0.0,0.0,0.0,0.0,0.0,0.0,0.0,0.0,0.0,0.0,0.0,0.0,0.0,0.0,0.0,0.0,0.0,0.0,0.0,0.0,0.0,0.0,0.0,0.0,0.0,0.0,0.0,0.0,0.0,0.0,0.0,0.0,0.0,0.0,0.0,0.0,0.0,0.0,0.0,0.0,0.0,0.0,0.0,0.0,0.0,0.0,0.0,0.0,0.0,0.0,0.0,0.0,0.0,0.0,0.0,0.0,0.0,0.0,0.0,0.0,0.0,0.0,0.0,0.0,-4.3479,-4.3588,-4.3791,0.0,0.0,0.0,0.0,0.0,0.0,0.0,0.0,0.0,0.0,0.0,0.0,0.0,0.0,0.0,0.0,0.0,0.0,0.0,0.0,0.0,0.0,0.0,0.0,0.0,0.0,0.0,0.0,0.0,0.0,0.0,0.0,0.0,0.0,0.0,0.0,0.0,0.0,0.0,0.0,0.0,0.0,0.0,0.0,0.0,0.0,0.0,0.0,0.0,0.0,0.0,0.0,0.0,0.0,0.0,0.0,0.0,0.0,0.0,0.0,0.0,0.0,0.0,0.0,0.0,0.0,0.0,0.0,0.0,0.0,0.0,0.0,0.0,0.0,0.0,0.0,0.0,0.0,0.0,0.0,0.0,0.0,0.0,0.0,0.0,0.0,0.0,0.0,0.0,0.0,0.0,0.0,0.0,0.0,0.0,0.0,0.0,0.0,0.0,0.0,0.0,0.0,0.0,0.0,0.0,0.0,0.0,0.0,0.0,0.0,-4.3479,-4.3479,-4.3479,0.0,-4.458,0.0,0.0,0.0,0.0,0.0,0.0,0.0,0.0,0.0,0.0,0.0,0.0,0.0,0.0,0.0,0.0,0.0,0.0,0.0,0.0,0.0,0.0,0.0,0.0,0.0,0.0,0.0,0.0,0.0,0.0,0.0,0.0,0.0,0.0,0.0,0.0,0.0,0.0,0.0,0.0,0.0,0.0,0.0,0.0,0.0,0.0,0.0,0.0,0.0,0.0,0.0,0.0,0.0,0.0,0.0,0.0,0.0,0.0,0.0,0.0,0.0,0.0,0.0,0.0,0.0,0.0,0.0,0.0,0.0,0.0,0.0,0.0,0.0,0.0,0.0,0.0,0.0,0.0,0.0,0.0,0.0,0.0,0.0,0.0,0.0,0.0,0.0,0.0,0.0,0.0,0.0,0.0,0.0,0.0,0.0,0.0,0.0,0.0,0.0,0.0,0.0,0.0,0.0,0.0,0.0,0.0,0.0,0.0,0.0,0.0,-4.3479,-4.3479,-4.3956,-4.458,0.0,0.0,0.0,0.0,0.0,0.0,0.0,0.0,0.0,0.0,0.0,0.0,0.0,0.0,0.0,0.0,0.0,0.0,0.0,0.0,0.0,0.0,0.0,0.0,0.0,0.0,0.0,0.0,0.0,0.0,0.0,0.0,0.0,0.0,0.0,0.0,0.0,0.0,0.0,0.0,0.0,0.0,0.0,0.0,0.0,0.0,0.0,0.0,0.0,0.0,0.0,0.0,0.0,0.0,0.0,0.0,0.0,0.0,0.0,0.0,0.0,0.0,0.0,0.0,0.0,0.0,0.0,0.0,0.0,0.0,0.0,0.0,0.0,0.0,0.0,0.0,0.0,0.0,0.0,0.0,0.0,0.0,0.0,0.0,0.0,0.0,0.0,0.0,0.0,0.0,0.0,0.0,0.0,0.0,0.0,0.0,0.0,0.0,0.0,0.0,0.0,0.0,0.0,0.0,0.0,0.0,0.0,0.0,0.0,0.0,-4.3479,-4.3606,-4.3846,-4.4837,-4.5645,-4.6214,0.0,0.0,0.0,0.0,0.0,0.0,0.0,0.0,0.0,0.0,0.0,0.0,0.0,0.0,0.0,0.0,0.0,0.0,0.0,0.0,0.0,0.0,0.0,0.0,0.0,0.0,0.0,0.0,0.0,0.0,0.0,0.0,0.0,0.0,0.0,0.0,0.0,0.0,0.0,0.0,0.0,0.0,0.0,0.0,0.0,0.0,0.0,0.0,0.0,0.0,0.0,0.0,0.0,0.0,0.0,0.0,0.0,0.0,0.0,0.0,0.0,0.0,0.0,0.0,0.0,0.0,0.0,0.0,0.0,0.0,0.0,0.0,0.0,0.0,0.0,0.0,0.0,0.0,0.0,0.0,0.0,0.0,0.0,0.0,0.0,0.0,0.0,0.0,0.0,0.0,0.0,0.0,0.0,0.0,0.0,0.0,0.0,0.0,0.0,0.0,0.0,0.0,0.0,0.0,0.0,0.0,0.0,0.0,-4.3479,-4.3497,-4.3864,-4.4672,-4.6159,-4.7003,0.0,0.0,0.0,0.0,0.0,0.0,0.0,0.0,0.0,0.0,0.0,0.0,0.0,0.0,0.0,0.0,0.0,0.0,0.0,0.0,0.0,0.0,0.0,0.0,0.0,0.0,0.0,0.0,0.0,0.0,0.0,0.0,0.0,0.0,0.0,0.0,0.0,0.0,0.0,0.0,0.0,0.0,0.0,0.0,0.0,0.0,0.0,0.0,0.0,0.0,0.0,0.0,0.0,0.0,0.0,0.0,0.0,0.0,0.0,0.0,0.0,0.0,0.0,0.0,0.0,0.0,0.0,0.0,0.0,0.0,0.0,0.0,0.0,0.0,0.0,0.0,0.0,0.0,0.0,0.0,0.0,0.0,0.0,0.0,0.0,0.0,0.0,0.0,0.0,0.0,0.0,0.0,0.0,0.0,0.0,0.0,0.0,0.0,0.0,0.0,0.0,0.0,0.0,0.0,0.0,0.0,0.0,0.0,0.0,-4.3497,-4.4011,-4.4911,-4.6177,-4.6801,-4.7351,0.0,0.0,0.0,0.0,0.0,0.0,0.0,0.0,0.0,0.0,0.0,0.0,0.0,0.0,0.0,0.0,0.0,0.0,0.0,0.0,0.0,0.0,0.0,0.0,0.0,0.0,0.0,0.0,0.0,0.0,0.0,0.0,0.0,0.0,0.0,0.0,0.0,0.0,0.0,0.0,0.0,0.0,0.0,0.0,0.0,0.0,0.0,0.0,0.0,0.0,0.0,0.0,0.0,0.0,0.0,0.0,0.0,0.0,0.0,0.0,0.0,0.0,0.0,0.0,0.0,0.0,0.0,0.0,0.0,0.0,0.0,0.0,0.0,0.0,0.0,0.0,0.0,0.0,0.0,0.0,0.0,0.0,0.0,0.0,0.0,0.0,0.0,0.0,0.0,0.0,0.0,0.0,0.0,0.0,0.0,0.0,0.0,0.0,0.0,0.0,0.0,0.0,0.0,0.0,0.0,0.0,0.0,0.0,0.0,-4.3901,0.0,-4.5993,-4.7058,-4.7351,-4.7755,0.0,0.0,0.0,0.0,0.0,0.0,0.0,0.0,0.0,0.0,0.0,0.0,0.0,0.0,0.0,0.0,0.0,0.0,0.0,0.0,0.0,0.0,0.0,0.0,0.0,0.0,0.0,0.0,0.0,0.0,0.0,0.0,0.0,0.0,0.0,0.0,0.0,0.0,0.0,0.0,0.0,0.0,0.0,0.0,0.0,0.0,0.0,0.0,0.0,0.0,0.0,0.0,0.0,0.0,0.0,0.0,0.0,0.0,0.0,0.0,0.0,0.0,0.0,0.0,0.0,0.0,0.0,0.0,0.0,0.0,0.0,0.0,0.0,0.0,0.0,0.0,0.0,0.0,0.0,0.0,0.0,0.0,0.0,0.0,0.0,0.0,0.0,0.0,0.0,0.0,0.0,0.0,0.0,0.0,0.0,0.0,0.0,0.0,0.0,0.0,0.0,0.0,0.0,0.0,0.0,0.0,0.0,0.0,-4.3956,-4.4728,-4.625,-4.7058,-4.7131,-4.7865,-4.8306,0.0,0.0,0.0,0.0,0.0,0.0,0.0,0.0,0.0,0.0,0.0,0.0,0.0,0.0,0.0,0.0,0.0,0.0,0.0,0.0,0.0,0.0,0.0,0.0,0.0,0.0,0.0,0.0,0.0,0.0,0.0,0.0,0.0,0.0,0.0,0.0,0.0,0.0,0.0,0.0,0.0,0.0,0.0,0.0,0.0,0.0,0.0,0.0,0.0,0.0,0.0,0.0,0.0,0.0,0.0,0.0,0.0,0.0,0.0,0.0,0.0,0.0,0.0,0.0,0.0,0.0,0.0,0.0,0.0,0.0,0.0,0.0,0.0,0.0,0.0,0.0,0.0,0.0,0.0,0.0,0.0,0.0,0.0,0.0,0.0,0.0,0.0,0.0,0.0,0.0,0.0,0.0,0.0,0.0,0.0,0.0,0.0,0.0,0.0,0.0,0.0,0.0,0.0,0.0,0.0,0.0,0.0,0.0,0.0,-4.636,-4.6837,-4.7369,-4.7921,-4.8158,-4.8324,0.0,0.0,0.0,0.0,0.0,0.0,0.0,0.0,0.0,0.0,0.0,0.0,0.0,0.0,0.0,0.0,0.0,0.0,0.0,0.0,0.0,0.0,0.0,0.0,0.0,0.0,0.0,0.0,0.0,0.0,0.0,0.0,0.0,0.0,0.0,0.0,0.0,0.0,0.0,0.0,0.0,0.0,0.0,0.0,0.0,0.0,0.0,0.0,0.0,0.0,0.0,0.0,0.0,0.0,0.0,0.0,0.0,0.0,0.0,0.0,0.0,0.0,0.0,0.0,0.0,0.0,0.0,0.0,0.0,0.0,0.0,0.0,0.0,0.0,0.0,0.0,0.0,0.0,0.0,0.0,0.0,0.0,0.0,0.0,0.0,0.0,0.0,0.0,0.0,0.0,0.0,0.0,0.0,0.0,0.0,0.0,0.0,0.0,0.0,0.0,0.0,0.0,0.0,0.0,0.0,0.0,0.0,0.0,0.0,-4.7535,-4.7553,-4.7773,-4.8306,-4.8324,-4.8324,-4.8324,0.0,0.0,0.0,0.0,0.0,0.0,0.0,0.0,0.0,0.0,0.0,0.0,0.0,0.0,0.0,0.0,0.0,0.0,0.0,0.0,0.0,0.0,0.0,0.0,0.0,0.0,0.0,0.0,0.0,0.0,0.0,0.0,0.0,0.0,0.0,0.0,0.0,0.0,0.0,0.0,0.0,0.0,0.0,0.0,0.0,0.0,0.0,0.0,0.0,0.0,0.0,0.0,0.0,0.0,0.0,0.0,0.0,0.0,0.0,0.0,0.0,0.0,0.0,0.0,0.0,0.0,0.0,0.0,0.0,0.0,0.0,0.0,0.0,0.0,0.0,0.0,0.0,0.0,0.0,0.0,0.0,0.0,0.0,0.0,0.0,0.0,0.0,0.0,0.0,0.0,0.0,0.0,0.0,0.0,0.0,0.0,0.0,0.0,0.0,0.0,0.0,0.0,0.0,0.0,0.0,0.0,0.0,0.0,-4.8324,-4.8324,-4.8306,-4.8306,-4.8324,-4.8324,0.0,0.0,0.0,0.0,0.0,0.0,0.0,0.0,0.0,0.0,0.0,0.0,0.0,0.0,0.0,0.0,0.0,0.0,0.0,0.0,0.0,0.0,0.0,0.0,0.0,0.0,0.0,0.0,0.0,0.0,0.0,0.0,0.0,0.0,0.0,0.0,0.0,0.0,0.0,0.0,0.0,0.0,0.0,0.0,0.0,0.0,0.0,0.0,0.0,0.0,0.0,0.0,0.0,0.0,0.0,0.0,0.0,0.0,0.0,0.0,0.0,0.0,0.0,0.0,0.0,0.0,0.0,0.0,0.0,0.0,0.0,0.0,0.0,0.0,0.0,0.0,0.0,0.0,0.0,0.0,0.0,0.0,0.0,0.0,0.0,0.0,0.0,0.0,0.0,0.0,0.0,0.0,0.0,0.0,0.0,0.0,0.0,0.0,0.0,0.0,0.0,0.0,0.0,0.0,0.0,0.0,0.0,0.0,0.0,-4.8324,-4.8324,-4.8324,-4.8324,-4.8324,-4.8324,0.0,0.0,0.0,0.0,0.0,0.0,0.0,0.0,0.0,0.0,0.0,0.0,0.0,0.0,0.0,0.0,0.0,0.0,0.0,0.0,0.0,0.0,0.0,0.0,0.0,0.0,0.0,0.0,0.0,0.0,0.0,0.0,0.0,0.0,0.0,0.0,0.0,0.0,0.0,0.0,0.0,0.0,0.0,0.0,0.0,0.0,0.0,0.0,0.0,0.0,0.0,0.0,0.0,0.0,0.0,0.0,0.0,0.0,0.0,0.0,0.0,0.0,0.0,0.0,0.0,0.0,0.0,0.0,0.0,0.0,0.0,0.0,0.0,0.0,0.0,0.0,0.0,0.0,0.0,0.0,0.0,0.0,0.0,0.0,0.0,0.0,0.0,0.0,0.0,0.0,0.0,0.0,0.0,0.0,0.0,0.0,0.0,0.0,0.0,0.0,0.0,0.0,0.0,0.0,0.0,0.0,0.0,0.0,-4.8324,-4.8324,-4.8324,-4.8324,-4.8324,-4.8324,-4.8324,0.0,0.0,0.0,0.0,0.0,0.0,0.0,0.0,0.0,0.0,0.0,0.0,0.0,0.0,0.0,0.0,0.0,0.0,0.0,0.0,0.0,0.0,0.0,0.0,0.0,0.0,0.0,0.0,0.0,0.0,0.0,0.0,0.0,0.0,0.0,0.0,0.0,0.0,0.0,0.0,0.0,0.0,0.0,0.0,0.0,0.0,0.0,0.0,0.0,0.0,0.0,0.0,0.0,0.0,0.0,0.0,0.0,0.0,0.0,0.0,0.0,0.0,0.0,0.0,0.0,0.0,0.0,0.0,0.0,0.0,0.0,0.0,0.0,0.0,0.0,0.0,0.0,0.0,0.0,0.0,0.0,0.0,0.0,0.0,0.0,0.0,0.0,0.0,0.0,0.0,0.0,0.0,0.0,0.0,0.0,0.0,0.0,0.0,0.0,0.0,0.0,0.0,0.0,0.0,0.0,0.0,0.0,0.0,-4.8324,-4.8324,-4.8324,-4.8324,-4.8324,-4.8324,-4.8324,0.0,0.0,0.0,0.0,0.0,0.0,0.0,0.0,0.0,0.0,0.0,0.0,0.0,0.0,0.0,0.0,0.0,0.0,0.0,0.0,0.0,0.0,0.0,0.0,0.0,0.0,0.0,0.0,0.0,0.0,0.0,0.0,0.0,0.0,0.0,0.0,0.0,0.0,0.0,0.0,0.0,0.0,0.0,0.0,0.0,0.0,0.0,0.0,0.0,0.0,0.0,0.0,0.0,0.0,0.0,0.0,0.0,0.0,0.0,0.0,0.0,0.0,0.0,0.0,0.0,0.0,0.0,0.0,0.0,0.0,0.0,0.0,0.0,0.0,0.0,0.0,0.0,0.0,0.0,0.0,0.0,0.0,0.0,0.0,0.0,0.0,0.0,0.0,0.0,0.0,0.0,0.0,0.0,0.0,0.0,0.0,0.0,0.0,0.0,0.0,0.0,0.0,0.0,0.0,0.0,0.0,0.0,0.0,-4.8324,-4.8324,-4.8324,-4.8324,-4.8324,-4.8324,-4.8324,0.0,0.0,0.0,0.0,0.0,0.0,0.0,0.0,0.0,0.0,0.0,0.0,0.0,0.0,0.0,0.0,0.0,0.0,0.0,0.0,0.0,0.0,0.0,0.0,0.0,0.0,0.0,0.0,0.0,0.0,0.0,0.0,0.0,0.0,0.0,0.0,0.0,0.0,0.0,0.0,0.0,0.0,0.0,0.0,0.0,0.0,0.0,0.0,-4.4598,0.0,0.0,0.0,0.0,0.0,0.0,0.0,0.0,0.0,0.0,0.0,0.0,0.0,0.0,0.0,0.0,0.0,0.0,0.0,0.0,0.0,0.0,0.0,0.0,0.0,0.0,0.0,0.0,0.0,0.0,0.0,0.0,0.0,0.0,0.0,0.0,0.0,0.0,0.0,0.0,0.0,0.0,0.0,0.0,0.0,0.0,0.0,0.0,0.0,0.0,0.0,0.0,0.0,0.0,0.0,0.0,0.0,0.0,0.0,-4.8324,-4.8324,-4.8324,-4.8324,-4.8324,-4.8691,-4.8912,0.0,0.0,0.0,0.0,0.0,0.0,0.0,0.0,0.0,0.0,0.0,0.0,0.0,0.0,0.0,0.0,0.0,0.0,0.0,0.0,0.0,0.0,0.0,0.0,0.0,0.0,0.0,0.0,0.0,0.0,0.0,0.0,0.0,0.0,0.0,0.0,0.0,0.0,0.0,0.0,0.0,0.0,0.0,0.0,0.0,0.0,0.0,0.0,0.0,0.0,0.0,0.0,0.0,0.0,0.0,0.0,0.0,0.0,0.0,0.0,0.0,0.0,0.0,0.0,0.0,0.0,0.0,0.0,0.0,0.0,0.0,0.0,0.0,0.0,0.0,0.0,0.0,0.0,0.0,0.0,0.0,0.0,0.0,0.0,0.0,0.0,0.0,0.0,0.0,0.0,0.0,0.0,0.0,0.0,0.0,0.0,0.0,0.0,0.0,0.0,0.0,0.0,0.0,0.0,0.0,0.0,0.0,-4.8324,-4.8324,-4.8324,-4.8434,-4.8508,-4.8508,-4.9334,-4.9831,-4.9959,0.0,0.0,0.0,0.0,0.0,0.0,0.0,0.0,0.0,0.0,0.0,0.0,0.0,0.0,0.0,0.0,0.0,0.0,0.0,0.0,0.0,0.0,0.0,0.0,0.0,0.0,0.0,0.0,0.0,0.0,0.0,0.0,0.0,0.0,0.0,0.0,0.0,0.0,-4.4598,-4.4598,0.0,0.0,0.0,0.0,0.0,0.0,0.0,0.0,-4.5788,0.0,0.0,0.0,0.0,0.0,0.0,0.0,0.0,0.0,0.0,0.0,0.0,0.0,0.0,0.0,0.0,0.0,0.0,0.0,0.0,0.0,0.0,0.0,0.0,0.0,0.0,0.0,0.0,0.0,0.0,0.0,0.0,0.0,0.0,0.0,0.0,0.0,0.0,0.0,0.0,0.0,0.0,0.0,0.0,0.0,0.0,0.0,0.0,0.0,0.0,0.0,0.0,0.0,0.0,0.0,0.0,-4.8324,-4.8324,-4.8324,-4.8324,-4.9003,-4.939,-4.9408,-5.0178,-5.0912,-5.1536,0.0,0.0,0.0,0.0,0.0,0.0,0.0,0.0,0.0,0.0,0.0,0.0,0.0,0.0,0.0,0.0,0.0,0.0,0.0,0.0,0.0,0.0,0.0,0.0,0.0,0.0,0.0,0.0,0.0,0.0,0.0,0.0,0.0,0.0,0.0,0.0,0.0,0.0,0.0,-4.4598,-4.4598,0.0,0.0,0.0,0.0,0.0,0.0,0.0,0.0,-4.6836,0.0,0.0,0.0,0.0,0.0,0.0,0.0,0.0,0.0,0.0,0.0,0.0,0.0,0.0,0.0,0.0,0.0,0.0,0.0,0.0,0.0,0.0,0.0,0.0,0.0,0.0,0.0,0.0,0.0,0.0,0.0,0.0,0.0,0.0,0.0,0.0,0.0,0.0,0.0,0.0,0.0,0.0,0.0,0.0,0.0,0.0,0.0,0.0,0.0,0.0,0.0,0.0,0.0,0.0,0.0,-4.8324,-4.8746,-4.8967,-4.8985,-4.9793,-5.0215,-5.0233,-5.1004,-5.1591,0.0,0.0,0.0,0.0,0.0,0.0,0.0,0.0,0.0,0.0,0.0,0.0,0.0,0.0,0.0,0.0,0.0,0.0,0.0,0.0,0.0,0.0,0.0,0.0,0.0,0.0,0.0,0.0,0.0,0.0,0.0,0.0,0.0,0.0,0.0,0.0,0.0,0.0,0.0,0.0,-4.4953,-4.5162,-4.5162,0.0,0.0,0.0,0.0,0.0,0.0,-4.7141,-4.7631,0.0,0.0,0.0,0.0,0.0,0.0,0.0,0.0,0.0,0.0,0.0,0.0,0.0,0.0,0.0,0.0,0.0,0.0,0.0,0.0,0.0,0.0,0.0,0.0,0.0,0.0,0.0,0.0,0.0,0.0,0.0,0.0,0.0,0.0,0.0,0.0,0.0,0.0,0.0,0.0,0.0,0.0,0.0,0.0,0.0,0.0,0.0,0.0,0.0,0.0,0.0,0.0,0.0,0.0,0.0,-4.8581,-4.9389,-4.9849,-4.9886,-5.0618,-5.1041,-5.1059,-5.183,-5.2234,0.0,0.0,0.0,0.0,0.0,0.0,0.0,0.0,0.0,0.0,0.0,0.0,0.0,0.0,0.0,0.0,0.0,0.0,0.0,0.0,0.0,0.0,0.0,0.0,0.0,0.0,0.0,0.0,0.0,0.0,0.0,0.0,0.0,0.0,0.0,0.0,0.0,0.0,0.0,0.0,0.0,-4.5923,-4.5923,-4.5923,0.0,0.0,0.0,0.0,-4.772,-4.8007,0.0,0.0,0.0,0.0,0.0,0.0,0.0,0.0,0.0,0.0,0.0,0.0,0.0,0.0,0.0,0.0,0.0,0.0,0.0,0.0,0.0,0.0,0.0,0.0,0.0,0.0,0.0,0.0,0.0,0.0,0.0,0.0,0.0,0.0,0.0,0.0,0.0,0.0,0.0,0.0,0.0,0.0,0.0,0.0,0.0,0.0,0.0,0.0,0.0,0.0,0.0,0.0,0.0,0.0,0.0,0.0,-4.95,-5.0251,-5.0674,-5.0692,-5.1444,-5.1848,-5.1885,-5.2656,-5.3078,0.0,0.0,0.0,0.0,0.0,0.0,0.0,0.0,0.0,0.0,0.0,0.0,0.0,0.0,0.0,0.0,0.0,0.0,0.0,0.0,0.0,0.0,0.0,0.0,0.0,0.0,0.0,0.0,0.0,0.0,0.0,0.0,0.0,0.0,0.0,0.0,0.0,0.0,0.0,0.0,0.0,-4.6667,-4.6667,-4.6667,-4.6701,0.0,0.0,-4.7686,-4.7872,-4.846,0.0,0.0,0.0,0.0,0.0,0.0,0.0,0.0,0.0,0.0,0.0,0.0,0.0,0.0,0.0,0.0,0.0,0.0,0.0,0.0,0.0,0.0,0.0,0.0,0.0,0.0,0.0,0.0,0.0,0.0,0.0,0.0,0.0,0.0,0.0,0.0,0.0,0.0,0.0,0.0,0.0,0.0,0.0,0.0,0.0,0.0,0.0,0.0,0.0,0.0,0.0,0.0,0.0,0.0,0.0,-5.0288,-5.0306,-5.1059,-5.1481,-5.1499,-5.2252,-5.2674,-5.2692,-5.3041,-5.3185,0.0,0.0,0.0,0.0,0.0,0.0,0.0,0.0,0.0,0.0,0.0,0.0,0.0,0.0,0.0,0.0,0.0,0.0,0.0,0.0,0.0,0.0,0.0,0.0,0.0,0.0,0.0,0.0,0.0,0.0,0.0,0.0,0.0,0.0,0.0,0.0,0.0,0.0,0.0,0.0,0.0,0.0,-4.7428,-4.7428,0.0,0.0,0.0,-4.8024,-4.8477,0.0,0.0,0.0,0.0,0.0,0.0,0.0,0.0,0.0,0.0,0.0,0.0,0.0,0.0,0.0,0.0,0.0,0.0,0.0,0.0,0.0,0.0,0.0,0.0,0.0,0.0,0.0,0.0,0.0,0.0,0.0,0.0,0.0,0.0,0.0,0.0,0.0,0.0,0.0,0.0,0.0,0.0,0.0,0.0,0.0,0.0,0.0,0.0,0.0,0.0,0.0,0.0,0.0,0.0,0.0,0.0,0.0,-5.1114,-5.1885,-5.2289,-5.2307,-5.2894,-5.3185,-5.3185,-5.3185,0.0,0.0,0.0,0.0,0.0,0.0,0.0,0.0,0.0,0.0,0.0,0.0,0.0,0.0,0.0,0.0,0.0,0.0,0.0,0.0,0.0,0.0,0.0,0.0,0.0,0.0,0.0,-5.2949,0.0,0.0,0.0,0.0,0.0,0.0,0.0,0.0,0.0,0.0,0.0,0.0,0.0,0.0,-4.8189,-4.8159,-4.8159,-4.8376,0.0,0.0,-4.8345,-4.8917,-4.9018,-4.9018,0.0,0.0,0.0,0.0,0.0,0.0,0.0,0.0,0.0,0.0,0.0,0.0,0.0,0.0,0.0,0.0,0.0,0.0,0.0,0.0,0.0,0.0,0.0,0.0,0.0,0.0,0.0,0.0,0.0,0.0,0.0,0.0,0.0,0.0,0.0,0.0,0.0,0.0,0.0,0.0,0.0,0.0,0.0,0.0,0.0,0.0,0.0,0.0,0.0,0.0,0.0,0.0,0.0,0.0,-5.1922,-5.194,-5.2711,-5.3093,-5.3093,-5.3148,-5.3185,-5.3185,-5.3185,-5.3185,0.0,0.0,0.0,0.0,0.0,0.0,0.0,0.0,0.0,0.0,0.0,0.0,0.0,0.0,0.0,0.0,0.0,0.0,0.0,0.0,0.0,0.0,0.0,0.0,0.0,0.0,0.0,0.0,0.0,0.0,0.0,0.0,0.0,0.0,0.0,0.0,0.0,0.0,0.0,0.0,0.0,-4.8934,-4.8951,-4.8934,-4.8951,0.0,-4.8968,-4.8951,-4.9001,-4.9018,-4.9018,-4.9018,0.0,0.0,0.0,0.0,0.0,0.0,0.0,0.0,0.0,0.0,0.0,0.0,0.0,0.0,0.0,0.0,0.0,0.0,0.0,0.0,0.0,0.0,0.0,0.0,0.0,0.0,0.0,0.0,0.0,0.0,0.0,0.0,0.0,0.0,0.0,0.0,0.0,0.0,0.0,0.0,0.0,0.0,0.0,0.0,0.0,0.0,0.0,0.0,0.0,0.0,0.0,0.0,0.0,-5.2747,-5.2747,-5.3038,-5.3185,-5.3185,-5.3185,-5.3185,-5.3185,-5.3185,-5.3185,0.0,0.0,0.0,0.0,0.0,0.0,0.0,0.0,0.0,0.0,0.0,0.0,0.0,0.0,0.0,0.0,0.0,0.0,0.0,0.0,0.0,0.0,0.0,0.0,0.0,0.0,0.0,0.0,-5.2791,-5.197,-5.0581,0.0,0.0,0.0,0.0,0.0,0.0,0.0,0.0,0.0,0.0,-4.9018,-4.9018,-4.9018,0.0,0.0,-4.9018,-4.9018,-4.9018,-4.9018,-4.9018,-4.9018,-4.9018,0.0,0.0,0.0,0.0,0.0,0.0,0.0,0.0,0.0,0.0,0.0,0.0,0.0,0.0,0.0,0.0,0.0,0.0,0.0,0.0,0.0,0.0,0.0,0.0,0.0,0.0,0.0,0.0,0.0,0.0,0.0,0.0,0.0,0.0,0.0,0.0,0.0,0.0,0.0,0.0,0.0,0.0,0.0,0.0,0.0,0.0,0.0,0.0,0.0,0.0,0.0,0.0,-5.3185,-5.3185,-5.3185,-5.3185,-5.3185,-5.3185,-5.3185,-5.3185,-5.3185,-5.3185,0.0,0.0,0.0,0.0,0.0,0.0,0.0,0.0,0.0,0.0,0.0,0.0,0.0,0.0,0.0,0.0,0.0,0.0,0.0,0.0,0.0,0.0,0.0,0.0,0.0,0.0,0.0,0.0,-5.2554,-5.1643,-5.0445,0.0,0.0,0.0,0.0,0.0,0.0,0.0,0.0,0.0,0.0,-4.9018,-4.9018,-4.9018,-4.9018,-4.9018,-4.9018,-4.9018,-4.9018,-4.9018,-4.9018,-4.9018,0.0,0.0,0.0,0.0,0.0,0.0,0.0,0.0,0.0,0.0,0.0,0.0,0.0,0.0,0.0,0.0,0.0,0.0,0.0,0.0,0.0,0.0,0.0,0.0,0.0,0.0,0.0,-5.3151,0.0,0.0,-5.3148,0.0,0.0,0.0,0.0,0.0,0.0,0.0,0.0,0.0,0.0,0.0,0.0,0.0,0.0,0.0,0.0,0.0,0.0,0.0,0.0,0.0,0.0,-5.3185,-5.3185,-5.3185,-5.3185,-5.3185,-5.3185,-5.3185,-5.3185,-5.3185,-5.3185,-5.3185,0.0,0.0,0.0,0.0,0.0,0.0,0.0,0.0,0.0,0.0,0.0,0.0,0.0,0.0,0.0,0.0,0.0,0.0,0.0,0.0,0.0,0.0,0.0,0.0,0.0,0.0,-5.3143,-5.2531,-5.1808,0.0,0.0,0.0,0.0,0.0,0.0,0.0,0.0,0.0,-4.9018,-4.9018,-4.9018,-4.9018,-4.9018,-4.9018,-4.9018,-4.9018,-4.9018,-4.9018,-4.9018,-4.9018,0.0,0.0,0.0,0.0,0.0,0.0,0.0,0.0,0.0,0.0,0.0,0.0,0.0,0.0,0.0,0.0,0.0,0.0,0.0,0.0,0.0,0.0,0.0,0.0,0.0,0.0,0.0,-5.3185,-5.3185,0.0,0.0,0.0,0.0,0.0,0.0,0.0,0.0,0.0,0.0,0.0,-5.3185,-5.3185,0.0,0.0,0.0,0.0,0.0,0.0,0.0,0.0,0.0,0.0,0.0,0.0,-5.3185,-5.3185,-5.3185,-5.3185,-5.3185,-5.3185,-5.3185,-5.3185,-5.3185,-5.3185,-5.3185,0.0,0.0,0.0,0.0,0.0,0.0,0.0,0.0,0.0,0.0,0.0,0.0,0.0,0.0,0.0,0.0,0.0,0.0,0.0,0.0,0.0,0.0,0.0,0.0,0.0,-5.2809,0.0,0.0,0.0,0.0,0.0,0.0,0.0,0.0,0.0,0.0,-4.9018,-4.9018,-4.9018,-4.9018,-4.9018,-4.9018,-4.9018,-4.9018,0.0,0.0,0.0,0.0,0.0,0.0,0.0,0.0,0.0,0.0,0.0,0.0,0.0,-5.3112,-5.3196,-5.345,-5.3518,-5.3518,-5.3518,0.0,0.0,0.0,0.0,0.0,0.0,0.0,0.0,0.0,0.0,0.0,0.0,0.0,0.0,-5.3185,-5.3185,-5.3185,0.0,0.0,0.0,0.0,0.0,0.0,0.0,0.0,-5.3185,-5.3185,-5.3185,-5.3185,-5.3185,-5.3185,-5.3185,-5.3185,0.0,0.0,0.0,0.0,0.0,0.0,0.0,0.0,-5.3185,-5.3185,-5.3185,-5.3185,-5.3185,-5.3185,-5.3185,-5.3185,-5.3185,-5.3185,-5.3185,-5.3185,-5.3185,0.0,0.0,0.0,0.0,0.0,0.0,0.0,0.0,0.0,0.0,0.0,0.0,0.0,0.0,0.0,0.0,0.0,0.0,0.0,0.0,0.0,0.0,0.0,-5.2831,0.0,0.0,0.0,0.0,0.0,0.0,0.0,0.0,0.0,-4.9032,-4.9018,-4.9018,-4.9018,-4.9018,-4.9018,-4.9018,0.0,0.0,0.0,0.0,0.0,0.0,0.0,-4.9543,-5.0016,-5.0524,-5.1266,-5.2531,-5.3365,-5.3866,-5.3879,0.0,0.0,-5.3601,-5.3717,-5.3881,-5.3881,-5.3646,-5.3656,-5.4176,-5.4256,-5.4418,0.0,0.0,0.0,0.0,-5.2177,0.0,0.0,0.0,-5.3185,-5.3185,0.0,-5.3185,0.0,0.0,0.0,0.0,-5.3185,-5.3185,0.0,0.0,-5.3185,-5.3185,-5.3185,-5.3185,-5.3185,-5.3185,-5.3185,-5.3185,-5.3185,-5.3185,-5.3185,0.0,0.0,0.0,0.0,0.0,-5.3185,-5.3185,-5.3185,-5.3185,-5.3185,-5.3185,-5.3185,-5.3185,-5.3185,-5.3185,-5.3185,-5.3185,-5.3203,-5.3261,-5.324,0.0,0.0,0.0,0.0,0.0,0.0,0.0,0.0,0.0,0.0,0.0,0.0,0.0,0.0,0.0,0.0,0.0,0.0,0.0,0.0,-5.3185,0.0,0.0,0.0,0.0,0.0,0.0,0.0,0.0,0.0,-4.9792,-4.9121,-4.9032,-4.9018,-4.9018,0.0,0.0,0.0,0.0,-4.9018,-4.9018,-4.9018,-4.9018,-4.9052,-4.9627,-5.0118,-5.0168,0.0,0.0,-5.3365,-5.4091,-5.4559,-5.4591,-5.5161,-5.525,-5.3882,-5.4186,-5.462,-5.4634,-5.5126,-5.5618,-5.5669,-5.5602,-5.5685,-5.209,0.0,0.0,0.0,0.0,-5.2335,-5.2725,-5.3185,-5.3185,-5.3185,-5.3185,-5.3185,0.0,0.0,0.0,0.0,0.0,0.0,-5.3185,-5.3185,-5.3185,-5.3185,-5.3185,-5.3185,-5.3185,-5.3185,-5.3185,-5.3185,-5.3185,-5.3185,-5.3185,-5.3185,0.0,0.0,0.0,0.0,-5.3185,-5.3185,-5.3185,-5.3185,-5.3185,-5.3185,-5.3185,-5.3185,-5.3185,-5.3185,-5.3185,-5.3185,-5.3482,-5.4032,-5.4051,0.0,0.0,0.0,0.0,0.0,0.0,0.0,0.0,0.0,0.0,0.0,0.0,0.0,0.0,0.0,0.0,0.0,0.0,0.0,-5.3185,-5.3185,-5.2999,0.0,0.0,0.0,0.0,0.0,0.0,0.0,0.0,0.0,-4.9809,-4.9286,-4.9018,0.0,0.0,-4.9018,-4.9018,-4.9018,-4.9018,-4.9018,-4.9018,0.0,-4.9712,-4.9949,-5.0439,-5.1505,-5.2503,-5.3247,-5.3467,-5.4121,-5.4617,-5.4622,-5.522,-5.5552,-5.522,-5.5203,-5.5379,-5.5408,-5.5581,-5.5698,-5.5725,-5.6141,-5.6565,-5.2937,-5.249,-5.2107,-5.2172,-5.2513,-5.2531,-5.2809,-5.3185,-5.3185,-5.3185,-5.3185,-5.3185,-5.3185,-5.3185,-5.3185,0.0,0.0,0.0,-5.3185,-5.3185,-5.3185,-5.3185,-5.3185,-5.3185,-5.3185,-5.3185,-5.3185,-5.3185,-5.3185,-5.3185,-5.3185,-5.3185,0.0,-5.3185,-5.3185,-5.3185,-5.3185,-5.3185,-5.3185,-5.3185,-5.3185,-5.3185,-5.3185,-5.3185,-5.3518,-5.3683,-5.3702,-5.3995,-5.4381,-5.484,-5.4858,-5.5097,0.0,0.0,0.0,0.0,0.0,0.0,0.0,0.0,0.0,0.0,0.0,-5.4161,-5.4161,0.0,0.0,0.0,-5.3408,-5.3185,-5.3185,-5.3185,0.0,0.0,0.0,0.0,0.0,0.0,0.0,-5.1138,-5.1086,-5.0823,-5.009,-4.9419,-4.9018,-4.9018,-4.9018,-4.9018,-4.9018,0.0,-4.9018,-4.9018,-4.9255,-4.9593,-5.0016,-5.0591,-5.1386,-5.2587,-5.3179,-5.3501,-5.3517,-5.4325,-5.499,-5.5155,-5.5897,-5.6632,-5.6588,-5.6632,-5.6509,-5.6241,-5.6447,-5.6606,-5.6615,-5.7004,-5.734,-5.3185,-5.3185,-5.3185,-5.3185,-5.3185,-5.3185,-5.3185,-5.3185,-5.3185,-5.3185,-5.3185,-5.3185,-5.3185,-5.3185,-5.3185,0.0,-5.3185,-5.3185,-5.3185,-5.3185,-5.3185,-5.3185,-5.3185,-5.3185,-5.3185,-5.3185,-5.3185,-5.3185,-5.3185,-5.3185,-5.3185,-5.3185,-5.3185,-5.3185,-5.3185,-5.3185,-5.3185,-5.3185,-5.3185,-5.3222,-5.3298,-5.3277,-5.3314,-5.3408,-5.4106,-5.4491,-5.4509,-5.5188,-5.5611,-5.5666,-5.5684,-5.5702,-5.5798,0.0,0.0,0.0,0.0,0.0,0.0,0.0,0.0,0.0,0.0,0.0,0.0,0.0,0.0,-5.4491,-5.3775,0.0,-5.3316,-5.324,0.0,0.0,0.0,-5.2183,-5.2183,-5.2183,-5.1946,-5.1361,0.0,0.0,-5.0185,-4.9551,-4.9107,-4.9001,-4.9018,-4.9018,-4.9018,-4.9069,-4.9086,-4.9137,-4.9729,-5.0202,-5.0422,-5.1488,-5.2619,-5.3414,-5.3601,-5.3668,-5.3817,-5.4852,-5.5699,-5.5812,-5.6987,-5.7932,-5.7978,-5.7886,-5.7797,-5.7091,-5.7498,-5.7955,-5.789,-5.7909,-5.7914,-5.3185,-5.3185,-5.3185,-5.3185,-5.3185,-5.3185,-5.3185,-5.3185,-5.3185,-5.3185,-5.3185,-5.3185,-5.3185,-5.3185,-5.3185,-5.3185,-5.3185,-5.3185,-5.3185,-5.3185,-5.3185,-5.3185,-5.3185,-5.3185,-5.3185,-5.3185,-5.3185,-5.3185,-5.3185,-5.3185,-5.3185,-5.3185,-5.3185,-5.3185,-5.3185,-5.3185,-5.3185,-5.3185,-5.3185,-5.35,-5.4087,-5.4124,-5.4399,-5.5005,-5.5229,-5.5317,-5.5317,-5.55,-5.5886,-5.6492,-5.651,-5.6785,-5.7391,-5.7428,0.0,0.0,0.0,0.0,0.0,0.0,0.0,0.0,0.0,-5.5614,-5.5614,0.0,-5.5317,0.0,-5.4583,-5.4106,-5.4106,-5.3573,0.0,0.0,-5.3042,-5.2937,-5.2937,-5.2937,-5.2893,-5.2702,-5.2702,-5.2237,-5.0999,-5.0707,-5.0202,-4.9199,-4.9018,-4.9018,-4.9018,-4.9492,-4.983,-4.9898,-5.0473,-5.1133,-5.1691,-5.257,-5.3446,-5.4215,-5.4347,-5.452,-5.5077,-5.5963,-5.6629,-5.6667,-5.7351,-5.7909,-5.7978,-5.7978,-5.7932,-5.7774,-5.7886,-5.7978,-5.7978,-5.7978,-5.7978,-5.3185,-5.3185,-5.3185,-5.3185,-5.3185,-5.3185,-5.3185,-5.3185,-5.3185,-5.3185,-5.3185,-5.3185,-5.3185,-5.3185,-5.3185,-5.3185,-5.3185,-5.3185,-5.3185,-5.3203,-5.3573,-5.3739,-5.3757,-5.4106,-5.4271,-5.4271,-5.4271,-5.4271,-5.4271,-5.4271,-5.4271,-5.4271,-5.4271,-5.4271,-5.4252,-5.3922,-5.3739,-5.3739,-5.4087,-5.4473,-5.4913,-5.4932,-5.5152,-5.5596,-5.5941,-5.6143,-5.6124,-5.6473,-5.6877,-5.7317,-5.7336,-5.7538,-5.796,-5.7978,-5.7978,0.0,0.0,0.0,0.0,0.0,0.0,0.0,0.0,0.0,0.0,0.0,-5.5959,-5.5633,-5.5207,-5.4913,-5.4932,-5.4528,-5.4271,-5.4271,-5.394,-5.3739,-5.3739,-5.3427,-5.3185,-5.3185,-5.2915,-5.2307,-5.1241,-5.1113,-5.0735,-4.9661,-4.9779,-4.9847,-4.9593,-4.9864,-5.0202,-5.0541,-5.1217,-5.1961,-5.2723,-5.3213,-5.3634,-5.4008,-5.4102,-5.4351,-5.5092,-5.583,-5.6477,-5.6858,-5.7485,-5.7978,-5.7978,-5.7978,-5.7978,-5.7978,-5.7978,-5.7978,-5.7978,-5.7978,-5.7978,-5.3185,-5.3185,-5.3314,-5.3332,-5.3371,-5.3463,-5.3369,-5.3185,-5.3185,-5.324,-5.335,-5.3332,-5.3405,-5.3518,-5.3497,-5.3518,-5.3518,-5.3497,-5.3518,-5.3555,-5.4216,-5.4546,-5.4564,-5.5262,-5.5614,-5.5614,-5.5614,-5.5614,-5.5614,-5.5614,-5.5614,-5.5614,-5.5614,-5.5614,-5.5596,-5.5005,-5.4656,-5.4583,-5.5244,-5.5651,-5.5739,-5.5739,-5.5794,-5.5923,-5.6583,-5.6969,-5.6987,-5.7629,-5.7978,-5.7978,-5.7978,-5.7978,-5.7978,-5.7978,-5.7978,0.0,-5.7978,0.0,0.0,0.0,0.0,0.0,0.0,0.0,0.0,-5.7373,-5.6675,-5.5941,-5.5835,-5.5739,-5.5739,-5.5688,-5.5614,-5.5596,-5.4968,-5.4546,-5.4528,-5.394,-5.3518,-5.3497,-5.2863,-5.2161,-5.158,-5.1371,-5.1072,-5.0442,-5.0727,-5.0913,-5.0541,-5.0456,-5.071,-5.1285,-5.1978,-5.2706,-5.3281,-5.3484,-5.3517,-5.3616,-5.3891,-5.4056,-5.4895,-5.5633,-5.6263,-5.6943,-5.7579,-5.796,-5.7978,-5.7978,-5.7978,-5.7978,-5.7978,-5.7978,-5.7978,-5.7978,-5.7978,-5.3185,-5.328,-5.3904,-5.4179,-5.4234,-5.4858,-5.4399,-5.3185,-5.3185,-5.3573,-5.4161,-5.4179,-5.4528,-5.5115,-5.5133,-5.5133,-5.5133,-5.5133,-5.5133,-5.5133,-5.528,-5.5372,-5.5372,-5.5541,-5.5614,-5.5614,-5.5614,-5.5614,-5.5614,-5.5614,-5.5614,-5.5614,-5.5614,-5.5614,-5.5629,0.0,0.0,0.0,-5.5519,-5.5904,-5.6547,-5.6565,-5.6895,-5.7519,-5.7685,0.0,-5.7776,-5.7923,-5.7978,-5.7978,-5.7978,0.0,0.0,0.0,0.0,0.0,0.0,0.0,0.0,0.0,0.0,0.0,-5.7978,-5.7978,-5.7978,-5.785,-5.7721,-5.7538,-5.6969,-5.6583,-5.6565,-5.5978,-5.5614,-5.5596,-5.5464,-5.5372,-5.5354,-5.5207,-5.5152,-5.5133,-5.4498,-5.3753,-5.3016,-5.2455,-5.1847,-5.1172,-5.1133,-5.1403,-5.1843,-5.1826,-5.1911,-5.2131,-5.2739,-5.3298,-5.3467,-5.3518,-5.3684,-5.4261,-5.4942,-5.5488,-5.6244,-5.6984,-5.7509,-5.7772,-5.7923,-5.7978,-5.7978,-5.7978,-5.7978,-5.7978,-5.7978,-5.7978,-5.7978,-5.7978,-5.7978,-5.4381,-5.4418,-5.4821,-5.4987,0.0,-5.5431,-5.5133,-5.4399,-5.4381,-5.4601,-5.4987,-5.4987,-5.5225,-5.5614,-5.5614,-5.5614,-5.5614,-5.5614,-5.5614,-5.5611,-5.6014,-5.6198,-5.6198,-5.6602,-5.6767,-5.6785,-5.6785,-5.6785,-5.6785,-5.6767,-5.6785,-5.6767,-5.6785,-5.6785,-5.6808,-5.7189,-5.7171,-5.6767,-5.6785,-5.6969,-5.7373,-5.7391,-5.7593,-5.7978,-5.7978,0.0,0.0,0.0,0.0,0.0,0.0,0.0,0.0,-5.7978,0.0,-5.7978,-5.7978,-5.7978,-5.7978,-5.7978,-5.7978,-5.7978,-5.7978,-5.7978,-5.7978,-5.7978,-5.7978,-5.7978,-5.7611,-5.7391,-5.7391,-5.7005,-5.6785,-5.6767,-5.6436,-5.6198,-5.6161,-5.5831,-5.5614,-5.5592,-5.5268,-5.4768,-5.4092,-5.3667,-5.3107,-5.2471,-5.234,-5.2452,-5.2773,-5.2536,-5.2401,-5.2807,-5.3213,-5.3501,-5.3518,-5.3518,-5.375,-5.4451,-5.4891,-5.5613,-5.6706,-5.7205,-5.7583,-5.7886,-5.7978,-5.7978,-5.7978,-5.7978,-5.7978,-5.7978,-5.7978,-5.7978,-5.7978,-5.7978,-5.7978,-5.5614,-5.5633,-5.5739,-5.5835,-5.5812,-5.5981,-5.6014,-5.6018,-5.5743,0.0,0.0,-5.5794,-5.5908,-5.5996,-5.6018,-5.6014,-5.6037,-5.6014,-5.6037,-5.6051,-5.6712,-5.7005,-5.706,-5.7703,-5.7978,-5.7978,-5.7978,-5.7978,-5.7978,-5.7978,-5.7978,-5.7978,-5.7978,-5.7978,-5.7978,-5.7978,-5.7978,-5.7978,-5.7978,-5.7978,-5.7978,-5.7978,-5.7978,-5.7978,-5.7978,-5.7978,-5.7978,-5.7978,-5.7978,-5.7978,-5.7978,-5.7978,-5.7978,-5.7978,-5.7978,-5.7978,-5.7978,-5.7978,-5.7978,-5.7978,-5.7978,-5.7978,-5.7978,-5.7978,-5.7978,-5.7978,-5.7978,-5.7978,-5.7978,-5.7978,-5.7978,-5.7978,-5.7978,-5.7978,-5.7409,-5.7024,-5.6987,-5.6455,-5.6088,-5.6014,-5.5939,-5.5637,-5.5121,-5.4822,-5.444,-5.3862,-5.3626,-5.3601,-5.345,-5.2942,-5.279,-5.3315,-5.3484,-5.3518,-5.3518,-5.3518,-5.3799,-5.4451,-5.4726,-5.5299,-5.6471,-5.7002,-5.7338,-5.7886,-5.7978,-5.7978,-5.7978,-5.7978,-5.7978,-5.7978,-5.7978,-5.7978,-5.7997,-5.813,-5.8185,-5.5633,-5.5647,-5.6345,-5.6638,-5.6693,-5.7373,-5.7666,-5.7538,-5.6198,-5.5978,-5.6638,-5.6638,-5.7024,-5.7648,-5.7666,-5.7666,-5.7666,-5.7666,-5.7666,-5.7666,-5.7776,-5.7831,-5.7831,-5.7941,-5.7978,-5.7978,-5.7978,-5.7978,-5.7978,-5.7978,-5.7978,-5.7978,-5.7978,-5.7978,-5.7978,-5.7978,-5.7978,-5.7978,-5.7978,-5.7978,-5.7978,-5.7978,-5.7978,-5.7978,-5.7978,-5.7978,-5.7978,-5.7978,-5.7978,-5.7978,-5.7978,-5.7978,-5.7978,-5.7978,-5.7978,-5.7978,-5.7978,-5.7978,-5.7978,-5.7978,-5.7978,-5.7978,-5.7978,-5.7978,-5.7978,-5.7978,-5.7978,-5.7978,-5.7978,-5.7978,-5.7978,-5.7978,-5.7978,-5.7978,-5.7905,-5.7831,-5.7776,-5.7685,-5.7538,-5.7519,-5.7097,-5.6667,-5.6418,-5.5883,-5.519,-5.4613,-5.4239,-5.4186,-5.3617,-5.3416,-5.3365,-5.3484,-5.3518,-5.3518,-5.3518,-5.3518,-5.3832,-5.4499,-5.5131,-5.5804,-5.6815,-5.742,-5.7792,-5.7955,-5.7978,-5.7978,-5.7978,-5.7978,-5.7978,-5.7978,-5.7978,-5.7997,-5.8052,-5.858,-5.8805,-5.6895,-5.695,-5.7299,-5.7446,-5.7483,-5.785,-5.7978,-5.7941,-5.7226,-5.7097,-5.7428,-5.7446,-5.7648,-5.796,-5.7978,-5.7978,-5.7978,-5.7978,-5.7978,-5.7978,-5.7978,-5.7978,-5.7978,-5.7978,-5.7978,-5.7978,-5.7978,-5.7978,-5.7978,-5.7978,-5.7978,-5.7978,-5.7978,-5.7978,-5.7978,-5.7978,-5.7978,-5.7978,-5.7978,-5.7978,-5.7978,-5.7978,-5.7978,-5.7978,-5.7978,-5.7978,-5.7978,-5.7978,-5.7978,-5.7978,-5.7978,-5.7978,-5.7978,-5.7978,-5.7978,-5.7978,-5.7978,-5.7978,-5.7978,-5.7978,-5.7978,-5.7978,-5.7978,-5.7978,-5.7978,-5.7978,-5.7978,-5.7978,-5.7978,-5.7978,-5.7978,-5.7978,-5.7978,-5.7978,-5.7978,-5.7978,-5.7978,-5.7978,-5.7978,-5.7955,-5.7726,-5.7333,-5.6956,-5.6186,-5.5437,-5.4743,-5.431,-5.3848,-5.3568,-5.3518,-5.3518,-5.3518,-5.3518,-5.3518,-5.3501,-5.3518,-5.3979,-5.4999,-5.5466,-5.6184,-5.7195,-5.783,-5.7945,-5.7978,-5.7978,-5.7978,-5.7978,-5.7978,-5.7978,-5.7978,-5.7978,-5.8088,-5.8565,-5.9286,-5.9646,-5.7978,-5.7978,-5.7978,-5.7978,-5.7978,-5.7978,-5.7978,-5.7978,-5.7978,-5.7978,-5.7978,-5.7978,-5.7978,-5.7978,-5.7978,-5.7978,-5.7978,-5.7978,-5.7978,-5.7978,-5.7978,-5.7978,-5.7978,-5.7978,-5.7978,-5.7978,-5.7978,-5.7978,-5.7978,-5.7978,-5.7978,-5.7978,-5.7978,-5.7978,-5.7978,-5.7978,-5.7978,-5.7978,-5.7978,-5.7978,-5.7978,-5.7978,-5.7978,-5.7978,-5.7978,-5.7978,-5.7978,-5.7978,-5.7978,-5.7978,-5.7978,-5.7978,-5.7978,-5.7978,-5.7978,-5.7978,-5.7978,-5.7978,-5.7978,-5.7978,-5.7978,-5.7978,-5.7978,-5.7978,-5.7978,-5.7978,-5.7978,-5.7978,-5.7978,-5.7978,-5.7978,-5.7978,-5.7978,-5.7978,-5.7978,-5.7978,-5.7978,-5.7978,-5.7978,-5.7978,-5.7862,-5.7474,-5.6938,-5.6204,-5.5437,-5.4713,-5.3962,-5.3534,-5.3518,-5.3518,-5.3518,-5.3518,-5.3518,-5.3518,-5.3501,-5.3701,-5.4313,-5.5506,-5.5893,-5.6598,-5.7559,-5.7973,-5.7978,-5.7978,-5.7978,-5.7978,-5.7978,-5.7978,-5.7978,-5.7997,-5.818,-5.8621,-5.9635,-6.0241,-6.0645,-5.7978,-5.7978,-5.7978,-5.7978,-5.7978,-5.7978,-5.7978,-5.7978,-5.7978,-5.7978,-5.7978,-5.7978,-5.7978,-5.7978,-5.7978,-5.7978,-5.7978,-5.7978,-5.7978,-5.7978,-5.7978,-5.7978,-5.7978,-5.7978,-5.7978,-5.7978,-5.7978,-5.7978,-5.7978,-5.7978,-5.7978,-5.7978,-5.7978,-5.7978,-5.7978,-5.7978,-5.7978,-5.7978,-5.7978,-5.7978,-5.7978,-5.7978,-5.7978,-5.7978,-5.7978,-5.7978,-5.7978,-5.7978,-5.7978,-5.7978,-5.7978,-5.7978,-5.7978,-5.7978,-5.7978,-5.7978,-5.7978,-5.7978,-5.7978,-5.7978,-5.7978,-5.7978,-5.7978,-5.7978,-5.7978,-5.7978,-5.7978,-5.7978,-5.7978,-5.7978,-5.7978,-5.7978,-5.7978,-5.7978,-5.7978,-5.7978,-5.7978,-5.7978,-5.7978,-5.7978,-5.7498,-5.6964,-5.6843,-5.6132,-5.5379,-5.4713,-5.3962,-5.3518,-5.3518,-5.3518,-5.3518,-5.3501,-5.3501,-5.3534,-5.3618,-5.4089,-5.4774,-5.5581,-5.6295,-5.7022,-5.7708,-5.7978,-5.7978,-5.7978,-5.7978,-5.7978,-5.7978,-5.7978,-5.8015,-5.829,-5.8749,-5.958,-6.0877,-6.1404,-6.1465,-5.7978,-5.7978,-5.7978,-5.7978,-5.7978,-5.7978,-5.7978,-5.7978,-5.7978,-5.7978,-5.7978,-5.7978,-5.7978,-5.7978,-5.7978,-5.7978,-5.7978,-5.7978,-5.7978,-5.7978,-5.7978,-5.7978,-5.7978,-5.7978,-5.7978,-5.7978,-5.7978,-5.7978,-5.7978,-5.7978,-5.7978,-5.7978,-5.7978,-5.7978,-5.7978,-5.7978,-5.7978,-5.7978,-5.7978,-5.7978,-5.7978,-5.7978,-5.7978,-5.7978,-5.7978,-5.7978,-5.7978,-5.7978,-5.7978,-5.7978,-5.7978,-5.7978,-5.7978,-5.7978,-5.7978,-5.7978,-5.7978,-5.7978,-5.7978,-5.7978,-5.7978,-5.7978,-5.7978,-5.7978,-5.7978,-5.7978,-5.7978,-5.7978,-5.7978,-5.7978,-5.7978,-5.7978,-5.7978,-5.7978,-5.7978,-5.7978,-5.7978,-5.7978,-5.7978,-5.7955,-5.775,-5.7351,-5.6817,-5.5798,-5.5012,-5.4575,-5.3979,-5.3534,-5.3518,-5.3518,-5.3518,-5.3568,-5.3832,-5.4139,-5.4154,-5.4374,-5.5119,-5.6049,-5.6668,-5.7159,-5.7774,-5.7978,-5.7978,-5.7978,-5.7978,-5.7978,-5.7978,-5.8033,-5.8107,-5.8657,-5.9813,-6.0865,-6.1494,-6.1973,-6.223,-5.7978,-5.7978,-5.7978,-5.7978,-5.7978,-5.7978,-5.7978,-5.7978,-5.7978,-5.7978,-5.7978,-5.7978,-5.7978,-5.7978,-5.7978,-5.7978,-5.7978,-5.7978,-5.7978,-5.7978,-5.7978,-5.7978,-5.7978,-5.7978,-5.7978,-5.7978,-5.7978,-5.7978,-5.7978,-5.7978,-5.7978,-5.7978,-5.7978,-5.7978,-5.7978,-5.7978,-5.7978,-5.7978,-5.7978,-5.7978,-5.7978,-5.7978,-5.7978,-5.7978,-5.7978,-5.7978,-5.7978,-5.7978,-5.7978,-5.7978,-5.7978,-5.7978,-5.7978,-5.7978,-5.7978,-5.7978,-5.7978,-5.7978,-5.7978,-5.7978,-5.7978,-5.7978,-5.7978,-5.7978,-5.7978,-5.7978,-5.7978,-5.7978,-5.7978,-5.7978,-5.7978,-5.7978,-5.7978,-5.7978,-5.7978,-5.7978,-5.7978,-5.7978,-5.7978,-5.7978,-5.775,-5.7309,-5.6358,-5.5297,-5.4575,-5.4232,-5.3832,-5.3518,-5.3518,-5.3518,-5.3518,-5.3501,-5.3962,-5.4218,-5.4359,-5.4999,-5.5656,-5.6204,-5.6765,-5.7425,-5.7909,-5.7955,-5.7978,-5.7978,-5.7978,-5.8015,-5.807,-5.8125,-5.8767,-5.9722,-6.075,-6.1655,-6.1979,-6.2463,-6.2713,-5.7978,-5.7978,-5.7978,-5.7978,-5.7978,-5.7978,-5.7978,-5.7978,-5.7978,-5.7978,-5.7978,-5.7978,-5.7978,-5.7978,-5.7978,-5.7978,-5.7978,-5.7978,-5.7978,-5.7978,-5.7978,-5.7978,-5.7978,-5.7978,-5.7978,-5.7978,-5.7978,-5.7978,-5.7978,-5.7978,-5.7978,-5.7978,-5.7978,-5.7978,-5.7978,-5.7978,-5.7978,-5.7978,-5.7978,-5.7978,-5.7978,-5.7978,-5.7978,-5.7978,-5.7978,-5.7978,-5.7978,-5.7978,-5.7978,-5.7978,-5.7978,-5.7978,-5.7978,-5.7978,-5.7978,-5.7978,-5.7978,-5.7978,-5.7978,-5.7978,-5.7978,-5.7978,-5.7978,-5.7978,-5.7978,-5.7978,-5.7978,-5.7978,-5.7978,-5.7978,-5.7978,-5.7978,-5.7978,-5.7978,-5.7978,-5.7978,-5.7978,-5.7978,-5.7978,-5.7909,-5.7516,-5.6695,-5.5131,-5.4634,-5.4342,-5.3913,-5.3551,-5.3501,-5.3518,-5.3518,-5.3518,-5.3534,-5.3601,-5.3584,-5.3767,-5.4987,-5.5966,-5.6474,-5.7116,-5.7807,-5.7914,-5.7978,-5.7978,-5.7978,-5.7978,-5.8033,-5.8143,-5.8786,-5.9813,-6.0676,-6.1245,-6.1912,-6.2353,-6.264,-6.2823,-5.7978,-5.7978,-5.7978,-5.7978,-5.7978,-5.7978,-5.7978,-5.7978,-5.7978,-5.7978,-5.7978,-5.7978,-5.7978,-5.7978,-5.7978,-5.7978,-5.7978,-5.7978,-5.7978,-5.7978,-5.7978,-5.7978,-5.7978,-5.7978,-5.7978,-5.7978,-5.7978,-5.7978,-5.7978,-5.7978,-5.7978,-5.7978,-5.7978,-5.7978,-5.7978,-5.7978,-5.7978,-5.7978,-5.7978,-5.7978,-5.7978,-5.7978,-5.7978,-5.7978,-5.7978,-5.7978,-5.7978,-5.7978,-5.7978,-5.7978,-5.7978,-5.7978,-5.7978,-5.7978,-5.7978,-5.7978,-5.7978,-5.7978,-5.7978,-5.7978,-5.7978,-5.7978,-5.7978,-5.7978,-5.7978,-5.7978,-5.7978,-5.7978,-5.7978,-5.7978,-5.7978,-5.7978,-5.7978,-5.7978,-5.7978,-5.7978,-5.7978,-5.7978,-5.7978,-5.7955,-5.7726,-5.7191,-5.6232,-5.5627,-5.5012,-5.4328,-5.3816,-5.3568,-5.3518,-5.3518,-5.3534,-5.3668,-5.4249,-5.4562,-5.3534,-5.4926,-5.6132,-5.6677,-5.7229,-5.7434,-5.7561,-5.7905,-5.796,-5.8015,-5.7997,-5.8455,-5.8767,-5.985,-6.0841,-6.1282,-6.1869,-6.2273,-6.2725,-6.2805,-6.2823,-5.7978,-5.7978,-5.7978,-5.7978,-5.7978,-5.7978,-5.7978,-5.7978,-5.7978,-5.7978,-5.7978,-5.7978,-5.7978,-5.7978,-5.7978,-5.7978,-5.7978,-5.7978,-5.7978,-5.7978,-5.7978,-5.7978,-5.7978,-5.7978,-5.7978,-5.7978,-5.7978,-5.7978,-5.7978,-5.7978,-5.7978,-5.7978,-5.7978,-5.7978,-5.7978,-5.7978,-5.7978,-5.7978,-5.7978,-5.7978,-5.7978,-5.7978,-5.7978,-5.7978,-5.7978,-5.7978,-5.7978,-5.7978,-5.7978,-5.7978,-5.7978,-5.7978,-5.7978,-5.7978,-5.7978,-5.7978,-5.7978,-5.7978,-5.7978,-5.7978,-5.7978,-5.7978,-5.7978,-5.7978,-5.7978,-5.7978,-5.7978,-5.7978,-5.7978,-5.7978,-5.7978,-5.7978,-5.7978,-5.7978,-5.7978,-5.7978,-5.7978,-5.7978,-5.7978,-5.7978,-5.7955,-5.7637,-5.7015,-5.6438,-5.5798,-5.5059,-5.4328,-5.3881,-5.3865,-5.3865,-5.3848,-5.3913,-5.4606,-5.4848,-5.453,-5.5367,-5.5865,-5.6349,-5.6997,-5.7164,-5.7408,-5.7734,-5.7927,-5.7987,-5.8359,-5.8927,-5.9795,-6.086,-6.1484,-6.1887,-6.2236,-6.2622,-6.2805,-6.2805,-6.2823,-5.7978,-5.7978,-5.7978,-5.7978,-5.7978,-5.7978,-5.7978,-5.7978,-5.7978,-5.7978,-5.7978,-5.7978,-5.7978,-5.7978,-5.7978,-5.7978,-5.7978,-5.7978,-5.7978,-5.7978,-5.7978,-5.7978,-5.7978,-5.7978,-5.7978,-5.7978,-5.7978,-5.7978,-5.7978,-5.7978,-5.7978,-5.7978,-5.7978,-5.7978,-5.7978,-5.7978,-5.7978,-5.7978,-5.7978,-5.7978,-5.7978,-5.7978,-5.7978,-5.7978,-5.7978,-5.7978,-5.7978,-5.7978,-5.7978,-5.7978,-5.7978,-5.7978,-5.7978,-5.7978,-5.7978,-5.7978,-5.7978,-5.7978,-5.7978,-5.7978,-5.7978,-5.7978,-5.7978,-5.7978,-5.7978,-5.7978,-5.7978,-5.7978,-5.7978,-5.7978,-5.7978,-5.7978,-5.7978,-5.7978,-5.7978,-5.7978,-5.7978,-5.7978,-5.7978,-5.7978,-5.7978,-5.7703,-5.7116,-5.6791,-5.6385,-5.5524,-5.4909,-5.4468,-5.4437,-5.4405,-5.4544,-5.4575,-5.4939,-5.5267,-5.5466,-5.5706,-5.5724,-5.5893,-5.6589,-5.705,-5.7382,-5.768,-5.7638,-5.7735,-5.8562,-5.9188,-6.0242,-6.1254,-6.1955,-6.2365,-6.2677,-6.2823,-6.2823,-6.2823,-6.2823,-5.7978,-5.7978,-5.7978,-5.7978,-5.7978,-5.7978,-5.7978,-5.7978,-5.7978,-5.7978,-5.7978,-5.7978,-5.7978,-5.7978,-5.7978,-5.7978,-5.7978,-5.7978,-5.7978,-5.7978,-5.7978,-5.7978,-5.7978,-5.7978,-5.7978,-5.7978,-5.7978,-5.7978,-5.7978,-5.7978,-5.7978,-5.7978,-5.7978,-5.7978,-5.7978,-5.7978,-5.7978,-5.7978,-5.7978,-5.7978,-5.7978,-5.7978,-5.7978,-5.7978,-5.7978,-5.7978,-5.7978,-5.7978,-5.7978,-5.7978,-5.7978,-5.7978,-5.7978,-5.7978,-5.7978,-5.7978,-5.7978,-5.7978,-5.7978,-5.7978,-5.7978,-5.7978,-5.7978,-5.7978,-5.7978,-5.7978,-5.7978,-5.7978,-5.7978,-5.7978,-5.7978,-5.7978,-5.7978,-5.7978,-5.7978,-5.7978,-5.7978,-5.7978,-5.7978,-5.7978,-5.7978,-5.766,-5.7134,-5.6894,-5.6412,-5.5367,-5.4848,-5.4651,-5.462,-5.4682,-5.4589,-5.462,-5.5238,-5.5627,-5.5495,-5.5667,-5.592,-5.5994,-5.6438,-5.691,-5.7245,-5.7445,-5.7395,-5.792,-5.8729,-5.971,-6.0781,-6.1591,-6.2302,-6.2622,-6.2768,-6.2823,-6.2823,-6.2823,-6.2823,-5.7978,-5.7978,-5.7978,-5.7978,-5.7978,-5.7978,-5.7978,-5.7978,-5.7978,-5.7978,-5.7978,-5.7978,-5.7978,-5.7978,-5.7978,-5.7978,-5.7978,-5.7978,-5.7978,-5.7978,-5.7978,-5.7978,-5.7978,-5.7978,-5.7978,-5.7978,-5.7978,-5.7978,-5.7978,-5.7978,-5.7978,-5.7978,-5.7978,-5.7978,-5.7978,-5.7978,-5.7978,-5.7978,-5.7978,-5.7978,-5.7978,-5.7978,-5.7978,-5.7978,-5.7978,-5.7978,-5.7978,-5.7978,-5.7978,-5.7978,-5.7978,-5.7978,-5.7978,-5.7978,-5.7978,-5.7978,-5.7978,-5.7978,-5.7978,-5.7978,-5.7978,-5.7978,-5.7978,-5.7978,-5.7978,-5.7978,-5.7978,-5.7978,-5.7978,-5.7978,-5.7978,-5.7978,-5.7978,-5.7978,-5.7978,-5.7978,-5.7978,-5.7978,-5.7978,-5.7978,-5.7978,-5.775,-5.7449,-5.6946,-5.6589,-5.5599,-5.5191,-5.5012,-5.5012,-5.5042,-5.5102,-5.525,-5.5685,-5.5741,-5.5279,-5.5552,-5.6077,-5.6232,-5.6385,-5.6725,-5.7047,-5.7105,-5.7126,-5.8336,-5.9256,-6.0456,-6.1524,-6.212,-6.275,-6.2805,-6.2661,-6.278,-6.278,-6.2823,-6.2798,-5.7978,-5.7978,-5.7978,-5.7978,-5.7978,-5.7978,-5.7978,-5.7978,-5.7978,-5.7978,-5.7978,-5.7978,-5.7978,-5.7978,-5.7978,-5.7978,-5.7978,-5.7978,-5.7978,-5.7978,-5.7978,-5.7978,-5.7978,-5.7978,-5.7978,-5.7978,-5.7978,-5.7978,-5.7978,-5.7978,-5.7978,-5.7978,-5.7978,-5.7978,-5.7978,-5.7978,-5.7978,-5.7978,-5.7978,-5.7978,-5.7978,-5.7978,-5.7978,-5.7978,-5.7978,-5.7978,-5.7978,-5.7978,-5.7978,-5.7978,-5.7978,-5.7978,-5.7978,-5.7978,-5.7978,-5.7978,-5.7978,-5.7978,-5.7978,-5.7978,-5.7978,-5.7978,-5.7978,-5.7978,-5.7978,-5.7978,-5.7978,-5.7978,-5.7978,-5.7978,-5.7978,-5.7978,-5.7978,-5.7978,-5.7978,-5.7978,-5.7978,-5.7978,-5.7978,-5.7978,-5.7978,-5.7955,-5.7886,-5.7358,-5.704,-5.6642,-5.6132,-5.5808,-5.5592,-5.5667,-5.6077,-5.6186,-5.6132,-5.5966,-5.5552,-5.591,-5.6286,-5.5741,-5.6167,-5.6823,-5.7108,-5.7182,-5.7478,-5.8646,-5.96,-6.0918,-6.1695,-6.1994,-6.2219,-6.2094,-6.22,-6.2592,-6.2515,-6.2267,-6.2201,-5.7978,-5.7978,-5.7978,-5.7978,-5.7978,-5.7978,-5.7978,-5.7978,-5.7978,-5.7978,-5.7978,-5.7978,-5.7978,-5.7978,-5.7978,-5.7978,-5.7978,-5.7978,-5.7978,-5.7978,-5.7978,-5.7978,-5.7978,-5.7978,-5.7978,-5.7978,-5.7978,-5.7978,-5.7978,-5.7978,-5.7978,-5.7978,-5.7978,-5.7978,-5.7978,-5.7978,-5.7978,-5.7978,-5.7978,-5.7997,-5.8015,-5.8033,-5.7978,-5.7978,-5.8033,-5.8052,-5.7997,-5.7978,-5.7978,-5.7978,-5.7978,-5.7978,-5.7955,-5.7978,-5.7955,-5.7867,-5.7955,-5.7955,-5.7955,-5.8015,-5.7997,-5.7978,-5.8125,-5.7978,-5.7978,-5.7997,-5.7997,-5.7997,-5.7978,-5.8033,-5.8015,-5.8052,-5.8052,-5.7978,-5.8143,-5.8088,-5.7997,-5.7978,-5.7978,-5.7978,-5.7978,-5.7978,-5.7932,-5.775,-5.7401,-5.6989,-5.6616,-5.634,-5.6049,-5.6077,-5.6367,-5.6232,-5.6132,-5.6077,-5.6077,-5.6385,-5.6232,-5.5396,-5.589,-5.7141,-5.7477,-5.7765,-5.8262,-5.9052,-5.9447,-6.0518,-6.0722,-6.0909,-6.1044,-6.1379,-6.1304,-6.141,-6.1163,-6.0927,-6.1037,-5.7978,-5.7978,-5.7978,-5.7978,-5.7978,-5.7978,-5.7978,-5.7978,-5.7978,-5.7978,-5.7978,-5.7978,-5.7978,-5.7978,-5.7978,-5.7978,-5.7978,-5.7978,-5.7978,-5.7978,-5.7978,-5.7978,-5.7978,-5.7978,-5.7978,-5.7978,-5.7978,-5.7978,-5.7978,-5.7978,-5.7978,-5.7978,-5.7978,-5.7978,-5.7978,-5.7978,-5.7978,-5.7978,-5.7997,-5.8125,-5.8455,-5.851,-5.8767,-5.8914,-5.9006,-5.8893,-5.8574,-5.85,-5.8385,-5.811,-5.7978,-5.7862,-5.7589,-5.7862,-5.7708,-5.718,-5.7576,-5.7774,-5.7363,-5.7862,-5.8351,-5.8287,-5.8524,-5.8988,-5.9043,-5.9006,-5.9024,-5.9061,-5.9006,-5.9006,-5.9006,-5.9006,-5.9006,-5.9079,-5.9006,-5.8712,-5.8125,-5.7978,-5.7978,-5.7978,-5.7978,-5.7978,-5.7978,-5.7732,-5.7376,-5.6964,-5.6492,-5.6385,-5.6286,-5.6438,-5.6518,-5.6421,-5.6241,-5.6186,-5.624,-5.6465,-5.6743,-5.5886,-5.6234,-5.7429,-5.7792,-5.8202,-5.8701,-5.9181,-5.9512,-5.9813,-6.0075,-6.0322,-6.0567,-6.0688,-6.0414,-6.0334,-6.029,-6.0188,-6.0207,-5.795,-5.7978,-5.7978,-5.7978,-5.7978,-5.7978,-5.7978,-5.7978,-5.7978,-5.7978,-5.7978,-5.7978,-5.7978,-5.7978,-5.7978,-5.7978,-5.7978,-5.7978,-5.7978,-5.7978,-5.7978,-5.7978,-5.7978,-5.7978,-5.7978,-5.7978,-5.7978,-5.7978,-5.7978,-5.7978,-5.7978,-5.7978,-5.7978,-5.7978,-5.7978,-5.7978,-5.8033,-5.8198,-5.8253,-5.8676,-5.9124,-5.9194,-5.9298,-5.9694,-5.9593,-5.9346,-5.8997,-5.8916,-5.8678,-5.8031,-5.7988,-5.7782,-5.7332,-5.785,-5.7543,-5.6797,-5.7441,-5.7474,-5.6606,-5.7983,-5.8828,-5.8536,-5.9497,-6.0334,-6.0151,-6.0126,-6.0126,-6.0089,-6.0382,-6.0181,-6.0181,-6.0291,-6.0199,-6.0107,-6.0254,-5.9648,-5.8676,-5.818,-5.8107,-5.7997,-5.7978,-5.7978,-5.7821,-5.7474,-5.704,-5.7376,-5.692,-5.6773,-5.6624,-5.6518,-5.6668,-5.6747,-5.6571,-5.634,-5.6412,-5.6519,-5.6761,-5.6682,-5.7167,-5.793,-5.811,-5.8502,-5.9016,-5.9417,-5.9699,-5.9831,-5.99,-6.0086,-6.0117,-5.985,-5.946,-5.9721,-6.0002,-5.9867,-5.9861,-5.7474,-5.7978,-5.7978,-5.7978,-5.7978,-5.7978,-5.7978,-5.7978,-5.7978,-5.7978,-5.7978,-5.7978,-5.7955,-5.7955,-5.7932,-5.7978,-5.7932,-5.7932,-5.7978,-5.7978,-5.7978,-5.7978,-5.7955,-5.7886,-5.7955,-5.7978,-5.7978,-5.7978,-5.7978,-5.7978,-5.7978,-5.7955,-5.7955,-5.7997,-5.801,-5.8084,-5.8345,-5.8799,-5.8927,-5.926,-5.97,-5.9459,-5.9325,-5.9544,-5.9049,-5.8556,-5.833,-5.8254,-5.8181,-5.8064,-5.8014,-5.808,-5.8232,-5.814,-5.7938,-5.7976,-5.7861,-5.7801,-5.7658,-5.7903,-5.8524,-5.8871,-5.9365,-5.9721,-6.0353,-6.0469,-6.0474,-6.0419,-6.0401,-6.0566,-6.0603,-6.0456,-6.0566,-6.0621,-6.0566,-6.0382,-5.9887,-5.9336,-5.8749,-5.8235,-5.8052,-5.7978,-5.7997,-5.7867,-5.7684,-5.7726,-5.7516,-5.7284,-5.6971,-5.6642,-5.6571,-5.6624,-5.6616,-5.6412,-5.6504,-5.6764,-5.7346,-5.7499,-5.795,-5.8503,-5.8691,-5.8792,-5.9257,-5.9601,-5.9865,-5.9847,-5.9559,-5.9361,-5.9295,-5.8892,-5.8633,-5.8875,-5.9116,-5.9201,-5.9647,-5.6571,-5.6927,-5.6935,-5.7148,-5.7449,-5.7474,-5.7679,-5.7955,-5.7978,-5.7978,-5.7909,-5.7679,-5.7474,-5.7492,-5.7474,-5.7474,-5.7474,-5.7474,-5.7474,-5.734,-5.7105,-5.6909,-5.6935,-5.7029,-5.718,-5.7802,-5.7978,-5.7978,-5.7978,-5.7932,-5.7815,-5.7546,-5.7834,-5.8024,-5.8166,-5.8359,-5.8774,-5.9076,-5.9215,-5.9434,-5.9655,-5.9462,-5.9459,-5.9645,-5.9325,-5.8994,-5.8594,-5.8545,-5.834,-5.8064,-5.7948,-5.7953,-5.8107,-5.8036,-5.7947,-5.7522,-5.8036,-5.746,-5.7245,-5.7917,-5.8627,-5.8668,-5.9598,-6.0413,-6.0978,-6.1261,-6.1514,-6.1539,-6.1557,-6.1533,-6.1539,-6.1533,-6.1496,-6.152,-6.152,-6.1374,-6.0933,-6.0254,-5.9465,-5.8804,-5.8621,-5.8345,-5.818,-5.818,-5.7987,-5.7889,-5.7284,-5.704,-5.6843,-5.6492,-5.6214,-5.6214,-5.6367,-5.6428,-5.6546,-5.7085,-5.8039,-5.8232,-5.8488,-5.9064,-5.9509,-5.9499,-5.949,-5.9638,-5.9611,-5.9128,-5.8823,-5.8651,-5.8599,-5.8352,-5.8207,-5.8162,-5.8436,-5.9047,-5.9534,-5.5592,-5.5706,-5.5706,-5.6104,-5.6668,-5.6721,-5.7022,-5.7546,-5.766,-5.7456,-5.7528,-5.6971,-5.6703,-5.6721,-5.6721,-5.6695,-5.6695,-5.6695,-5.6703,-5.6606,-5.6196,-5.6004,-5.5931,-5.6059,-5.6429,-5.757,-5.748,-5.748,-5.7504,-5.7631,-5.725,-5.7057,-5.7484,-5.7855,-5.8156,-5.8631,-5.8976,-5.9159,-5.9203,-5.9368,-5.9461,-5.9345,-5.943,-5.9531,-5.959,-5.9249,-5.8785,-5.8685,-5.853,-5.7937,-5.7881,-5.7564,-5.7341,-5.7431,-5.7639,-5.6404,-5.756,-5.7467,-5.7055,-5.7815,-5.8646,-5.8243,-5.984,-6.1064,-6.1348,-6.1652,-6.199,-6.2358,-6.2398,-6.2585,-6.2805,-6.2578,-6.264,-6.2695,-6.275,-6.2475,-6.1887,-6.1135,-6.0511,-5.9593,-5.9373,-5.9189,-5.8786,-5.8584,-5.8299,-5.7938,-5.7325,-5.6871,-5.6706,-5.6635,-5.6508,-5.6712,-5.711,-5.7774,-5.7971,-5.7712,-5.8621,-5.9023,-5.9162,-5.9372,-5.98,-5.9304,-5.9015,-5.9201,-5.9081,-5.8684,-5.8511,-5.8529,-5.837,-5.801,-5.7969,-5.8107,-5.8496,-5.9041,-5.9561,-5.5144,-5.5706,-5.5706,-5.5791,-5.5875,-5.5893,-5.6004,-5.6041,-5.6196,-5.6087,-5.6114,-5.5931,-5.5893,-5.5893,-5.5875,-5.5893,-5.5994,-5.5966,-5.5893,-5.5893,-5.5592,-5.5524,-5.5466,-5.5408,-5.5752,-5.5958,-5.6087,-5.6114,-5.6223,-5.6077,-5.6579,-5.683,-5.713,-5.7438,-5.7921,-5.8199,-5.8709,-5.9118,-5.9201,-5.9423,-5.9611,-5.9327,-5.8819,-5.8651,-5.8616,-5.8441,-5.8246,-5.8137,-5.8046,-5.7918,-5.7881,-5.7821,-5.7713,-5.7823,-5.7963,-5.8084,-5.7929,-5.7668,-5.7505,-5.7746,-5.8462,-5.8838,-5.9437,-5.9988,-6.044,-6.082,-6.1361,-6.1942,-6.2446,-6.2823,-6.2823,-6.2823,-6.2823,-6.2823,-6.2805,-6.275,-6.2548,-6.2254,-6.1686,-6.0621,-6.0346,-5.9938,-5.9347,-5.8793,-5.838,-5.8105,-5.7763,-5.7306,-5.7057,-5.7191,-5.7296,-5.7701,-5.8196,-5.8978,-5.9669,-5.9188,-5.9306,-5.9781,-5.9827,-5.9369,-5.9447,-5.8682,-5.8474,-5.8891,-5.8926,-5.8615,-5.8494,-5.8441,-5.8298,-5.801,-5.8075,-5.8157,-5.8875,-5.959,-6.0296,-5.4249,-5.4562,-5.4562,-5.4787,-5.5084,-5.5114,-5.535,-5.5678,-5.5706,-5.5706,-5.5581,-5.5338,-5.5131,-5.5131,-5.5131,-5.5338,-5.5552,-5.5262,-5.5161,-5.5102,-5.4774,-5.4544,-5.4606,-5.4606,-5.4562,-5.4562,-5.4593,-5.5059,-5.5691,-5.6212,-5.6247,-5.642,-5.6987,-5.7651,-5.8066,-5.8487,-5.8708,-5.911,-5.9144,-5.9107,-5.9144,-5.8668,-5.8263,-5.8046,-5.7881,-5.7881,-5.7881,-5.7881,-5.7918,-5.7918,-5.7881,-5.7881,-5.7881,-5.7937,-5.8065,-5.8335,-5.812,-5.7881,-5.7881,-5.7918,-5.812,-5.8441,-5.8806,-5.9245,-5.9736,-6.018,-6.073,-6.152,-6.2298,-6.2823,-6.2823,-6.2823,-6.2823,-6.2823,-6.2823,-6.2823,-6.278,-6.278,-6.218,-6.1366,-6.0785,-6.0124,-5.9491,-5.8941,-5.8475,-5.8223,-5.808,-5.7792,-5.7468,-5.7698,-5.7953,-5.8271,-5.8702,-5.9224,-5.9884,-5.9715,-5.9413,-5.9889,-5.9998,-5.9547,-5.9325,-5.8674,-5.8679,-5.9025,-5.8832,-5.8405,-5.8246,-5.8101,-5.8046,-5.8095,-5.8344,-5.8699,-5.944,-6.017,-6.0863,-5.3518,-5.3518,-5.3518,-5.3832,-5.431,-5.4391,-5.4682,-5.5191,-5.522,-5.5161,-5.5191,-5.4682,-5.4374,-5.4374,-5.4419,-5.4665,-5.5173,-5.4558,-5.4405,-5.4296,-5.3913,-5.3551,-5.3534,-5.3518,-5.3651,-5.3783,-5.3734,-5.4192,-5.5249,-5.5863,-5.6071,-5.6408,-5.7294,-5.7883,-5.8038,-5.8424,-5.8843,-5.8887,-5.8858,-5.8476,-5.8065,-5.7881,-5.7881,-5.7881,-5.7881,-5.7881,-5.7881,-5.7881,-5.7881,-5.7881,-5.7881,-5.7881,-5.7881,-5.7881,-5.7881,-5.7881,-5.7881,-5.7881,-5.7881,-5.7881,-5.7954,-5.8065,-5.8494,-5.8789,-5.9162,-5.9768,-6.064,-6.1361,-6.2271,-6.278,-6.2823,-6.2823,-6.2823,-6.2823,-6.278,-6.273,-6.2515,-6.2394,-6.2192,-6.1515,-6.0973,-6.0684,-6.0356,-5.9999,-5.9715,-5.9087,-5.8934,-5.8291,-5.8052,-5.8288,-5.8526,-5.8703,-5.9021,-5.9347,-5.9676,-5.9712,-5.9421,-5.9399,-5.9313,-5.8927,-5.8909,-5.8815,-5.8943,-5.8906,-5.8458,-5.8065,-5.7937,-5.7881,-5.7954,-5.8157,-5.8609,-5.917,-5.9773,-6.0486,-6.1252,-5.3518,-5.3518,-5.3518,-5.3551,-5.3651,-5.3668,-5.3701,-5.3816,-5.3898,-5.375,-5.3946,-5.3717,-5.3684,-5.3684,-5.3701,-5.3717,-5.3783,-5.3832,-5.375,-5.3717,-5.3584,-5.3518,-5.3518,-5.3518,-5.3518,-5.3551,-5.3568,-5.3957,-5.48,-5.5107,-5.5673,-5.649,-5.69,-5.7271,-5.794,-5.815,-5.8052,-5.8048,-5.8065,-5.8046,-5.7918,-5.7881,-5.7881,-5.7881,-5.7881,-5.7881,-5.7881,-5.7881,-5.7881,-5.7881,-5.7881,-5.7881,-5.7881,-5.7881,-5.7881,-5.7881,-5.7881,-5.7881,-5.7881,-5.7881,-5.7881,-5.7881,-5.8065,-5.8082,-5.8493,-5.9427,-6.0335,-6.0537,-6.1788,-6.2515,-6.2515,-6.273,-6.2755,-6.278,-6.273,-6.2402,-6.2129,-6.2376,-6.2148,-6.1687,-6.1132,-6.1598,-6.1727,-6.1394,-6.1025,-6.032,-5.9663,-5.8977,-5.8556,-5.8749,-5.8853,-5.8983,-5.9169,-5.9509,-5.9454,-5.9464,-5.9241,-5.9027,-5.884,-5.8501,-5.8546,-5.8669,-5.8662,-5.8557,-5.8107,-5.7881,-5.7881,-5.7881,-5.7881,-5.8254,-5.8863,-5.9404,-5.9928,-6.074,-6.1653,-5.3518,-5.3518,-5.3518,-5.3518,-5.3518,-5.3518,-5.3518,-5.3518,-5.3518,-5.3518,-5.3518,-5.3518,-5.3518,-5.3518,-5.3518,-5.3501,-5.3518,-5.3518,-5.3518,-5.3518,-5.3518,-5.3518,-5.3518,-5.3518,-5.3518,-5.3602,-5.3957,-5.4583,-5.4989,-5.531,-5.5835,-5.6697,-5.7205,-5.7565,-5.7865,-5.7881,-5.7901,-5.7901,-5.7918,-5.7918,-5.7881,-5.7881,-5.7881,-5.7881,-5.7881,-5.7881,-5.7881,-5.7881,-5.7881,-5.7881,-5.7881,-5.7881,-5.7881,-5.7881,-5.7881,-5.7881,-5.7881,-5.7881,-5.7881,-5.7881,-5.7881,-5.7881,-5.7881,-5.7954,-5.8137,-5.8943,-5.9721,-5.9704,-6.0713,-6.1443,-6.1722,-6.1888,-6.2049,-6.2174,-6.2404,-6.2324,-6.2103,-6.2324,-6.2298,-6.1788,-6.1361,-6.1733,-6.1942,-6.1453,-6.0817,-6.0094,-5.9769,-5.9549,-5.9091,-5.8943,-5.9025,-5.9085,-5.9301,-5.9564,-5.9402,-5.9276,-5.8823,-5.8667,-5.8972,-5.8634,-5.8401,-5.8384,-5.8458,-5.8366,-5.8003,-5.7881,-5.7881,-5.7915,-5.7966,-5.8507,-5.9133,-5.978,-6.0423,-6.1298,-6.2059,-5.3518,-5.3518,-5.3518,-5.3518,-5.3518,-5.3518,-5.3518,-5.3518,-5.3518,-5.3518,-5.3518,-5.3518,-5.3518,-5.3518,-5.3518,-5.3518,-5.3518,-5.3518,-5.3518,-5.3518,-5.3518,-5.3518,-5.3518,-5.3518,-5.3518,-5.3534,-5.4177,-5.4871,-5.5497,-5.5936,-5.6376,-5.7053,-5.756,-5.7814,-5.7865,-5.7881,-5.7881,-5.7881,-5.7881,-5.7881,-5.7881,-5.7881,-5.7881,-5.7881,-5.7881,-5.7881,-5.7881,-5.7881,-5.7881,-5.7881,-5.7881,-5.7881,-5.7881,-5.7881,-5.7881,-5.7881,-5.7881,-5.7881,-5.7881,-5.7881,-5.7881,-5.7881,-5.7881,-5.7918,-5.8061,-5.8719,-5.9423,-5.961,-6.0691,-6.1069,-6.1056,-6.1515,-6.1566,-6.177,-6.185,-6.1942,-6.1996,-6.1842,-6.1558,-6.095,-6.0742,-6.1275,-6.1332,-6.1044,-6.0509,-5.9794,-5.9686,-5.9832,-5.9458,-5.8975,-5.8993,-5.8993,-5.9144,-5.936,-5.9294,-5.9027,-5.8564,-5.8348,-5.863,-5.8645,-5.8309,-5.8222,-5.8317,-5.8124,-5.7935,-5.7881,-5.7881,-5.7966,-5.8101,-5.871,-5.937,-6.0224,-6.1041,-6.1861,-6.2352,-5.3518,-5.3518,-5.3518,-5.3518,-5.3518,-5.3518,-5.3518,-5.3518,-5.3518,-5.3518,-5.3518,-5.3518,-5.3518,-5.3518,-5.3518,-5.3518,-5.3518,-5.3518,-5.3518,-5.3518,-5.3518,-5.3518,-5.3518,-5.3518,-5.3534,-5.3636,-5.4363,-5.5108,-5.575,-5.6494,-5.7087,-5.7746,-5.7814,-5.7848,-5.7881,-5.7881,-5.7881,-5.7881,-5.7881,-5.7881,-5.7881,-5.7881,-5.7881,-5.7881,-5.7881,-5.7881,-5.7881,-5.7881,-5.7881,-5.7881,-5.7881,-5.7881,-5.7881,-5.7881,-5.7881,-5.7881,-5.7881,-5.7881,-5.7881,-5.7881,-5.7898,-5.7881,-5.7949,-5.8101,-5.8361,-5.9474,-6.0065,-6.0151,-6.0939,-6.1702,-6.1826,-6.1972,-6.1561,-6.1503,-6.1437,-6.1159,-6.1123,-6.0897,-6.0549,-5.9974,-6.0162,-6.082,-6.1044,-6.0808,-6.0397,-5.9718,-5.9211,-5.9328,-5.8977,-5.8599,-5.8737,-5.8806,-5.8959,-5.9077,-5.9144,-5.884,-5.8406,-5.8156,-5.823,-5.8174,-5.8024,-5.8019,-5.8141,-5.8073,-5.7881,-5.7881,-5.7881,-5.7932,-5.8186,-5.8879,-5.959,-6.0444,-6.1223,-6.1997,-6.2296,-5.3518,-5.3518,-5.3518,-5.3518,-5.3518,-5.3518,-5.3518,-5.3518,-5.3518,-5.3518,-5.3518,-5.3518,-5.3518,-5.3518,-5.3518,-5.3518,-5.3518,-5.3518,-5.3518,-5.3518,-5.3518,-5.3518,-5.3518,-5.3518,-5.3518,-5.3788,-5.4634,-5.5344,-5.5784,-5.6833,-5.7442,-5.7831,-5.7881,-5.7881,-5.7881,-5.7881,-5.7881,-5.7881,-5.7881,-5.7881,-5.7881,-5.7881,-5.7881,-5.7881,-5.7881,-5.7881,-5.7881,-5.7881,-5.7881,-5.7881,-5.7881,-5.7881,-5.7881,-5.7881,-5.7881,-5.7898,-5.7915,-5.7949,-5.7932,-5.7966,-5.8068,-5.8541,-5.8609,-5.8727,-5.9015,-5.9896,-6.0125,-6.041,-6.0816,-6.1465,-6.1046,-6.1259,-6.1458,-6.1366,-6.1099,-6.0691,-6.0437,-6.0308,-6.017,-5.9867,-6.0086,-6.058,-6.0658,-6.0658,-6.018,-5.9671,-5.9195,-5.8755,-5.8476,-5.8352,-5.8546,-5.8599,-5.872,-5.8925,-5.9027,-5.8686,-5.8298,-5.8101,-5.7881,-5.7881,-5.7881,-5.7918,-5.7969,-5.7918,-5.7881,-5.7881,-5.7881,-5.7881,-5.8355,-5.9252,-5.9928,-6.0554,-6.1371,-6.2149,-6.2279,-5.4177,-5.416,-5.4177,-5.3907,-5.3534,-5.3518,-5.3518,-5.3518,-5.3518,-5.3518,-5.3518,-5.3518,-5.3518,-5.3518,-5.3518,-5.3518,-5.3518,-5.3518,-5.3518,-5.3518,-5.3518,-5.3518,-5.3518,-5.3551,-5.367,-5.4059,-5.4972,-5.575,-5.6173,-5.7306,-5.7729,-5.7865,-5.7881,-5.7881,-5.7881,-5.7881,-5.7881,-5.7881,-5.7881,-5.7881,-5.7881,-5.7881,-5.7881,-5.7881,-5.7881,-5.7881,-5.7881,-5.7881,-5.7881,-5.7881,-5.7881,-5.7881,-5.7881,-5.7881,-5.7881,-5.7949,-5.8084,-5.8186,-5.822,-5.8287,-5.8575,-5.9201,-5.9353,-5.9607,-5.9979,-6.03,-6.0604,-6.06,-6.0715,-6.0757,-6.0744,-6.1297,-6.142,-6.1302,-6.0877,-6.0463,-6.0269,-6.0108,-6.0004,-5.9838,-6.0153,-6.0384,-5.9832,-5.9768,-5.9639,-5.9162,-5.8772,-5.8388,-5.8192,-5.8156,-5.8388,-5.8458,-5.8493,-5.8737,-5.8909,-5.8476,-5.8101,-5.8046,-5.7881,-5.7881,-5.7881,-5.7881,-5.7881,-5.7881,-5.7881,-5.7881,-5.7881,-5.7898,-5.8727,-5.9776,-6.0503,-6.1281,-6.1603,-6.2313,-6.233,-5.5598,-5.5683,-5.5598,-5.4803,-5.3704,-5.3534,-5.3551,-5.3602,-5.3534,-5.3518,-5.3518,-5.3518,-5.3518,-5.3518,-5.3518,-5.3518,-5.3518,-5.3518,-5.3518,-5.3518,-5.3518,-5.3518,-5.3551,-5.3619,-5.3957,-5.4617,-5.5446,-5.6207,-5.6681,-5.7476,-5.7814,-5.7881,-5.7881,-5.7881,-5.7881,-5.7881,-5.7881,-5.7881,-5.7881,-5.7881,-5.7881,-5.7881,-5.7881,-5.7881,-5.7881,-5.7881,-5.7881,-5.7881,-5.7881,-5.7881,-5.7881,-5.7881,-5.7881,-5.7881,-5.7915,-5.8034,-5.8592,-5.8896,-5.9015,-5.9032,-5.9455,-5.9962,-6.0114,-6.0266,-6.0368,-6.0774,-6.1264,-6.1281,-6.1653,-6.2059,-6.2031,-6.1782,-6.1575,-6.1333,-6.0944,-6.0596,-6.042,-5.9822,-5.9684,-5.9592,-5.994,-6.0072,-5.9295,-5.8823,-5.884,-5.8599,-5.8263,-5.8046,-5.7918,-5.801,-5.8227,-5.8263,-5.8263,-5.8388,-5.8511,-5.8192,-5.7937,-5.7918,-5.7881,-5.7881,-5.7881,-5.7881,-5.7881,-5.7881,-5.7881,-5.7881,-5.7898,-5.7915,-5.8913,-5.9945,-6.1349,-6.2127,-6.2347,-6.2398,-6.2398,-5.5681,-5.5681,-5.5681,-5.5429,-5.4921,-5.4431,-5.4228,-5.4143,-5.3754,-5.3518,-5.3518,-5.3518,-5.3518,-5.3518,-5.3518,-5.3518,-5.3518,-5.3518,-5.3518,-5.3518,-5.3551,-5.3518,-5.3619,-5.4025,-5.4397,-5.4888,-5.57,-5.6478,-5.6782,-5.7526,-5.7831,-5.7881,-5.7881,-5.7881,-5.7881,-5.7881,-5.7881,-5.7881,-5.7881,-5.7881,-5.7881,-5.7881,-5.7881,-5.7881,-5.7881,-5.7881,-5.7881,-5.7881,-5.7881,-5.7881,-5.7881,-5.7881,-5.7898,-5.7898,-5.8152,-5.8457,-5.9032,-5.9556,-6.0148,-6.0554,-6.0622,-6.0825,-6.0892,-6.1078,-6.1552,-6.1806,-6.1992,-6.1992,-6.2178,-6.2398,-6.2285,-6.2217,-6.2053,-6.1934,-6.1592,-6.1168,-6.0755,-5.9808,-5.9255,-5.9249,-5.9426,-5.9846,-5.9478,-5.872,-5.8547,-5.8494,-5.8227,-5.801,-5.7918,-5.7881,-5.801,-5.801,-5.8046,-5.8101,-5.8082,-5.7974,-5.7918,-5.7918,-5.7881,-5.7881,-5.7881,-5.7881,-5.7881,-5.7881,-5.7881,-5.7881,-5.7983,-5.8237,-5.9032,-6.0114,-6.1434,-6.2296,-6.2398,-6.2398,-6.2398,-5.6478,-5.6461,-5.6461,-5.6478,-5.6308,-5.5412,-5.4972,-5.4905,-5.4465,-5.4143,-5.3957,-5.389,-5.3721,-5.3585,-5.3518,-5.3518,-5.3518,-5.3518,-5.3518,-5.3551,-5.3822,-5.3907,-5.416,-5.46,-5.5192,-5.5547,-5.6156,-5.6884,-5.7239,-5.7645,-5.7848,-5.7881,-5.7881,-5.7881,-5.7881,-5.7881,-5.7881,-5.7881,-5.7881,-5.7881,-5.7881,-5.7881,-5.7881,-5.7881,-5.7881,-5.7881,-5.7881,-5.7881,-5.7881,-5.7881,-5.7881,-5.7881,-5.7932,-5.8203,-5.849,-5.8896,-5.9691,-6.0385,-6.1298,-6.162,-6.162,-6.167,-6.167,-6.189,-6.2296,-6.2279,-6.2313,-6.2347,-6.2398,-6.2398,-6.2398,-6.2398,-6.2347,-6.2212,-6.2076,-6.1637,-6.1078,-6.0139,-5.9499,-5.9412,-5.9032,-5.9425,-5.9462,-5.8994,-5.8424,-5.8352,-5.8227,-5.8029,-5.7881,-5.7881,-5.7881,-5.7918,-5.7918,-5.7974,-5.801,-5.7937,-5.7918,-5.7881,-5.7881,-5.7881,-5.7881,-5.7881,-5.7881,-5.7881,-5.7881,-5.7932,-5.8152,-5.8575,-5.937,-6.0283,-6.14,-6.2042,-6.233,-6.2398,-6.2398,-5.7865,-5.7881,-5.7881,-5.7814,-5.7594,-5.6393,-5.5784,-5.57,-5.5631,-5.5243,-5.4634,-5.4566,-5.4279,-5.3754,-5.3636,-5.3704,-5.3839,-5.3805,-5.3822,-5.394,-5.4414,-5.4549,-5.4871,-5.5395,-5.5902,-5.6461,-5.6951,-5.7323,-5.7797,-5.7848,-5.7865,-5.7881,-5.7881,-5.7881,-5.7881,-5.7881,-5.7881,-5.7881,-5.7881,-5.7881,-5.7881,-5.7881,-5.7881,-5.7881,-5.7881,-5.7881,-5.7881,-5.7881,-5.7881,-5.7881,-5.7881,-5.7915,-5.8152,-5.8626,-5.8879,-5.9488,-6.0571,-6.1467,-6.2059,-6.2212,-6.2245,-6.2178,-6.2262,-6.2364,-6.2381,-6.2398,-6.2398,-6.2398,-6.2398,-6.2398,-6.2398,-6.2398,-6.2398,-6.2364,-6.2364,-6.1975,-6.1552,-6.0858,-6.0233,-5.9749,-5.9055,-5.8876,-5.8524,-5.812,-5.8246,-5.8156,-5.8065,-5.801,-5.7881,-5.7881,-5.7881,-5.7881,-5.7918,-5.7918,-5.7881,-5.7881,-5.7881,-5.7881,-5.7881,-5.7881,-5.7881,-5.7881,-5.7881,-5.7881,-5.7881,-5.7949,-5.8068,-5.8744,-5.9691,-6.0622,-6.1315,-6.1941,-6.2279,-6.2381,-6.2398,-5.7881,-5.7881,-5.7881,-5.7881,-5.7814,-5.7425,-5.6697,-5.5801,-5.5681,-5.5564,-5.5361,-5.482,-5.4803,-5.5023,-5.4549,-5.4651,-5.4871,-5.5091,-5.5108,-5.5192,-5.5209,-5.5327,-5.5649,-5.6122,-5.6579,-5.6917,-5.7289,-5.7611,-5.7797,-5.7881,-5.7881,-5.7881,-5.7881,-5.7881,-5.7881,-5.7881,-5.7881,-5.7881,-5.7881,-5.7881,-5.7881,-5.7881,-5.7881,-5.7881,-5.7881,-5.7881,-5.7881,-5.7881,-5.7881,-5.7881,-5.7881,-5.8034,-5.8727,-5.8964,-5.9268,-6.0622,-6.1518,-6.2195,-6.2364,-6.2398,-6.2398,-6.2398,-6.2398,-6.2398,-6.2398,-6.2398,-6.2398,-6.2398,-6.2398,-6.2398,-6.2398,-6.2398,-6.2398,-6.2398,-6.2398,-6.2229,-6.1823,-6.1484,-6.0842,-5.9911,-5.9235,-5.8473,-5.8,-5.7901,-5.8029,-5.7937,-5.7881,-5.7881,-5.7881,-5.7881,-5.7881,-5.7881,-5.7881,-5.7881,-5.7881,-5.7881,-5.7881,-5.7881,-5.7881,-5.7881,-5.7881,-5.7881,-5.7881,-5.7881,-5.7881,-5.7881,-5.7898,-5.8761,-5.981,-6.0266,-6.0926,-6.1637,-6.2195,-6.2313,-6.2398,-5.7881,-5.7881,-5.7881,-5.7881,-5.7881,-5.7881,-5.7323,-5.663,-5.6579,-5.6444,-5.6122,-5.57,-5.5564,-5.5564,-5.526,-5.526,-5.5598,-5.5564,-5.5581,-5.5632,-5.6038,-5.6122,-5.6393,-5.6816,-5.7188,-5.7425,-5.7577,-5.7814,-5.7881,-5.7881,-5.7881,-5.7881,-5.7881,-5.7881,-5.7881,-5.7881,-5.7881,-5.7881,-5.7881,-5.7881,-5.7881,-5.7881,-5.7881,-5.7881,-5.7881,-5.7881,-5.7881,-5.7881,-5.7881,-5.7881,-5.7881,-5.8237,-5.9049,-5.9539,-6.0351,-6.1552,-6.1992,-6.2313,-6.2398,-6.2398,-6.2398,-6.2398,-6.2398,-6.2398,-6.2398,-6.2398,-6.2398,-6.2398,-6.2398,-6.2398,-6.2398,-6.2398,-6.2398,-6.2398,-6.2398,-6.2398,-6.2178,-6.1958,-6.1146,-6.0165,-5.9302,-5.8473,-5.8068,-5.7966,-5.7881,-5.7881,-5.7881,-5.7881,-5.7881,-5.7881,-5.7881,-5.7881,-5.7881,-5.7881,-5.7881,-5.7881,-5.7881,-5.7881,-5.7881,-5.7881,-5.7881,-5.7881,-5.7881,-5.7881,-5.7881,-5.7881,-5.7881,-5.8879,-5.9827,-6.0266,-6.0858,-6.1772,-6.2296,-6.2347,-6.2398,-5.7881,-5.7881,-5.7881,-5.7881,-5.7881,-5.7881,-5.7848,-5.7881,-5.7746,-5.7492,-5.6934,-5.6782,-5.641,-5.619,-5.5936,-5.5936,-5.619,-5.6241,-5.6275,-5.5936,-5.6613,-5.6884,-5.707,-5.7492,-5.7628,-5.7797,-5.7881,-5.7881,-5.7881,-5.7881,-5.7881,-5.7881,-5.7881,-5.7881,-5.7881,-5.7881,-5.7881,-5.7881,-5.7881,-5.7881,-5.7881,-5.7881,-5.7881,-5.7881,-5.7881,-5.7881,-5.7881,-5.7881,-5.7881,-5.7881,-5.8084,-5.8423,-5.9522,-6.0537,-6.1586,-6.2009,-6.2313,-6.2364,-6.2398,-6.2398,-6.2398,-6.2398,-6.2398,-6.2398,-6.2398,-6.2398,-6.2398,-6.2398,-6.2398,-6.2398,-6.2398,-6.2398,-6.2398,-6.2398,-6.2398,-6.2398,-6.2313,-6.1992,-6.1349,-6.0385,-5.9505,-5.8727,-5.8321,-5.8203,-5.7881,-5.7881,-5.7881,-5.7881,-5.7881,-5.7881,-5.7881,-5.7881,-5.7881,-5.7881,-5.7881,-5.7881,-5.7881,-5.7881,-5.7881,-5.7881,-5.7881,-5.7881,-5.7881,-5.7881,-5.7881,-5.7881,-5.8068,-5.9066,-5.9844,-6.0266,-6.0977,-6.2009,-6.2398,-6.2398,-6.2398,-5.7881,-5.7881,-5.7881,-5.7881,-5.7881,-5.7881,-5.7881,-5.7881,-5.7881,-5.778,-5.756,-5.712,-5.7036,-5.7154,-5.6714,-5.6731,-5.7154,-5.7053,-5.7306,-5.7239,-5.7492,-5.7459,-5.756,-5.7729,-5.7881,-5.7881,-5.7881,-5.7881,-5.7881,-5.7881,-5.7881,-5.7881,-5.7881,-5.7881,-5.7881,-5.7881,-5.7881,-5.7881,-5.7881,-5.7881,-5.7881,-5.7881,-5.7881,-5.7881,-5.7881,-5.7881,-5.7881,-5.7881,-5.7881,-5.7915,-5.849,-5.9404,-6.0706,-6.162,-6.2127,-6.2347,-6.2398,-6.2398,-6.2398,-6.2398,-6.2398,-6.2398,-6.2398,-6.2398,-6.2398,-6.2398,-6.2398,-6.2398,-6.2398,-6.2398,-6.2398,-6.2398,-6.2398,-6.2398,-6.2398,-6.2398,-6.2398,-6.1958,-6.1467,-6.0655,-5.9759,-5.9201,-5.8778,-5.8355,-5.8,-5.7881,-5.7881,-5.7881,-5.7881,-5.7881,-5.7881,-5.7881,-5.7881,-5.7881,-5.7881,-5.7881,-5.7881,-5.7881,-5.7881,-5.7881,-5.7881,-5.7881,-5.7881,-5.7881,-5.7881,-5.7881,-5.8237,-5.9218,-5.9894,-6.0266,-6.1129,-6.2178,-6.2398,-6.2398,-6.2398,-5.7881,-5.7881,-5.7881,-5.7881,-5.7881,-5.7881,-5.7881,-5.7881,-5.7881,-5.7881,-5.7848,-5.7509,-5.7526,-5.7881,-5.7442,-5.7374,-5.7848,-5.7848,-5.7746,-5.7814,-5.7881,-5.7831,-5.7881,-5.7881,-5.7881,-5.7881,-5.7881,-5.7881,-5.7881,-5.7881,-5.7881,-5.7881,-5.7881,-5.7881,-5.7881,-5.7881,-5.7881,-5.7881,-5.7881,-5.7881,-5.7881,-5.7881,-5.7881,-5.7881,-5.7881,-5.7881,-5.7881,-5.7915,-5.8101,-5.8643,-5.9455,-6.0182,-6.1197,-6.1907,-6.2296,-6.2398,-6.2398,-6.2398,-6.2398,-6.2398,-6.2398,-6.2398,-6.2398,-6.2398,-6.2398,-6.2398,-6.2398,-6.2398,-6.2398,-6.2398,-6.2398,-6.2398,-6.2398,-6.2398,-6.2398,-6.2398,-6.2381,-6.2178,-6.1704,-6.1095,-6.0368,-5.9877,-5.9387,-5.8778,-5.8389,-5.7881,-5.7881,-5.7881,-5.7881,-5.7881,-5.7881,-5.7881,-5.7881,-5.7881,-5.7881,-5.7881,-5.7881,-5.7881,-5.7881,-5.7881,-5.7881,-5.7881,-5.7881,-5.7881,-5.7881,-5.7881,-5.8406,-5.9285,-5.981,-6.0148,-6.1197,-6.2381,-6.2398,-6.2398,-6.2398,-5.7554,-5.7517,-5.7755,-5.7792,-5.7718,-5.7845,-5.7881,-5.7881,-5.7881,-5.7881,-5.7881,-5.7848,-5.7881,-5.7881,-5.7881,-5.7881,-5.7881,-5.7881,-5.7881,-5.7881,-5.7881,-5.7881,-5.7881,-5.7881,-5.7881,-5.7881,-5.7881,-5.7881,-5.7881,-5.7881,-5.7881,-5.7881,-5.7881,-5.7881,-5.7881,-5.7881,-5.7881,-5.7881,-5.7881,-5.7881,-5.7881,-5.7881,-5.7881,-5.7881,-5.7881,-5.7881,-5.7881,-5.7983,-5.8304,-5.9201,-6.0216,-6.1028,-6.1552,-6.211,-6.2262,-6.2398,-6.2398,-6.2398,-6.2398,-6.2398,-6.2398,-6.2398,-6.2398,-6.2398,-6.2398,-6.2398,-6.2398,-6.2398,-6.2398,-6.2398,-6.2398,-6.2398,-6.2398,-6.2398,-6.2398,-6.2398,-6.2381,-6.2347,-6.1941,-6.1467,-6.1028,-6.052,-5.9877,-5.9268,-5.8676,-5.8135,-5.7881,-5.7881,-5.7881,-5.7881,-5.7881,-5.7881,-5.7881,-5.7881,-5.7881,-5.7881,-5.7881,-5.7881,-5.7881,-5.7881,-5.7881,-5.7881,-5.7881,-5.7881,-5.7881,-5.7881,-5.8372,-5.9184,-5.9641,-6.0097,-6.1315,-6.2381,-6.2398,-6.2398,-6.2398,-5.6008,-5.5369,-5.711,-5.7389,-5.6778,-5.75,-5.7881,-5.7881,-5.7881,-5.7881,-5.7881,-5.7881,-5.7881,-5.7881,-5.7881,-5.7881,-5.7881,-5.7881,-5.7881,-5.7881,-5.7881,-5.7881,-5.7881,-5.7881,-5.7881,-5.7881,-5.7881,-5.7881,-5.7881,-5.7881,-5.7881,-5.7881,-5.7881,-5.7881,-5.7881,-5.7881,-5.7881,-5.7881,-5.7881,-5.7881,-5.7881,-5.7881,-5.7881,-5.7881,-5.7881,-5.7881,-5.7881,-5.7881,-5.8338,-5.9218,-6.0452,-6.145,-6.1958,-6.2245,-6.2364,-6.2398,-6.2398,-6.2398,-6.2398,-6.2398,-6.2398,-6.2398,-6.2398,-6.2398,-6.2398,-6.2398,-6.2398,-6.2398,-6.2398,-6.2398,-6.2398,-6.2398,-6.2398,-6.2398,-6.2398,-6.2398,-6.2381,-6.2381,-6.2212,-6.189,-6.1569,-6.0926,-6.0216,-5.9539,-5.8812,-5.8338,-5.7932,-5.7915,-5.7881,-5.7881,-5.7881,-5.7881,-5.7881,-5.7881,-5.7881,-5.7881,-5.7881,-5.7881,-5.7881,-5.7881,-5.7881,-5.7881,-5.7881,-5.7881,-5.7881,-5.7881,-5.849,-5.9082,-5.9674,-6.0266,-6.1484,-6.2347,-6.2381,-6.2398,-6.2398]}]]